[[{"header":{"parameterUnit":"m.s-1","parameterCategory":1,"la1":31.0,"la2":29.5877,"lo1":-88.7671,"lo2":-86.6584,"dy":0.0162,"dx":0.0185,"nx":115,"ny":88,"refTime":"2026-03-22T00:00:00:Z","depth":0,"parameterNumber":2,"parameterNumberName":"U-component_of_WINDS"},"data":[0.0,0.0,0.0,0.0,0.0,0.0,0.0,0.0,0.0,0.0,0.0,0.0,0.0,0.0,0.0,0.0,0.0,0.0,0.0,0.0,0.0,0.0,0.0,0.0,0.0,0.0,0.0,0.0,0.0,0.0,0.0,0.0,0.0,0.0,0.0,0.0,0.0,0.0,0.0,0.0,0.0,0.0,0.0,0.0,0.0,0.0,0.0,0.0,0.0,0.0,0.0,0.0,0.0,0.0,0.0,0.0,0.0,0.0,0.0,0.0,0.0,0.0,0.0,0.0,0.0,0.0,0.0,0.0,0.0,0.0,0.0,0.0,0.0,0.0,0.0,0.0,0.0,0.0,0.0,0.0,0.0,0.0,0.0,0.0,0.0,0.0,0.0,0.0,0.0,0.0,0.0,0.0,0.0,0.0,0.0,0.0,0.0,0.0,0.0,0.0,0.0,0.0,0.0,0.0,0.0,0.0,0.0,0.0,0.0,0.0,0.0,0.0,0.0,0.0,0.0,0.0,0.0,0.0,0.0,0.0,0.0,0.0,0.0,0.0,0.0,0.0,0.0,0.0,0.0,0.0,0.0,0.0,0.0,0.0,0.0,0.0,0.0,0.0,0.0,0.0,0.0,0.0,0.0,0.0,0.0,0.0,0.0,0.0,0.0,0.0,0.0,0.0,0.0,0.0,0.0,0.0,0.0,0.0,0.0,0.0,0.0,0.0,0.0,0.0,0.0,0.0,0.0,0.0,0.0,0.0,0.0,0.0,0.0,0.0,0.0,0.0,0.0,0.0,0.0,0.0,0.0,0.0,0.0,0.0,0.0,0.0,0.0,0.0,0.0,0.0,0.0,0.0,0.0,0.0,0.0,0.0,0.0,0.0,0.0,0.0,0.0,0.0,0.0,0.0,0.0,0.0,0.0,0.0,0.0,0.0,0.0,0.0,0.0,0.0,0.0,0.0,0.0,0.0,0.0,0.0,0.0,0.0,0.0,0.0,0.0,0.0,0.0,0.0,0.0,0.0,0.0,0.0,0.0,0.0,0.0,0.0,0.0,0.0,0.0,0.0,0.0,0.0,0.0,0.0,0.0,0.0,0.0,0.0,0.0,0.0,0.0,0.0,0.0,0.0,0.0,0.0,0.0,0.0,0.0,0.0,0.0,0.0,0.0,0.0,0.0,0.0,0.0,0.0,0.0,0.0,0.0,0.0,0.0,0.0,0.0,0.0,0.0,0.0,0.0,0.0,0.0,0.0,0.0,0.0,0.0,0.0,0.0,0.0,0.0,0.0,0.0,0.0,0.0,0.0,0.0,0.0,0.0,0.0,0.0,0.0,0.0,0.0,0.0,0.0,0.0,0.0,0.0,0.0,0.0,0.0,0.0,0.0,0.0,0.0,0.0,0.0,0.0,0.0,0.0,0.0,0.0,0.0,0.0,0.0,0.0,0.0,0.0,0.0,0.0,0.0,0.0,0.0,0.0,0.0,0.0,0.0,0.0,0.0,0.0,0.0,0.0,0.0,0.0,0.0,0.0,0.0,0.0,0.0,0.0,0.0,0.0,0.0,0.0,0.0,0.0,0.0,0.0,0.0,0.0,0.0,0.0,0.0,0.0,0.0,0.0,0.0,0.0,0.0,0.0,0.0,0.0,0.0,0.0,0.0,0.0,0.0,0.0,0.0,0.0,0.0,0.0,0.0,0.0,0.0,0.0,0.0,0.0,0.0,0.0,0.0,0.0,0.0,0.0,0.0,0.0,0.0,0.0,0.0,0.0,0.0,0.0,0.0,0.0,0.0,0.0,0.0,0.0,0.0,0.0,0.0,0.0,0.0,0.0,0.0,0.0,0.0,0.0,0.0,0.0,0.0,0.0,0.0,0.0,0.0,0.0,0.0,0.0,0.0,0.0,0.0,0.0,0.0,0.0,0.0,0.0,0.0,0.0,0.0,0.0,0.0,0.0,0.0,0.0,0.0,0.0,0.0,0.0,0.0,0.0,0.0,0.0,0.0,0.0,0.0,0.0,0.0,0.0,0.0,0.0,0.0,0.0,0.0,0.0,0.0,0.0,0.0,0.0,0.0,0.0,0.0,0.0,0.0,0.0,0.0,0.0,0.0,0.0,0.0,0.0,0.0,0.0,0.0,0.0,0.0,0.0,0.0,0.0,0.0,0.0,0.0,0.0,0.0,0.0,0.0,0.0,0.0,0.0,0.0,0.0,0.0,0.0,0.0,0.0,0.0,0.0,0.0,0.0,0.0,0.0,0.0,0.0,0.0,0.0,0.0,0.0,0.0,0.0,0.0,0.0,0.0,0.0,0.0,0.0,0.0,0.0,0.0,0.0,0.0,0.0,0.0,0.0,0.0,0.0,0.0,0.0,0.0,0.0,0.0,0.0,0.0,0.0,0.0,0.0,0.0,0.0,0.0,0.0,0.0,0.0,0.0,0.0,0.0,0.0,0.0,0.0,0.0,0.0,0.0,0.0,0.0,0.0,0.0,0.0,0.0,0.0,0.0,0.0,0.0,0.0,0.0,0.0,0.0,0.0,0.0,0.0,0.0,0.0,0.0,0.0,0.0,0.0,0.0,0.0,0.0,0.0,0.0,0.0,0.0,0.0,0.0,0.0,0.0,0.0,0.0,0.0,0.0,0.0,0.0,0.0,0.0,0.0,0.0,0.0,0.0,0.0,0.0,0.0,0.0,0.0,0.0,0.0,0.0,0.0,0.0,0.0,0.0,0.0,0.0,0.0,0.0,0.0,0.0,0.0,0.0,0.0,0.0,0.0,0.0,0.0,0.0,0.0,0.0,0.0,0.0,0.0,0.0,0.0,0.0,0.0,0.0,0.0,0.0,0.0,0.0,0.0,0.0,0.0,0.0,0.0,0.0,0.0,0.0,0.0,0.0,0.0,0.0,0.0,0.0,0.0,0.0,0.0,0.0,0.0,0.0,0.0,0.0,0.0,0.0,0.0,0.0,0.0,0.0,0.0,0.0,0.0,0.0,0.0,0.0,0.0,0.0,0.0,0.0,0.0,0.0,0.0,0.0,0.0,0.0,0.0,0.0,0.0,0.0,0.0,0.0,0.0,0.0,0.0,0.0,0.0,0.0,0.0,0.0,0.0,0.0,0.0,0.0,0.0,0.0,0.0,0.0,0.0,0.0,0.0,0.0,0.0,0.0,0.0,0.0,0.0,0.0,0.0,0.0,0.0,0.0,0.0,0.0,0.0,0.0,0.0,0.0,0.0,0.0,0.0,0.0,0.0,0.0,0.0,0.0,0.0,0.0,0.0,0.0,0.0,0.0,0.0,0.0,0.0,0.0,0.0,0.0,0.0,0.0,0.0,0.0,0.0,0.0,0.0,0.0,0.0,0.0,0.0,0.0,0.0,0.0,0.0,0.0,0.0,0.0,0.0,0.0,0.0,0.0,0.0,0.0,0.0,0.0,0.0,0.0,0.0,0.0,0.0,0.0,0.0,0.0,0.0,0.0,0.0,0.0,0.0,0.0,0.0,0.0,0.0,0.0,0.0,0.0,0.0,0.0,0.0,0.0,0.0,0.0,0.0,0.0,0.0,0.0,0.0,0.0,0.0,0.0,0.0,0.0,0.0,0.0,0.0,0.0,0.0,0.0,0.0,0.0,0.0,0.0,0.0,0.0,0.0,0.0,0.0,0.0,0.0,0.0,0.0,0.0,0.0,0.0,0.0,0.0,0.0,0.0,0.0,0.0,0.0,0.0,0.0,0.0,0.0,0.0,0.0,0.0,0.0,0.0,0.0,0.0,0.0,0.0,0.0,0.0,0.0,0.0,0.0,0.0,0.0,0.0,0.0,0.0,0.0,0.0,0.0,0.0,0.0,0.0,0.0,0.0,0.0,0.0,0.0,0.0,0.0,0.0,0.0,0.0,0.0,0.0,0.0,0.0,0.0,0.0,0.0,0.0,0.0,0.0,0.0,0.0,0.0,0.0,0.0,0.0,0.0,0.0,0.0,0.0,0.0,0.0,0.0,0.0,0.0,0.0,0.0,0.0,0.0,0.0,0.0,0.0,0.0,0.0,0.0,0.0,0.0,0.0,0.0,0.0,0.0,0.0,0.0,0.0,0.0,0.0,0.0,0.0,0.0,0.0,0.0,0.0,0.0,0.0,0.0,0.0,0.0,0.0,0.0,0.0,0.0,0.0,0.0,0.0,0.0,0.0,0.0,0.0,0.0,0.0,0.0,0.0,0.0,0.0,0.0,0.0,0.0,0.0,0.0,0.0,0.0,0.0,0.0,0.0,0.0,0.0,-5.0867,0.0,0.0,0.0,0.0,0.0,0.0,0.0,0.0,0.0,0.0,0.0,0.0,0.0,0.0,0.0,0.0,0.0,0.0,0.0,0.0,0.0,0.0,0.0,0.0,0.0,0.0,0.0,0.0,0.0,0.0,0.0,0.0,0.0,0.0,0.0,0.0,0.0,0.0,0.0,0.0,0.0,0.0,0.0,0.0,0.0,0.0,0.0,0.0,0.0,0.0,0.0,0.0,0.0,0.0,0.0,0.0,0.0,0.0,0.0,0.0,0.0,0.0,0.0,0.0,0.0,0.0,0.0,0.0,0.0,0.0,0.0,0.0,0.0,0.0,0.0,0.0,0.0,0.0,0.0,0.0,0.0,0.0,0.0,0.0,0.0,0.0,0.0,0.0,0.0,0.0,0.0,0.0,0.0,0.0,0.0,0.0,0.0,0.0,0.0,0.0,0.0,0.0,0.0,0.0,0.0,0.0,0.0,0.0,0.0,0.0,-5.1441,-5.2975,-5.2584,-5.2304,-5.2169,0.0,0.0,0.0,0.0,0.0,0.0,0.0,0.0,0.0,0.0,0.0,0.0,0.0,0.0,0.0,0.0,0.0,0.0,0.0,0.0,0.0,0.0,0.0,0.0,0.0,0.0,0.0,0.0,0.0,0.0,0.0,0.0,0.0,0.0,0.0,0.0,0.0,0.0,0.0,0.0,0.0,0.0,0.0,0.0,0.0,0.0,0.0,0.0,0.0,0.0,0.0,0.0,0.0,0.0,0.0,0.0,0.0,0.0,0.0,0.0,0.0,0.0,0.0,0.0,0.0,0.0,0.0,0.0,0.0,0.0,0.0,0.0,0.0,0.0,0.0,0.0,0.0,0.0,0.0,0.0,0.0,0.0,0.0,0.0,0.0,0.0,0.0,0.0,0.0,0.0,0.0,0.0,0.0,0.0,0.0,0.0,0.0,0.0,0.0,0.0,0.0,0.0,0.0,0.0,0.0,0.0,0.0,0.0,0.0,0.0,0.0,0.0,-5.4116,-5.3552,-5.288,0.0,0.0,0.0,0.0,0.0,0.0,0.0,0.0,0.0,0.0,0.0,0.0,0.0,0.0,0.0,0.0,0.0,0.0,0.0,0.0,0.0,0.0,0.0,0.0,0.0,0.0,0.0,0.0,0.0,0.0,0.0,0.0,0.0,0.0,0.0,0.0,0.0,0.0,0.0,0.0,0.0,0.0,0.0,0.0,0.0,0.0,0.0,0.0,0.0,0.0,0.0,0.0,0.0,0.0,0.0,0.0,0.0,0.0,0.0,0.0,0.0,0.0,0.0,0.0,0.0,0.0,0.0,0.0,0.0,0.0,0.0,0.0,0.0,0.0,0.0,0.0,0.0,0.0,0.0,0.0,0.0,0.0,0.0,0.0,0.0,0.0,0.0,0.0,0.0,0.0,0.0,0.0,0.0,0.0,0.0,0.0,0.0,0.0,0.0,0.0,0.0,0.0,0.0,0.0,0.0,0.0,0.0,0.0,0.0,0.0,-5.3017,-5.4551,-5.5158,0.0,-5.2194,0.0,0.0,0.0,0.0,0.0,0.0,0.0,0.0,0.0,0.0,0.0,0.0,0.0,0.0,0.0,0.0,0.0,0.0,0.0,0.0,0.0,0.0,0.0,0.0,0.0,0.0,0.0,0.0,0.0,0.0,0.0,0.0,0.0,0.0,0.0,0.0,0.0,0.0,0.0,0.0,0.0,0.0,0.0,0.0,0.0,0.0,0.0,0.0,0.0,0.0,0.0,0.0,0.0,0.0,0.0,0.0,0.0,0.0,0.0,0.0,0.0,0.0,0.0,0.0,0.0,0.0,0.0,0.0,0.0,0.0,0.0,0.0,0.0,0.0,0.0,0.0,0.0,0.0,0.0,0.0,0.0,0.0,0.0,0.0,0.0,0.0,0.0,0.0,0.0,0.0,0.0,0.0,0.0,0.0,0.0,0.0,0.0,0.0,0.0,0.0,0.0,0.0,0.0,0.0,0.0,0.0,0.0,0.0,0.0,0.0,-5.3298,-5.5197,-5.4597,-5.3514,0.0,0.0,0.0,0.0,0.0,0.0,0.0,0.0,0.0,0.0,0.0,0.0,0.0,0.0,0.0,0.0,0.0,0.0,0.0,0.0,0.0,0.0,0.0,0.0,0.0,0.0,0.0,0.0,0.0,0.0,0.0,0.0,0.0,0.0,0.0,0.0,0.0,0.0,0.0,0.0,0.0,0.0,0.0,0.0,0.0,0.0,0.0,0.0,0.0,0.0,0.0,0.0,0.0,0.0,0.0,0.0,0.0,0.0,0.0,0.0,0.0,0.0,0.0,0.0,0.0,0.0,0.0,0.0,0.0,0.0,0.0,0.0,0.0,0.0,0.0,0.0,0.0,0.0,0.0,0.0,0.0,0.0,0.0,0.0,0.0,0.0,0.0,0.0,0.0,0.0,0.0,0.0,0.0,0.0,0.0,0.0,0.0,0.0,0.0,0.0,0.0,0.0,0.0,0.0,0.0,0.0,0.0,0.0,0.0,0.0,-5.217,-5.3753,-5.5803,-5.4925,-5.3518,-5.172,0.0,0.0,0.0,0.0,0.0,0.0,0.0,0.0,0.0,0.0,0.0,0.0,0.0,0.0,0.0,0.0,0.0,0.0,0.0,0.0,0.0,0.0,0.0,0.0,0.0,0.0,0.0,0.0,0.0,0.0,0.0,0.0,0.0,0.0,0.0,0.0,0.0,0.0,0.0,0.0,0.0,0.0,0.0,0.0,0.0,0.0,0.0,0.0,0.0,0.0,0.0,0.0,0.0,0.0,0.0,0.0,0.0,0.0,0.0,0.0,0.0,0.0,0.0,0.0,0.0,0.0,0.0,0.0,0.0,0.0,0.0,0.0,0.0,0.0,0.0,0.0,0.0,0.0,0.0,0.0,0.0,0.0,0.0,0.0,0.0,0.0,0.0,0.0,0.0,0.0,0.0,0.0,0.0,0.0,0.0,0.0,0.0,0.0,0.0,0.0,0.0,0.0,0.0,0.0,0.0,0.0,0.0,0.0,-5.1148,-5.2677,-5.4502,-5.6644,-5.7022,-5.5215,0.0,0.0,0.0,0.0,0.0,0.0,0.0,0.0,0.0,0.0,0.0,0.0,0.0,0.0,0.0,0.0,0.0,0.0,0.0,0.0,0.0,0.0,0.0,0.0,0.0,0.0,0.0,0.0,0.0,0.0,0.0,0.0,0.0,0.0,0.0,0.0,0.0,0.0,0.0,0.0,0.0,0.0,0.0,0.0,0.0,0.0,0.0,0.0,0.0,0.0,0.0,0.0,0.0,0.0,0.0,0.0,0.0,0.0,0.0,0.0,0.0,0.0,0.0,0.0,0.0,0.0,0.0,0.0,0.0,0.0,0.0,0.0,0.0,0.0,0.0,0.0,0.0,0.0,0.0,0.0,0.0,0.0,0.0,0.0,0.0,0.0,0.0,0.0,0.0,0.0,0.0,0.0,0.0,0.0,0.0,0.0,0.0,0.0,0.0,0.0,0.0,0.0,0.0,0.0,0.0,0.0,0.0,0.0,0.0,-5.1206,-5.3369,-5.5247,-5.6671,-5.5215,-5.3458,0.0,0.0,0.0,0.0,0.0,0.0,0.0,0.0,0.0,0.0,0.0,0.0,0.0,0.0,0.0,0.0,0.0,0.0,0.0,0.0,0.0,0.0,0.0,0.0,0.0,0.0,0.0,0.0,0.0,0.0,0.0,0.0,0.0,0.0,0.0,0.0,0.0,0.0,0.0,0.0,0.0,0.0,0.0,0.0,0.0,0.0,0.0,0.0,0.0,0.0,0.0,0.0,0.0,0.0,0.0,0.0,0.0,0.0,0.0,0.0,0.0,0.0,0.0,0.0,0.0,0.0,0.0,0.0,0.0,0.0,0.0,0.0,0.0,0.0,0.0,0.0,0.0,0.0,0.0,0.0,0.0,0.0,0.0,0.0,0.0,0.0,0.0,0.0,0.0,0.0,0.0,0.0,0.0,0.0,0.0,0.0,0.0,0.0,0.0,0.0,0.0,0.0,0.0,0.0,0.0,0.0,0.0,0.0,0.0,-5.1808,0.0,-5.6082,-5.6735,-5.4764,-5.2789,0.0,0.0,0.0,0.0,0.0,0.0,0.0,0.0,0.0,0.0,0.0,0.0,0.0,0.0,0.0,0.0,0.0,0.0,0.0,0.0,0.0,0.0,0.0,0.0,0.0,0.0,0.0,0.0,0.0,0.0,0.0,0.0,0.0,0.0,0.0,0.0,0.0,0.0,0.0,0.0,0.0,0.0,0.0,0.0,0.0,0.0,0.0,0.0,0.0,0.0,0.0,0.0,0.0,0.0,0.0,0.0,0.0,0.0,0.0,0.0,0.0,0.0,0.0,0.0,0.0,0.0,0.0,0.0,0.0,0.0,0.0,0.0,0.0,0.0,0.0,0.0,0.0,0.0,0.0,0.0,0.0,0.0,0.0,0.0,0.0,0.0,0.0,0.0,0.0,0.0,0.0,0.0,0.0,0.0,0.0,0.0,0.0,0.0,0.0,0.0,0.0,0.0,0.0,0.0,0.0,0.0,0.0,0.0,-4.9621,-5.2965,-5.5599,-5.693,-5.6905,-5.5996,-5.355,0.0,0.0,0.0,0.0,0.0,0.0,0.0,0.0,0.0,0.0,0.0,0.0,0.0,0.0,0.0,0.0,0.0,0.0,0.0,0.0,0.0,0.0,0.0,0.0,0.0,0.0,0.0,0.0,0.0,0.0,0.0,0.0,0.0,0.0,0.0,0.0,0.0,0.0,0.0,0.0,0.0,0.0,0.0,0.0,0.0,0.0,0.0,0.0,0.0,0.0,0.0,0.0,0.0,0.0,0.0,0.0,0.0,0.0,0.0,0.0,0.0,0.0,0.0,0.0,0.0,0.0,0.0,0.0,0.0,0.0,0.0,0.0,0.0,0.0,0.0,0.0,0.0,0.0,0.0,0.0,0.0,0.0,0.0,0.0,0.0,0.0,0.0,0.0,0.0,0.0,0.0,0.0,0.0,0.0,0.0,0.0,0.0,0.0,0.0,0.0,0.0,0.0,0.0,0.0,0.0,0.0,0.0,0.0,0.0,-5.2294,-5.5318,-5.7217,-5.7691,-5.5362,-5.3055,0.0,0.0,0.0,0.0,0.0,0.0,0.0,0.0,0.0,0.0,0.0,0.0,0.0,0.0,0.0,0.0,0.0,0.0,0.0,0.0,0.0,0.0,0.0,0.0,0.0,0.0,0.0,0.0,0.0,0.0,0.0,0.0,0.0,0.0,0.0,0.0,0.0,0.0,0.0,0.0,0.0,0.0,0.0,0.0,0.0,0.0,0.0,0.0,0.0,0.0,0.0,0.0,0.0,0.0,0.0,0.0,0.0,0.0,0.0,0.0,0.0,0.0,0.0,0.0,0.0,0.0,0.0,0.0,0.0,0.0,0.0,0.0,0.0,0.0,0.0,0.0,0.0,0.0,0.0,0.0,0.0,0.0,0.0,0.0,0.0,0.0,0.0,0.0,0.0,0.0,0.0,0.0,0.0,0.0,0.0,0.0,0.0,0.0,0.0,0.0,0.0,0.0,0.0,0.0,0.0,0.0,0.0,0.0,0.0,-5.3534,-5.665,-5.8575,-5.9151,-5.6247,-5.379,-5.186,0.0,0.0,0.0,0.0,0.0,0.0,0.0,0.0,0.0,0.0,0.0,0.0,0.0,0.0,0.0,0.0,0.0,0.0,0.0,0.0,0.0,0.0,0.0,0.0,0.0,0.0,0.0,0.0,0.0,0.0,0.0,0.0,0.0,0.0,0.0,0.0,0.0,0.0,0.0,0.0,0.0,0.0,0.0,0.0,0.0,0.0,0.0,0.0,0.0,0.0,0.0,0.0,0.0,0.0,0.0,0.0,0.0,0.0,0.0,0.0,0.0,0.0,0.0,0.0,0.0,0.0,0.0,0.0,0.0,0.0,0.0,0.0,0.0,0.0,0.0,0.0,0.0,0.0,0.0,0.0,0.0,0.0,0.0,0.0,0.0,0.0,0.0,0.0,0.0,0.0,0.0,0.0,0.0,0.0,0.0,0.0,0.0,0.0,0.0,0.0,0.0,0.0,0.0,0.0,0.0,0.0,0.0,0.0,-5.622,-5.9249,-6.0839,-6.0803,-5.8324,-5.5467,0.0,0.0,0.0,0.0,0.0,0.0,0.0,0.0,0.0,0.0,0.0,0.0,0.0,0.0,0.0,0.0,0.0,0.0,0.0,0.0,0.0,0.0,0.0,0.0,0.0,0.0,0.0,0.0,0.0,0.0,0.0,0.0,0.0,0.0,0.0,0.0,0.0,0.0,0.0,0.0,0.0,0.0,0.0,0.0,0.0,0.0,0.0,0.0,0.0,0.0,0.0,0.0,0.0,0.0,0.0,0.0,0.0,0.0,0.0,0.0,0.0,0.0,0.0,0.0,0.0,0.0,0.0,0.0,0.0,0.0,0.0,0.0,0.0,0.0,0.0,0.0,0.0,0.0,0.0,0.0,0.0,0.0,0.0,0.0,0.0,0.0,0.0,0.0,0.0,0.0,0.0,0.0,0.0,0.0,0.0,0.0,0.0,0.0,0.0,0.0,0.0,0.0,0.0,0.0,0.0,0.0,0.0,0.0,0.0,-5.8098,-6.0978,-6.223,-6.1707,-5.8663,-5.5599,0.0,0.0,0.0,0.0,0.0,0.0,0.0,0.0,0.0,0.0,0.0,0.0,0.0,0.0,0.0,0.0,0.0,0.0,0.0,0.0,0.0,0.0,0.0,0.0,0.0,0.0,0.0,0.0,0.0,0.0,0.0,0.0,0.0,0.0,0.0,0.0,0.0,0.0,0.0,0.0,0.0,0.0,0.0,0.0,0.0,0.0,0.0,0.0,0.0,0.0,0.0,0.0,0.0,0.0,0.0,0.0,0.0,0.0,0.0,0.0,0.0,0.0,0.0,0.0,0.0,0.0,0.0,0.0,0.0,0.0,0.0,0.0,0.0,0.0,0.0,0.0,0.0,0.0,0.0,0.0,0.0,0.0,0.0,0.0,0.0,0.0,0.0,0.0,0.0,0.0,0.0,0.0,0.0,0.0,0.0,0.0,0.0,0.0,0.0,0.0,0.0,0.0,0.0,0.0,0.0,0.0,0.0,0.0,-5.5615,-5.8805,-6.1442,-6.2726,-6.2523,-5.9947,-5.7144,0.0,0.0,0.0,0.0,0.0,0.0,0.0,0.0,0.0,0.0,0.0,0.0,0.0,0.0,0.0,0.0,0.0,0.0,0.0,0.0,0.0,0.0,0.0,0.0,0.0,0.0,0.0,0.0,0.0,0.0,0.0,0.0,0.0,0.0,0.0,0.0,0.0,0.0,0.0,0.0,0.0,0.0,0.0,0.0,0.0,0.0,0.0,0.0,0.0,0.0,0.0,0.0,0.0,0.0,0.0,0.0,0.0,0.0,0.0,0.0,0.0,0.0,0.0,0.0,0.0,0.0,0.0,0.0,0.0,0.0,0.0,0.0,0.0,0.0,0.0,0.0,0.0,0.0,0.0,0.0,0.0,0.0,0.0,0.0,0.0,0.0,0.0,0.0,0.0,0.0,0.0,0.0,0.0,0.0,0.0,0.0,0.0,0.0,0.0,0.0,0.0,0.0,0.0,0.0,0.0,0.0,0.0,0.0,-5.6131,-5.8812,-6.1263,-6.2728,-6.3069,-6.1541,-5.9081,0.0,0.0,0.0,0.0,0.0,0.0,0.0,0.0,0.0,0.0,0.0,0.0,0.0,0.0,0.0,0.0,0.0,0.0,0.0,0.0,0.0,0.0,0.0,0.0,0.0,0.0,0.0,0.0,0.0,0.0,0.0,0.0,0.0,0.0,0.0,0.0,0.0,0.0,0.0,0.0,0.0,0.0,0.0,0.0,0.0,0.0,0.0,0.0,0.0,0.0,0.0,0.0,0.0,0.0,0.0,0.0,0.0,0.0,0.0,0.0,0.0,0.0,0.0,0.0,0.0,0.0,0.0,0.0,0.0,0.0,0.0,0.0,0.0,0.0,0.0,0.0,0.0,0.0,0.0,0.0,0.0,0.0,0.0,0.0,0.0,0.0,0.0,0.0,0.0,0.0,0.0,0.0,0.0,0.0,0.0,0.0,0.0,0.0,0.0,0.0,0.0,0.0,0.0,0.0,0.0,0.0,0.0,0.0,-5.6805,-5.9186,-6.1902,-6.3376,-6.3504,-6.1304,-5.8161,0.0,0.0,0.0,0.0,0.0,0.0,0.0,0.0,0.0,0.0,0.0,0.0,0.0,0.0,0.0,0.0,0.0,0.0,0.0,0.0,0.0,0.0,0.0,0.0,0.0,0.0,0.0,0.0,0.0,0.0,0.0,0.0,0.0,0.0,0.0,0.0,0.0,0.0,0.0,0.0,0.0,0.0,0.0,0.0,0.0,0.0,0.0,0.0,-5.0681,0.0,0.0,0.0,0.0,0.0,0.0,0.0,0.0,0.0,0.0,0.0,0.0,0.0,0.0,0.0,0.0,0.0,0.0,0.0,0.0,0.0,0.0,0.0,0.0,0.0,0.0,0.0,0.0,0.0,0.0,0.0,0.0,0.0,0.0,0.0,0.0,0.0,0.0,0.0,0.0,0.0,0.0,0.0,0.0,0.0,0.0,0.0,0.0,0.0,0.0,0.0,0.0,0.0,0.0,0.0,0.0,0.0,0.0,0.0,-5.7349,-5.9286,-6.1867,-6.3238,-6.3164,-6.1244,-5.8363,0.0,0.0,0.0,0.0,0.0,0.0,0.0,0.0,0.0,0.0,0.0,0.0,0.0,0.0,0.0,0.0,0.0,0.0,0.0,0.0,0.0,0.0,0.0,0.0,0.0,0.0,0.0,0.0,0.0,0.0,0.0,0.0,0.0,0.0,0.0,0.0,0.0,0.0,0.0,0.0,0.0,0.0,0.0,0.0,0.0,0.0,0.0,0.0,0.0,0.0,0.0,0.0,0.0,0.0,0.0,0.0,0.0,0.0,0.0,0.0,0.0,0.0,0.0,0.0,0.0,0.0,0.0,0.0,0.0,0.0,0.0,0.0,0.0,0.0,0.0,0.0,0.0,0.0,0.0,0.0,0.0,0.0,0.0,0.0,0.0,0.0,0.0,0.0,0.0,0.0,0.0,0.0,0.0,0.0,0.0,0.0,0.0,0.0,0.0,0.0,0.0,0.0,0.0,0.0,0.0,0.0,0.0,-5.4358,-5.7381,-5.9277,-6.1469,-6.2622,-6.2603,-6.1062,-5.8604,-5.5244,0.0,0.0,0.0,0.0,0.0,0.0,0.0,0.0,0.0,0.0,0.0,0.0,0.0,0.0,0.0,0.0,0.0,0.0,0.0,0.0,0.0,0.0,0.0,0.0,0.0,0.0,0.0,0.0,0.0,0.0,0.0,0.0,0.0,0.0,0.0,0.0,0.0,0.0,-3.7191,-4.0815,0.0,0.0,0.0,0.0,0.0,0.0,0.0,0.0,-5.2198,0.0,0.0,0.0,0.0,0.0,0.0,0.0,0.0,0.0,0.0,0.0,0.0,0.0,0.0,0.0,0.0,0.0,0.0,0.0,0.0,0.0,0.0,0.0,0.0,0.0,0.0,0.0,0.0,0.0,0.0,0.0,0.0,0.0,0.0,0.0,0.0,0.0,0.0,0.0,0.0,0.0,0.0,0.0,0.0,0.0,0.0,0.0,0.0,0.0,0.0,0.0,0.0,0.0,0.0,0.0,0.0,-5.087,-5.3019,-5.5772,-5.9218,-6.0925,-6.1796,-6.1759,-6.0254,-5.7401,-5.3258,0.0,0.0,0.0,0.0,0.0,0.0,0.0,0.0,0.0,0.0,0.0,0.0,0.0,0.0,0.0,0.0,0.0,0.0,0.0,0.0,0.0,0.0,0.0,0.0,0.0,0.0,0.0,0.0,0.0,0.0,0.0,0.0,0.0,0.0,0.0,0.0,0.0,0.0,0.0,-4.4149,-4.7017,0.0,0.0,0.0,0.0,0.0,0.0,0.0,0.0,-5.146,0.0,0.0,0.0,0.0,0.0,0.0,0.0,0.0,0.0,0.0,0.0,0.0,0.0,0.0,0.0,0.0,0.0,0.0,0.0,0.0,0.0,0.0,0.0,0.0,0.0,0.0,0.0,0.0,0.0,0.0,0.0,0.0,0.0,0.0,0.0,0.0,0.0,0.0,0.0,0.0,0.0,0.0,0.0,0.0,0.0,0.0,0.0,0.0,0.0,0.0,0.0,0.0,0.0,0.0,0.0,-4.982,-5.2926,-5.5832,-5.8615,-6.0199,-6.097,-6.0933,-5.9024,-5.6237,0.0,0.0,0.0,0.0,0.0,0.0,0.0,0.0,0.0,0.0,0.0,0.0,0.0,0.0,0.0,0.0,0.0,0.0,0.0,0.0,0.0,0.0,0.0,0.0,0.0,0.0,0.0,0.0,0.0,0.0,0.0,0.0,0.0,0.0,0.0,0.0,0.0,0.0,0.0,0.0,-4.4929,-4.7742,-5.0387,0.0,0.0,0.0,0.0,0.0,0.0,-5.2262,-5.0933,0.0,0.0,0.0,0.0,0.0,0.0,0.0,0.0,0.0,0.0,0.0,0.0,0.0,0.0,0.0,0.0,0.0,0.0,0.0,0.0,0.0,0.0,0.0,0.0,0.0,0.0,0.0,0.0,0.0,0.0,0.0,0.0,0.0,0.0,0.0,0.0,0.0,0.0,0.0,0.0,0.0,0.0,0.0,0.0,0.0,0.0,0.0,0.0,0.0,0.0,0.0,0.0,0.0,0.0,0.0,-4.854,-5.2607,-5.5798,-5.8025,-5.9429,-6.0162,-6.0107,-5.7844,-5.5245,0.0,0.0,0.0,0.0,0.0,0.0,0.0,0.0,0.0,0.0,0.0,0.0,0.0,0.0,0.0,0.0,0.0,0.0,0.0,0.0,0.0,0.0,0.0,0.0,0.0,0.0,0.0,0.0,0.0,0.0,0.0,0.0,0.0,0.0,0.0,0.0,0.0,0.0,0.0,0.0,0.0,-4.9055,-5.2309,-5.2686,0.0,0.0,0.0,0.0,-5.3856,-5.2672,0.0,0.0,0.0,0.0,0.0,0.0,0.0,0.0,0.0,0.0,0.0,0.0,0.0,0.0,0.0,0.0,0.0,0.0,0.0,0.0,0.0,0.0,0.0,0.0,0.0,0.0,0.0,0.0,0.0,0.0,0.0,0.0,0.0,0.0,0.0,0.0,0.0,0.0,0.0,0.0,0.0,0.0,0.0,0.0,0.0,0.0,0.0,0.0,0.0,0.0,0.0,0.0,0.0,0.0,0.0,0.0,-4.7577,-5.0709,-5.4202,-5.7919,-5.8921,-5.9331,-5.9313,-5.7116,-5.4496,0.0,0.0,0.0,0.0,0.0,0.0,0.0,0.0,0.0,0.0,0.0,0.0,0.0,0.0,0.0,0.0,0.0,0.0,0.0,0.0,0.0,0.0,0.0,0.0,0.0,0.0,0.0,0.0,0.0,0.0,0.0,0.0,0.0,0.0,0.0,0.0,0.0,0.0,0.0,0.0,0.0,-5.3045,-5.3656,-5.4642,-5.5069,0.0,0.0,-5.5344,-5.5446,-5.4782,0.0,0.0,0.0,0.0,0.0,0.0,0.0,0.0,0.0,0.0,0.0,0.0,0.0,0.0,0.0,0.0,0.0,0.0,0.0,0.0,0.0,0.0,0.0,0.0,0.0,0.0,0.0,0.0,0.0,0.0,0.0,0.0,0.0,0.0,0.0,0.0,0.0,0.0,0.0,0.0,0.0,0.0,0.0,0.0,0.0,0.0,0.0,0.0,0.0,0.0,0.0,0.0,0.0,0.0,0.0,-4.3042,-4.6293,-4.9456,-5.2955,-5.6569,-5.7051,-5.7237,-5.7261,-5.4961,-5.2355,0.0,0.0,0.0,0.0,0.0,0.0,0.0,0.0,0.0,0.0,0.0,0.0,0.0,0.0,0.0,0.0,0.0,0.0,0.0,0.0,0.0,0.0,0.0,0.0,0.0,0.0,0.0,0.0,0.0,0.0,0.0,0.0,0.0,0.0,0.0,0.0,0.0,0.0,0.0,0.0,0.0,0.0,-5.3852,-5.5325,0.0,0.0,0.0,-5.5471,-5.4775,0.0,0.0,0.0,0.0,0.0,0.0,0.0,0.0,0.0,0.0,0.0,0.0,0.0,0.0,0.0,0.0,0.0,0.0,0.0,0.0,0.0,0.0,0.0,0.0,0.0,0.0,0.0,0.0,0.0,0.0,0.0,0.0,0.0,0.0,0.0,0.0,0.0,0.0,0.0,0.0,0.0,0.0,0.0,0.0,0.0,0.0,0.0,0.0,0.0,0.0,0.0,0.0,0.0,0.0,0.0,0.0,0.0,-4.5134,-4.8723,-5.1956,-5.4745,-5.5053,-5.5194,-5.5184,-5.2863,0.0,0.0,0.0,0.0,0.0,0.0,0.0,0.0,0.0,0.0,0.0,0.0,0.0,0.0,0.0,0.0,0.0,0.0,0.0,0.0,0.0,0.0,0.0,0.0,0.0,0.0,0.0,-3.0059,0.0,0.0,0.0,0.0,0.0,0.0,0.0,0.0,0.0,0.0,0.0,0.0,0.0,0.0,-5.1933,-5.3932,-5.5475,-5.627,0.0,0.0,-5.4858,-5.3945,-5.352,-5.222,0.0,0.0,0.0,0.0,0.0,0.0,0.0,0.0,0.0,0.0,0.0,0.0,0.0,0.0,0.0,0.0,0.0,0.0,0.0,0.0,0.0,0.0,0.0,0.0,0.0,0.0,0.0,0.0,0.0,0.0,0.0,0.0,0.0,0.0,0.0,0.0,0.0,0.0,0.0,0.0,0.0,0.0,0.0,0.0,0.0,0.0,0.0,0.0,0.0,0.0,0.0,0.0,0.0,0.0,-4.3251,-4.4474,-4.8594,-5.1359,-5.2624,-5.3291,-5.3655,-5.3638,-5.145,-4.9482,0.0,0.0,0.0,0.0,0.0,0.0,0.0,0.0,0.0,0.0,0.0,0.0,0.0,0.0,0.0,0.0,0.0,0.0,0.0,0.0,0.0,0.0,0.0,0.0,0.0,0.0,0.0,0.0,0.0,0.0,0.0,0.0,0.0,0.0,0.0,0.0,0.0,0.0,0.0,0.0,0.0,-5.2427,-5.4305,-5.5048,-5.5605,0.0,-5.4775,-5.3672,-5.3526,-5.4218,-5.331,-4.8802,0.0,0.0,0.0,0.0,0.0,0.0,0.0,0.0,0.0,0.0,0.0,0.0,0.0,0.0,0.0,0.0,0.0,0.0,0.0,0.0,0.0,0.0,0.0,0.0,0.0,0.0,0.0,0.0,0.0,0.0,0.0,0.0,0.0,0.0,0.0,0.0,0.0,0.0,0.0,0.0,0.0,0.0,0.0,0.0,0.0,0.0,0.0,0.0,0.0,0.0,0.0,0.0,0.0,-4.1828,-4.3766,-4.7094,-4.9987,-5.2297,-5.2201,-5.1854,-5.142,-5.0084,-4.8014,0.0,0.0,0.0,0.0,0.0,0.0,0.0,0.0,0.0,0.0,0.0,0.0,0.0,0.0,0.0,0.0,0.0,0.0,0.0,0.0,0.0,0.0,0.0,0.0,0.0,0.0,0.0,0.0,-3.3649,-3.5123,-3.6707,0.0,0.0,0.0,0.0,0.0,0.0,0.0,0.0,0.0,0.0,-5.045,-5.2965,-5.4189,0.0,0.0,-5.4364,-5.378,-5.2627,-5.2535,-5.1284,-4.757,-4.5759,0.0,0.0,0.0,0.0,0.0,0.0,0.0,0.0,0.0,0.0,0.0,0.0,0.0,0.0,0.0,0.0,0.0,0.0,0.0,0.0,0.0,0.0,0.0,0.0,0.0,0.0,0.0,0.0,0.0,0.0,0.0,0.0,0.0,0.0,0.0,0.0,0.0,0.0,0.0,0.0,0.0,0.0,0.0,0.0,0.0,0.0,0.0,0.0,0.0,0.0,0.0,0.0,-4.099,-4.2719,-4.5795,-4.8435,-5.0676,-5.0182,-4.9631,-4.9108,-4.834,-4.6508,0.0,0.0,0.0,0.0,0.0,0.0,0.0,0.0,0.0,0.0,0.0,0.0,0.0,0.0,0.0,0.0,0.0,0.0,0.0,0.0,0.0,0.0,0.0,0.0,0.0,0.0,0.0,0.0,-3.5009,-3.6269,-3.663,0.0,0.0,0.0,0.0,0.0,0.0,0.0,0.0,0.0,0.0,-4.8859,-5.1774,-5.2761,-5.3079,-5.2768,-5.255,-5.2012,-5.0949,-5.046,-4.9231,-4.6194,0.0,0.0,0.0,0.0,0.0,0.0,0.0,0.0,0.0,0.0,0.0,0.0,0.0,0.0,0.0,0.0,0.0,0.0,0.0,0.0,0.0,0.0,0.0,0.0,0.0,0.0,0.0,-4.4502,0.0,0.0,-4.0817,0.0,0.0,0.0,0.0,0.0,0.0,0.0,0.0,0.0,0.0,0.0,0.0,0.0,0.0,0.0,0.0,0.0,0.0,0.0,0.0,0.0,0.0,-4.1097,-4.1224,-4.49,-4.687,-4.6997,-4.6917,-4.6946,-4.6895,-4.6172,-4.5026,-4.3409,0.0,0.0,0.0,0.0,0.0,0.0,0.0,0.0,0.0,0.0,0.0,0.0,0.0,0.0,0.0,0.0,0.0,0.0,0.0,0.0,0.0,0.0,0.0,0.0,0.0,0.0,-3.3896,-3.5491,-3.6092,0.0,0.0,0.0,0.0,0.0,0.0,0.0,0.0,0.0,-4.3272,-4.5683,-4.8114,-5.1015,-5.063,-5.0283,-5.0874,-4.9032,-4.771,-4.834,-4.8385,-4.7442,0.0,0.0,0.0,0.0,0.0,0.0,0.0,0.0,0.0,0.0,0.0,0.0,0.0,0.0,0.0,0.0,0.0,0.0,0.0,0.0,0.0,0.0,0.0,0.0,0.0,0.0,0.0,-4.55,-4.4474,0.0,0.0,0.0,0.0,0.0,0.0,0.0,0.0,0.0,0.0,0.0,-4.232,-4.2306,0.0,0.0,0.0,0.0,0.0,0.0,0.0,0.0,0.0,0.0,0.0,0.0,-4.0615,-4.1222,-4.4397,-4.6295,-4.6769,-4.6786,-4.6566,-4.6092,-4.5821,-4.4495,-4.1988,0.0,0.0,0.0,0.0,0.0,0.0,0.0,0.0,0.0,0.0,0.0,0.0,0.0,0.0,0.0,0.0,0.0,0.0,0.0,0.0,0.0,0.0,0.0,0.0,0.0,-3.4505,0.0,0.0,0.0,0.0,0.0,0.0,0.0,0.0,0.0,0.0,0.0,-3.9713,-4.1948,-4.3972,-4.5875,-4.7799,-4.8118,-4.8395,0.0,0.0,0.0,0.0,0.0,0.0,0.0,0.0,0.0,0.0,0.0,0.0,0.0,0.0,-4.0472,-3.8039,-3.6412,-3.501,-3.3622,0.0,0.0,0.0,0.0,0.0,0.0,0.0,0.0,0.0,0.0,0.0,0.0,0.0,0.0,-4.5432,0.0,-4.2972,0.0,0.0,0.0,0.0,0.0,0.0,0.0,0.0,-4.3457,-4.3809,-4.3115,-4.3076,-4.2682,0.0,-4.1416,-4.0128,0.0,0.0,0.0,0.0,0.0,0.0,0.0,0.0,-4.028,-4.0843,-4.3218,-4.4756,-4.5196,-4.5229,-4.4993,-4.4536,-4.4282,-4.3116,-4.0887,-3.8947,-3.7203,0.0,0.0,0.0,0.0,0.0,0.0,0.0,0.0,0.0,0.0,0.0,0.0,0.0,0.0,0.0,0.0,0.0,0.0,0.0,0.0,0.0,0.0,0.0,-3.581,0.0,0.0,0.0,0.0,0.0,0.0,0.0,0.0,0.0,-3.6597,-3.8506,-4.0322,-4.1863,-4.3359,-4.4706,-4.5813,0.0,0.0,0.0,0.0,0.0,0.0,0.0,-4.4586,-4.3469,-4.318,-4.2935,-4.247,-4.4028,-4.4807,-4.3308,0.0,0.0,-3.924,-3.7434,-3.5838,-3.4521,-3.5611,-3.6545,-3.5791,-3.7646,-3.9017,0.0,0.0,0.0,0.0,0.0,0.0,0.0,0.0,-4.6109,-4.5771,0.0,-4.3373,0.0,0.0,0.0,0.0,0.0,-4.2565,0.0,0.0,-4.4925,-4.528,-4.4598,-4.4553,-4.4181,-4.3466,-4.3344,-4.2624,-4.1198,-3.899,0.0,0.0,0.0,0.0,0.0,0.0,-4.0111,-4.0177,-4.16,-4.232,-4.2354,-4.2354,-4.2337,-4.232,-4.1617,-4.0896,-4.0095,-3.8634,-3.7123,-3.5638,-3.4304,0.0,0.0,0.0,0.0,0.0,0.0,0.0,0.0,0.0,0.0,0.0,0.0,0.0,0.0,0.0,0.0,0.0,0.0,0.0,0.0,-3.5897,0.0,0.0,0.0,0.0,0.0,0.0,0.0,0.0,0.0,0.0,-3.8132,-3.9544,-4.11,-4.2916,0.0,0.0,0.0,0.0,-4.5214,-4.5274,-4.4736,-4.4362,-4.4362,-4.4317,-4.4062,-4.3394,0.0,0.0,-4.2725,-4.4018,-4.4231,-4.1218,-4.1633,-4.2253,-4.1484,-3.8648,-3.6505,-3.6342,-3.6832,-3.7303,-3.7467,-3.925,-4.0742,-5.1214,0.0,0.0,0.0,0.0,-4.7022,-4.7394,-4.8325,-4.7581,-4.6684,-4.5612,-4.4401,0.0,0.0,0.0,0.0,0.0,0.0,-4.3367,-4.3443,-4.4451,-4.4818,-4.4598,-4.4598,-4.4468,-4.4248,-4.4237,-4.4006,-4.3569,-4.1818,-4.0153,-3.8561,0.0,0.0,0.0,0.0,-4.0111,-4.0188,-4.156,-4.2303,-4.2303,-4.2303,-4.2303,-4.2286,-4.109,-4.032,-4.0084,-3.8622,-3.7123,-3.5683,-3.5213,0.0,0.0,0.0,0.0,0.0,0.0,0.0,0.0,0.0,0.0,0.0,0.0,0.0,0.0,0.0,0.0,0.0,0.0,0.0,-3.5126,-3.6045,-3.6,0.0,0.0,0.0,0.0,0.0,0.0,0.0,0.0,0.0,-3.8256,-3.9559,-4.0606,0.0,0.0,-4.2462,-4.3159,-4.3234,-4.3524,-4.4451,-4.4436,0.0,-4.4317,-4.3888,-4.3514,-4.3319,-4.3828,-4.4332,-4.4436,-4.3906,-4.3015,-4.1639,-4.004,-3.8722,-3.8128,-3.7862,-3.7284,-3.6709,-3.7193,-3.7812,-3.7947,-3.894,-3.9592,-5.1329,-4.9266,-4.8315,-4.7906,-4.7885,-4.7445,-4.7902,-4.8934,-4.7919,-4.7141,-4.6469,-4.5114,-4.3802,-4.2477,-4.142,0.0,0.0,0.0,-4.3589,-4.3893,-4.435,-4.4598,-4.4598,-4.4598,-4.4598,-4.4598,-4.4265,-4.4113,-4.4113,-4.2602,-4.1155,-3.9832,0.0,0.0,-3.8262,-3.9468,-4.0094,-4.0137,-4.097,-4.145,-4.1424,-4.1433,-4.1259,-4.0943,-4.0088,-3.9345,-3.8734,-3.7825,-3.6762,-3.5615,-3.5294,-3.4408,0.0,0.0,0.0,0.0,0.0,0.0,0.0,0.0,0.0,0.0,0.0,-2.8737,-2.7858,0.0,0.0,0.0,-3.1856,-3.3989,-3.5735,-3.6252,0.0,0.0,0.0,0.0,0.0,0.0,0.0,-3.5472,-3.6041,-3.6545,-3.7113,-3.8094,-3.9256,-4.0599,-4.1168,-4.1557,-4.1946,0.0,-4.2291,-4.303,-4.315,-4.315,-4.315,-4.2476,-4.1783,-4.1354,-4.1972,-4.2434,-4.2403,-4.1561,-4.0646,-3.9732,-3.8209,-3.6757,-3.5947,-3.6346,-3.6573,-3.5877,-3.6279,-3.6742,-3.6742,-3.7395,-3.8007,-5.076,-4.9827,-4.8473,-4.7953,-4.7973,-4.7922,-4.8308,-4.8798,-4.7411,-4.7141,-4.7551,-4.5568,-4.4666,-4.4513,-4.3115,0.0,-4.3477,-4.3494,-4.3893,-4.4598,-4.4598,-4.4564,-4.4485,-4.4513,-4.4496,-4.4395,-4.3673,-4.3308,-4.324,-4.1938,-4.1271,-4.1178,-4.0527,-3.9803,-3.9092,-3.9731,-4.0113,-4.0113,-4.0113,-4.0113,-4.0113,-4.0113,-3.9731,-3.8951,-3.8837,-3.8117,-3.6707,-3.6554,-3.6196,-3.5539,-3.4891,-3.4247,-3.3558,0.0,0.0,0.0,0.0,0.0,0.0,0.0,0.0,0.0,0.0,0.0,0.0,0.0,0.0,0.0,-3.3343,0.0,-3.6342,-3.6335,0.0,0.0,0.0,-3.3856,-3.3762,-3.3611,-3.3684,-3.4224,0.0,0.0,-3.5317,-3.5839,-3.7363,-4.0497,-4.0971,-4.0992,-4.109,-4.0976,-4.1067,-4.1101,-4.1133,-4.1156,-4.1113,-4.0373,-3.9496,-3.8696,-3.9045,-3.9415,-3.8669,-3.8173,-3.759,-3.6826,-3.633,-3.5887,-3.4742,-3.464,-3.46,-3.4587,-3.47,-3.4763,-3.4924,-3.5644,-3.6283,-5.0504,-4.9175,-4.8267,-4.824,-4.8697,-4.8139,-4.799,-4.8088,-4.7192,-4.6583,-4.6194,-4.5652,-4.5128,-4.4581,-4.4225,-4.4158,-4.4316,-4.4316,-4.4429,-4.4598,-4.4598,-4.4265,-4.3707,-4.369,-4.3403,-4.2844,-4.2658,-4.2557,-4.2557,-4.2202,-4.1745,-4.1195,-4.103,-4.0565,-3.9867,-4.0003,-4.0113,-4.0113,-4.0113,-4.0113,-4.0113,-4.0113,-3.9731,-3.8924,-3.8358,-3.7616,-3.663,-3.6054,-3.5668,-3.5489,-3.5355,-3.4951,-3.4247,-3.1804,0.0,0.0,0.0,0.0,0.0,0.0,0.0,0.0,0.0,-2.7779,-2.7045,0.0,-2.9329,0.0,-3.3235,-3.5011,-3.5669,-3.5074,0.0,0.0,-3.3066,-3.2808,-3.2509,-3.3451,-3.4213,-3.4279,-3.5278,-3.5786,-3.5372,-3.5852,-3.6339,-3.6785,-3.7162,-3.7614,-3.8119,-3.8178,-3.8387,-3.8878,-3.9003,-3.8965,-3.8922,-3.8747,-3.8474,-3.8255,-3.842,-3.8475,-3.8255,-3.7082,-3.61,-3.5778,-3.471,-3.3916,-3.3582,-3.347,-3.3483,-3.3533,-3.4123,-3.468,-3.4726,-3.4641,-3.4532,-4.9611,-4.8494,-4.8058,-4.797,-4.7986,-4.7581,-4.7411,-4.7361,-4.6633,-4.6075,-4.5686,-4.5365,-4.5004,-4.4615,-4.4598,-4.4598,-4.4598,-4.4598,-4.4598,-4.4581,-4.4215,-4.4012,-4.391,-4.3234,-4.2878,-4.2777,-4.2117,-4.1813,-4.1779,-4.1474,-4.1128,-4.0696,-4.0696,-4.0519,-4.0113,-4.0113,-4.0113,-4.0113,-4.0113,-4.0113,-4.007,-3.974,-3.9209,-3.8414,-3.7674,-3.6779,-3.5706,-3.5266,-3.4906,-3.4622,-3.4607,-3.4307,-3.3619,-3.1901,-3.0572,0.0,0.0,0.0,0.0,0.0,0.0,0.0,0.0,0.0,0.0,0.0,-3.0125,-3.2034,-3.3327,-3.4269,-3.4784,-3.4346,-3.3636,-3.2713,-3.2593,-3.2445,-3.2061,-3.2798,-3.3259,-3.3038,-3.3622,-3.3927,-3.3635,-3.3861,-3.394,-3.3674,-3.4073,-3.4902,-3.6122,-3.6583,-3.6887,-3.7259,-3.7301,-3.7111,-3.6729,-3.703,-3.6989,-3.6189,-3.6315,-3.6509,-3.6022,-3.5165,-3.4503,-3.4447,-3.3717,-3.3124,-3.3124,-3.3124,-3.3124,-3.3199,-3.3558,-3.3947,-3.3985,-3.3759,-3.3533,-4.8443,-4.7767,-4.7682,-4.7259,-4.665,-4.6549,-4.6566,-4.6599,-4.5889,-4.5568,-4.5517,-4.4886,-4.4598,-4.4598,-4.4598,-4.4598,-4.4598,-4.4598,-4.4598,-4.4547,-4.3775,-4.3741,-4.4215,-4.2811,-4.2439,-4.2902,-4.1677,-4.1052,-4.1035,-4.0434,-4.0113,-4.0113,-4.0113,-4.0062,-3.9977,-3.996,-4.0011,-4.0096,-4.0113,-4.0113,-4.007,-3.9411,-3.863,-3.7706,-3.6988,-3.5907,-3.4445,-3.4384,-3.4114,-3.3544,-3.3499,-3.323,-3.2662,-3.1914,-3.0952,0.0,-2.8971,0.0,0.0,0.0,0.0,0.0,0.0,0.0,0.0,-2.9964,-3.1348,-3.3214,-3.3514,-3.3708,-3.3879,-3.3833,-3.3449,-3.2522,-3.2307,-3.2131,-3.1857,-3.1834,-3.1708,-3.1433,-3.1386,-3.1427,-3.1493,-3.1386,-3.1427,-3.1511,-3.2057,-3.3006,-3.4509,-3.5327,-3.5722,-3.5801,-3.5801,-3.5453,-3.4852,-3.5264,-3.5182,-3.3666,-3.4001,-3.4124,-3.3292,-3.3054,-3.3011,-3.3011,-3.2986,-3.2968,-3.3099,-3.3124,-3.3124,-3.3124,-3.3187,-3.3212,-3.3199,-3.3199,-3.3124,-4.7699,-4.6955,-4.6363,-4.6041,-4.5872,-4.5263,-4.5348,-4.5855,-4.5111,-4.479,-4.4801,-4.4666,-4.4598,-4.4598,-4.4598,-4.4598,-4.4598,-4.4598,-4.4598,-4.4553,-4.3775,-4.3166,-4.2692,-4.183,-4.1153,-4.0739,-4.0451,-4.0316,-4.0316,-4.018,-4.0113,-4.0113,-4.0113,-3.9808,-3.9225,0.0,0.0,0.0,-4.0113,-4.0113,-4.0113,-3.9952,-3.8954,-3.707,-3.6841,0.0,-3.3832,-3.3664,-3.3619,-3.3499,-3.3499,0.0,0.0,0.0,0.0,0.0,0.0,0.0,0.0,0.0,0.0,0.0,-3.01,-2.9827,-2.9418,-3.1028,-3.2258,-3.2676,-3.3664,-3.4019,-3.3345,-3.3042,-3.25,-3.1559,-3.0796,-3.0471,-3.0784,-3.086,-3.0996,-3.1351,-3.1373,-3.1373,-3.1348,-3.1386,-3.121,-3.0871,-3.1587,-3.2142,-3.2173,-3.3158,-3.3716,-3.37,-3.3791,-3.3645,-3.3428,-3.3577,-3.3639,-3.321,-3.324,-3.311,-3.255,-3.2378,-3.2378,-3.2378,-3.2378,-3.2528,-3.2955,-3.3124,-3.3048,-3.3111,-3.3099,-3.3124,-3.3124,-3.3111,-3.3124,-4.6938,0.0,-4.5855,-4.55,0.0,-4.4784,-4.4818,-4.5111,-4.4784,-4.4598,-4.4598,-4.4598,-4.4598,-4.4598,-4.4598,-4.4598,-4.4598,-4.4598,-4.4367,-4.3961,-4.3217,-4.2675,-4.2279,-4.117,-4.0671,-4.0629,-4.0299,-3.9926,-3.9588,-3.9554,-3.9385,-3.9022,-3.9005,-3.8819,-3.8464,-3.8447,-3.8633,-3.9005,-3.9005,-3.9005,-3.9005,-3.8615,-3.7897,-3.6809,-3.6387,0.0,0.0,0.0,0.0,0.0,0.0,0.0,0.0,0.0,0.0,-3.1481,-3.0883,-3.0552,-3.0552,-3.0537,-3.0687,-3.0957,-3.1016,-3.083,-3.0455,-3.1426,-3.2138,-3.2452,-3.276,-3.2605,-3.2009,-3.144,-3.0704,-2.9779,-2.9238,-2.9176,-2.9628,-2.974,-2.9966,-3.0482,-3.0595,-3.0595,-3.0595,-3.0595,-3.0507,-3.0306,-3.0909,-3.1336,-3.121,-3.2202,-3.2993,-3.2692,-3.239,-3.2252,-3.2252,-3.224,-3.2252,-3.2282,-3.224,-3.2127,-3.1863,-3.18,-3.18,-3.18,-3.18,-3.1926,-3.2152,-3.2252,-3.2282,-3.2294,-3.2282,-3.2282,-3.2265,-3.2453,-3.2554,-4.6177,-4.5517,-4.55,-4.5145,-4.4598,-4.4598,-4.4598,-4.4598,0.0,0.0,0.0,-4.4598,-4.4598,-4.4598,-4.4598,-4.4598,-4.4598,-4.4462,-4.4028,-4.3341,-4.2506,-4.21,-4.2033,-4.0739,-4.0392,-4.0967,-4.0265,-3.9605,-3.8988,-3.887,-3.8497,-3.7956,-3.7898,-3.7838,-3.7702,-3.7431,-3.7364,-3.7493,-3.7787,-3.7817,-3.7704,-3.7195,-3.6777,-3.6518,-3.5814,-3.5117,-3.4452,-3.3583,-3.2962,-3.2605,-3.191,-3.1496,-3.1496,-3.1496,-3.1496,-3.1496,-3.1391,-3.1376,-3.1481,-3.1391,-3.1376,-3.1496,-3.1496,-3.1496,-3.1496,-3.1496,-3.172,-3.2258,-3.1762,-3.122,-3.0691,-3.0126,-2.9289,-2.8255,-2.8109,-2.831,-2.8687,-2.875,-2.9038,-2.9515,-2.9666,-2.9691,-2.9817,-2.9842,-2.9779,-2.9867,-3.0344,-3.0631,-3.0884,-3.1888,-3.2528,-3.2127,-3.1763,-3.1436,-3.1399,-3.1449,-3.1386,-3.1474,-3.1449,-3.1361,-3.1273,-3.1248,-3.1248,-3.1248,-3.1248,-3.1311,-3.1373,-3.1474,-3.1386,-3.1386,-3.1386,-3.1348,-3.1311,-3.1599,-3.18,-4.5432,-4.475,-4.4767,-4.4699,-4.4598,-4.4598,-4.4598,-4.4598,-4.4598,-4.4598,-4.4598,-4.4598,-4.4598,-4.4598,-4.4598,-4.4598,-4.4564,-4.3876,-4.3494,-4.3308,-4.1999,-4.1356,-4.1305,-4.0519,-4.0163,-4.0197,-3.952,-3.9106,-3.8937,-3.8345,-3.799,-3.7905,-3.7898,-3.7567,-3.6918,-3.5685,-3.5368,-3.5955,-3.7246,-3.759,-3.6978,-3.7459,-3.7125,-3.5902,-3.5166,-3.4504,-3.3748,-3.2505,-3.2042,-3.2547,-3.191,-3.1496,-3.1496,-3.1481,-3.1496,-3.1466,-3.0957,-3.0883,-3.1436,-3.0943,-3.0883,-3.1436,-3.1496,-3.1496,-3.1496,-3.1496,-3.154,-3.166,-3.1961,-3.1651,-3.0215,-3.0286,-2.981,-2.8361,-2.8097,-2.8147,-2.821,-2.8186,-2.8436,-2.8938,-2.9013,-2.9214,-2.9616,-2.9729,-2.9741,-2.9854,-3.0181,-3.0721,-3.106,-3.1449,-3.1587,-3.1524,-3.1449,-3.1386,-3.1273,-3.1361,-3.1286,-3.1386,-3.1311,-3.1135,-3.0771,-3.0708,-3.0721,-3.0721,-3.0721,-3.0871,-3.121,-3.1386,-3.1298,-3.126,-3.1248,-3.1173,-3.0809,-3.0834,-3.0959,-4.4891,-4.4615,-4.4598,-4.4598,-4.4598,-4.4598,-4.4598,-4.4598,-4.4598,-4.4598,-4.4598,-4.4598,-4.4598,-4.4598,-4.4598,-4.4361,-4.3927,-4.3544,-4.2953,-4.2158,-4.1508,-4.0984,-4.0578,-4.0248,-3.991,-3.9503,-3.9182,-3.8582,-3.7845,-3.7449,-3.7094,-3.6681,-3.6648,-3.6289,-3.5616,-3.5305,-3.5138,-3.5068,-3.5759,-3.5915,-3.563,-3.5932,-3.562,-3.459,-3.4243,-3.396,-3.3598,-3.2625,-3.2259,-3.2586,-3.1531,-3.0971,-3.0943,-3.0672,-3.0477,-3.0462,-3.0178,-3.0133,-3.0462,-3.0492,-3.0642,-3.0913,-3.1301,-3.1496,-3.1496,-3.1496,-3.1496,-3.1482,-3.1412,-3.099,-3.016,-2.9923,-2.9306,-2.8028,-2.7868,-2.7835,-2.7702,-2.7657,-2.7883,-2.8373,-2.8486,-2.8586,-2.8837,-2.9139,-2.9327,-2.9327,-2.9804,-3.0256,-3.0482,-3.052,-3.0633,-3.0871,-3.0721,-3.0545,-3.0532,-3.0532,-3.052,-3.052,-3.052,-3.0432,-3.0193,-3.0168,-3.0181,-3.0168,-3.0181,-3.0256,-3.0507,-3.052,-3.0532,-3.052,-3.052,-3.0394,-3.0218,-3.0168,-3.0269,-4.4598,-4.4598,-4.4598,-4.4598,-4.4598,-4.4598,-4.4598,-4.4598,-4.4598,-4.4598,-4.4598,-4.4598,-4.4598,-4.4598,-4.4429,-4.3995,-4.3409,-4.3037,-4.2303,-4.1271,-4.1018,-4.0646,-4.0146,-4.0113,-3.9723,-3.9039,-3.8836,-3.8058,-3.6931,-3.6643,-3.6231,-3.565,-3.5616,-3.5339,-3.4847,-3.5028,-3.4958,-3.4616,-3.4293,-3.4252,-3.4366,-3.4382,-3.4112,-3.3633,-3.3294,-3.323,-3.3316,-3.244,-3.2017,-3.2079,-3.0967,-3.0298,-3.0268,-2.9849,-2.9621,-2.9592,-2.9457,-2.937,-2.9427,-2.9953,-3.0357,-3.0507,-3.0972,-3.1331,-3.1481,-3.1361,-3.1346,-3.1408,-3.0984,-3.0569,-3.0222,-2.9532,-2.8652,-2.7822,-2.7504,-2.7314,-2.7145,-2.7128,-2.7341,-2.7808,-2.7908,-2.7959,-2.8134,-2.8473,-2.8687,-2.8812,-2.9139,-2.939,-2.9402,-2.9402,-2.9628,-3.0005,-2.9967,-2.9867,-2.9779,-2.9829,-2.9842,-2.9779,-2.9829,-2.9867,-2.9829,-2.9804,-2.9792,-2.9829,-2.9817,-2.9767,-2.9654,-2.9616,-2.9566,-2.9465,-2.9415,-2.939,-2.9365,-2.9352,-2.9478,-4.4598,-4.4598,-4.4598,-4.4598,-4.4598,-4.4598,-4.4598,-4.4598,-4.4598,-4.4598,-4.4598,-4.4598,-4.4581,-4.4496,-4.3842,-4.346,-4.3223,-4.2016,-4.1339,-4.1119,-4.0519,-4.0163,-4.0096,-4.0096,-3.9706,-3.8971,-3.8311,-3.7584,-3.6728,-3.6062,-3.5667,-3.5616,-3.5616,-3.5538,-3.5362,-3.4374,-3.4087,-3.4552,-3.3391,-3.3066,-3.3633,-3.3684,-3.3659,-3.3608,-3.24,-3.207,-3.2522,-3.0859,-3.0186,-3.066,-3.0073,-2.9696,-2.9654,-2.9621,-2.9606,-2.9562,-2.9011,-2.8697,-2.8727,-2.9322,-2.9894,-3.0432,-3.0552,-3.0853,-3.1376,-3.0943,-3.0881,-3.1302,-3.1409,-3.0999,-3.0374,-2.9597,-2.8812,-2.7934,-2.7229,-2.6593,-2.6622,-2.6575,-2.6776,-2.7341,-2.7356,-2.7532,-2.7908,-2.8109,-2.8185,-2.8273,-2.8386,-2.8473,-2.8461,-2.8448,-2.8586,-2.9076,-2.9415,-2.9704,-2.9716,-2.9779,-2.9641,-2.9679,-2.9741,-2.9654,-2.9591,-2.9628,-2.9754,-2.9453,-2.9641,-2.9465,-2.9164,-2.895,-2.8813,-2.8612,-2.8473,-2.8335,-2.8273,-2.836,-2.8536,-4.4598,-4.4598,-4.4598,-4.4598,-4.4598,-4.4598,-4.4598,-4.4598,-4.4598,-4.4598,-4.453,-4.4096,-4.3893,-4.3876,-4.3555,-4.2936,-4.2083,-4.1474,-4.095,-4.0544,-4.0231,-4.0113,-4.0062,-3.9639,-3.9056,-3.8328,-3.7601,-3.684,-3.6163,-3.5752,-3.5424,-3.5115,-3.5385,-3.5207,-3.4471,-3.426,-3.4317,-3.4568,-3.3659,-3.3339,-3.3473,-3.2813,-3.2217,-3.1713,-3.088,-3.0517,-3.0725,-3.0008,-2.9726,-2.9932,-2.9392,-2.9022,-2.8996,-2.8622,-2.8423,-2.8393,-2.8169,-2.8019,-2.8019,-2.8622,-2.9101,-2.9355,-3.0088,-3.0642,-3.0896,-3.1002,-3.1227,-3.1406,-3.1137,-3.0875,-3.0911,-3.0673,-2.995,-2.8748,-2.8182,-2.7584,-2.6589,-2.6487,-2.66,-2.6801,-2.6839,-2.6901,-2.7165,-2.7454,-2.7733,-2.8009,-2.8097,-2.8059,-2.8084,-2.8109,-2.8197,-2.8398,-2.8662,-2.8925,-2.9164,-2.8976,-2.8863,-2.8825,-2.88,-2.88,-2.885,-2.8812,-2.8787,-2.8825,-2.8875,-2.8812,-2.8499,-2.8448,-2.8348,-2.8072,-2.8097,-2.8109,-2.8109,-2.8109,-2.8147,-4.4598,-4.4598,-4.4598,-4.4598,-4.4598,-4.4598,-4.4598,-4.4598,-4.4598,-4.4496,-4.4215,-4.3656,-4.3156,-4.2817,-4.2784,-4.2175,-4.1255,-4.0984,-4.0637,-4.013,-4.0113,-4.0113,-4.0028,-3.9326,-3.8616,-3.7889,-3.7185,-3.64,-3.5684,-3.5616,-3.5362,-3.5028,-3.5362,-3.5115,-3.4301,-3.4503,-3.4503,-3.4284,-3.3675,-3.314,-3.2652,-3.1626,-3.086,-3.0473,-2.9729,-2.931,-2.9337,-2.9157,-2.9067,-2.9037,-2.8588,-2.8323,-2.8293,-2.7869,-2.7585,-2.7585,-2.7585,-2.7585,-2.76,-2.8038,-2.8397,-2.8652,-2.9505,-3.0058,-3.0268,-3.0552,-3.0778,-3.0898,-3.0537,-3.0567,-3.1347,-3.1087,-3.0269,-2.9129,-2.8684,-2.7769,-2.6679,-2.6487,-2.6487,-2.6487,-2.6549,-2.6487,-2.6549,-2.6851,-2.7228,-2.7507,-2.7607,-2.7657,-2.7657,-2.762,-2.7657,-2.7821,-2.777,-2.7959,-2.8511,-2.8473,-2.8134,-2.8109,-2.8197,-2.8222,-2.8109,-2.8122,-2.8134,-2.8436,-2.8197,-2.8009,-2.7908,-2.7883,-2.7795,-2.7695,-2.7657,-2.7657,-2.7507,-2.762,-2.7482,-4.4598,-4.4598,-4.4598,-4.4598,-4.4598,-4.4598,-4.4598,-4.4598,-4.4564,-4.4164,-4.3544,-4.3369,-4.2598,-4.1424,-4.1407,-4.1271,-4.1102,-4.0493,-4.018,-4.0113,-4.0113,-4.0113,-4.0062,-3.9368,-3.8616,-3.7872,-3.7043,-3.6315,-3.5633,-3.56,-3.5583,-3.5554,-3.5577,-3.556,-3.5276,-3.4759,-3.4284,-3.3684,-3.3019,-3.2086,-3.0857,-3.0117,-3.0069,-3.0306,-2.9295,-2.8637,-2.8592,-2.8049,-2.772,-2.7705,-2.772,-2.766,-2.766,-2.7615,-2.7585,-2.7585,-2.7585,-2.7585,-2.7585,-2.766,-2.7929,-2.8457,-2.8727,-2.8996,-2.952,-2.9325,-2.934,-2.9681,-2.9749,-3.0169,-3.101,-3.036,-2.9442,-2.9002,-2.7637,-2.6884,-2.6521,-2.6487,-2.6487,-2.6487,-2.6487,-2.6487,-2.6487,-2.6512,-2.66,-2.6675,-2.6625,-2.6663,-2.6738,-2.6675,-2.6889,-2.7115,-2.7065,-2.6952,-2.7871,-2.7896,-2.7934,-2.7883,-2.7745,-2.7984,-2.8084,-2.8109,-2.8059,-2.8021,-2.7883,-2.7682,-2.7444,-2.7278,-2.7115,-2.6989,-2.6851,-2.6801,-2.6977,-2.6688,-2.665,-4.4598,-4.4598,-4.4598,-4.4598,-4.4598,-4.4598,-4.4598,-4.4564,-4.4045,-4.369,-4.3257,-4.2439,-4.1694,-4.117,-4.0696,-4.0476,-4.046,-4.0214,-4.0113,-4.0113,-4.0113,-4.0113,-3.9977,-3.8886,-3.8193,-3.777,-3.6637,-3.587,-3.565,-3.5616,-3.5616,-3.5616,-3.5616,-3.5407,-3.4918,-3.4284,-3.3836,-3.3508,-3.2525,-3.1705,-3.1167,-3.0524,-3.0099,-2.9817,-2.863,-2.7959,-2.7974,-2.772,-2.7585,-2.7585,-2.7585,-2.7585,-2.7585,-2.7585,-2.7585,-2.7585,-2.7585,-2.7585,-2.7585,-2.7585,-2.7675,-2.7959,-2.8368,-2.8652,-2.8936,-2.9116,-2.9367,-2.9495,-2.9468,-2.971,-3.0046,-3.0337,-3.0133,-2.9129,-2.846,-2.7537,-2.6769,-2.6487,-2.6487,-2.6487,-2.6487,-2.6487,-2.6487,-2.6487,-2.6487,-2.6487,-2.6487,-2.6487,-2.6487,-2.6487,-2.6587,-2.6713,-2.6637,-2.6612,-2.6927,-2.7077,-2.7077,-2.7077,-2.7052,-2.7065,-2.7128,-2.7216,-2.7165,-2.7205,-2.7218,-2.7193,-2.6927,-2.6889,-2.67,-2.665,-2.6487,-2.6487,-2.6499,-2.6487,-2.6487,-4.4598,-4.4598,-4.4598,-4.4598,-4.4598,-4.4598,-4.4462,-4.4164,-4.3639,-4.3122,-4.2547,-4.1627,-4.1085,-4.0798,-4.0316,-4.0113,-4.0113,-4.0113,-4.0113,-4.0113,-4.0113,-4.0113,-3.9859,-3.8599,-3.7898,-3.7669,-3.6326,-3.5616,-3.5616,-3.5616,-3.5616,-3.5616,-3.5407,-3.5075,-3.4568,-3.3921,-3.3505,-3.3134,-3.2337,-3.1628,-3.103,-3.0441,-2.9768,-2.8907,-2.8037,-2.771,-2.7885,-2.771,-2.7585,-2.7585,-2.7585,-2.7585,-2.7585,-2.7585,-2.7585,-2.7585,-2.7585,-2.7585,-2.7585,-2.7585,-2.7585,-2.7615,-2.8004,-2.8263,-2.8334,-2.8693,-2.8918,-2.8937,-2.9009,-2.8972,-2.9189,-2.9987,-3.0103,-2.8812,-2.8363,-2.7769,-2.6679,-2.6487,-2.6487,-2.6487,-2.6487,-2.6487,-2.6487,-2.6487,-2.6487,-2.6487,-2.6487,-2.6487,-2.6487,-2.6487,-2.6487,-2.6487,-2.6512,-2.6499,-2.665,-2.6713,-2.6713,-2.67,-2.6713,-2.6562,-2.6487,-2.6487,-2.6487,-2.6487,-2.6487,-2.6487,-2.6487,-2.6487,-2.6487,-2.6487,-2.6487,-2.6487,-2.6487,-2.6487,-2.6474,-4.4598,-4.4598,-4.4598,-4.4598,-4.4581,-4.4513,-4.4096,-4.3555,-4.3308,-4.2506,-4.1542,-4.117,-4.073,-4.0265,-4.013,-4.0113,-4.0113,-4.0113,-4.0113,-4.0113,-4.0113,-4.0113,-4.0011,-3.8582,-3.7787,-3.7594,-3.6293,-3.5616,-3.5616,-3.56,-3.56,-3.5447,-3.4941,-3.4664,-3.4568,-3.3836,-3.3235,-3.2776,-3.2394,-3.1415,-2.9887,-2.9607,-2.899,-2.7946,-2.77,-2.7919,-2.8415,-2.791,-2.7585,-2.7585,-2.7585,-2.7585,-2.7585,-2.7585,-2.7585,-2.7585,-2.7585,-2.7585,-2.7585,-2.7585,-2.7585,-2.76,-2.763,-2.7705,-2.775,-2.7764,-2.7794,-2.7887,-2.8088,-2.8297,-2.834,-2.8701,-2.8725,-2.7822,-2.7317,-2.6884,-2.6589,-2.6487,-2.6487,-2.6487,-2.6487,-2.6487,-2.6487,-2.6487,-2.6487,-2.6487,-2.6487,-2.6487,-2.6487,-2.6487,-2.6487,-2.6487,-2.6487,-2.6487,-2.6487,-2.6499,-2.6499,-2.6512,-2.6537,-2.6487,-2.6487,-2.6487,-2.6487,-2.6487,-2.6487,-2.6487,-2.6487,-2.6487,-2.6487,-2.6487,-2.6487,-2.6487,-2.6474,-2.6461,-2.6436,-4.4598,-4.4598,-4.4598,-4.4598,-4.4502,-4.4012,-4.3623,-4.3274,-4.2371,-4.1627,-4.117,-4.0663,-4.0299,-4.0146,-4.0113,-4.0113,-4.0113,-4.0113,-4.0096,-4.0096,-4.0096,-4.0096,-3.9808,-3.8565,-3.7341,-3.6411,-3.587,-3.5616,-3.5616,-3.56,-3.5385,-3.4941,-3.4712,-3.4358,-3.3887,-3.3261,-3.296,-3.3082,-3.1413,-3.0357,-3.014,-2.9286,-2.8607,-2.8277,-2.8213,-2.8319,-2.8439,-2.7934,-2.761,-2.7585,-2.7585,-2.7585,-2.7585,-2.7585,-2.7585,-2.7585,-2.7585,-2.7585,-2.7585,-2.7585,-2.7585,-2.7585,-2.7585,-2.7585,-2.7585,-2.7585,-2.7585,-2.7569,-2.7623,-2.7583,-2.7459,-2.7397,-2.7487,-2.7683,-2.7484,-2.7007,-2.6589,-2.6487,-2.6487,-2.6487,-2.6487,-2.6487,-2.6487,-2.6487,-2.6487,-2.6487,-2.6487,-2.6487,-2.6487,-2.6487,-2.6487,-2.6487,-2.6487,-2.6487,-2.6487,-2.6487,-2.6487,-2.6487,-2.6487,-2.6487,-2.6487,-2.6487,-2.6487,-2.6487,-2.6487,-2.6487,-2.6487,-2.6487,-2.6487,-2.6487,-2.6487,-2.6474,-2.6436,-2.6411,-2.6373,-4.4598,-4.4598,-4.4598,-4.4429,-4.4113,-4.3606,-4.3071,-4.2496,-4.1627,-4.1052,-4.073,-4.0333,-4.0113,-4.0113,-4.0113,-4.0113,-4.0113,-4.0113,-3.9943,-3.9808,-4.0028,-3.996,-3.9554,-3.8176,-3.6874,-3.5819,-3.5616,-3.5616,-3.56,-3.5322,-3.5012,-3.464,-3.4096,-3.3659,-3.3182,-3.2571,-3.2341,-3.2178,-3.0814,-2.992,-2.9684,-2.8962,-2.8407,-2.8213,-2.8165,-2.8165,-2.814,-2.7785,-2.7585,-2.7585,-2.7585,-2.7585,-2.7585,-2.7585,-2.7585,-2.7585,-2.7585,-2.7585,-2.7585,-2.7585,-2.7585,-2.7585,-2.7585,-2.7585,-2.7585,-2.7585,-2.7585,-2.7558,-2.7165,-2.682,-2.6701,-2.6453,-2.6531,-2.6841,-2.7067,-2.7015,-2.6589,-2.6487,-2.6487,-2.6487,-2.6487,-2.6487,-2.6487,-2.6487,-2.6487,-2.6487,-2.6487,-2.6487,-2.6487,-2.6487,-2.6487,-2.6487,-2.6487,-2.6487,-2.6487,-2.6487,-2.6487,-2.6487,-2.6487,-2.6487,-2.6487,-2.6487,-2.6487,-2.6487,-2.6487,-2.6487,-2.6487,-2.6487,-2.6487,-2.6487,-2.6487,-2.6474,-2.6449,-2.6336,-2.6298,-4.4598,-4.4598,-4.4547,-4.4079,-4.346,-4.3223,-4.2472,-4.139,-4.1119,-4.073,-4.0248,-4.013,-4.0113,-4.0113,-4.0113,-4.0113,-4.0079,-3.9943,-3.9639,-3.9343,-3.952,-3.9486,-3.8802,-3.7574,-3.6485,-3.5718,-3.5616,-3.5554,-3.5407,-3.4941,-3.4544,-3.4235,-3.3287,-3.2602,-3.2434,-3.1807,-3.1262,-3.0967,-3.0501,-2.9683,-2.8856,-2.8498,-2.8189,-2.7685,-2.766,-2.7675,-2.7675,-2.7625,-2.7585,-2.7585,-2.7585,-2.7585,-2.7585,-2.7585,-2.7585,-2.7585,-2.7585,-2.7585,-2.7585,-2.7585,-2.7585,-2.7585,-2.7585,-2.7585,-2.7585,-2.7585,-2.7509,-2.7386,-2.6782,-2.6269,-2.6095,-2.5931,-2.5764,-2.5715,-2.6194,-2.6404,-2.6508,-2.6449,-2.6386,-2.6461,-2.6487,-2.6487,-2.6487,-2.6487,-2.6487,-2.6487,-2.6487,-2.6487,-2.6487,-2.6487,-2.6487,-2.6487,-2.6487,-2.6487,-2.6487,-2.6487,-2.6487,-2.6487,-2.6487,-2.6487,-2.6487,-2.6487,-2.6487,-2.6487,-2.6487,-2.6487,-2.6487,-2.6487,-2.6487,-2.6487,-2.6487,-2.6487,-2.6411,-2.6285,-2.6248,-4.4598,-4.4547,-4.3961,-4.3606,-4.3223,-4.2286,-4.1593,-4.1136,-4.0595,-4.0333,-4.0113,-4.0113,-4.0113,-4.0113,-4.0113,-4.0113,-3.996,-3.9554,-3.9225,-3.8971,-3.8582,-3.8413,-3.8075,-3.7269,-3.6366,-3.5684,-3.5554,-3.5362,-3.4878,-3.46,-3.4046,-3.313,-3.2788,-3.2299,-3.1779,-3.1131,-3.1036,-3.1014,-2.9743,-2.9261,-2.9158,-2.8293,-2.7775,-2.7635,-2.7585,-2.7585,-2.7585,-2.7585,-2.7585,-2.7585,-2.7585,-2.7585,-2.7585,-2.7585,-2.7585,-2.7585,-2.7585,-2.7585,-2.7585,-2.7585,-2.7585,-2.7585,-2.7585,-2.7585,-2.7585,-2.7585,-2.7331,-2.6959,-2.651,-2.612,-2.5628,-2.5629,-2.5685,-2.5635,-2.5699,-2.5971,-2.6285,-2.6122,-2.5996,-2.6386,-2.6487,-2.6487,-2.6487,-2.6487,-2.6487,-2.6487,-2.6487,-2.6487,-2.6487,-2.6487,-2.6487,-2.6487,-2.6487,-2.6487,-2.6487,-2.6487,-2.6487,-2.6487,-2.6487,-2.6487,-2.6487,-2.6487,-2.6487,-2.6487,-2.6487,-2.6487,-2.6487,-2.6487,-2.6487,-2.6487,-2.6487,-2.6474,-2.6336,-2.621,-2.621,-4.4429,-4.4045,-4.3606,-4.3047,-4.2395,-4.1559,-4.1035,-4.0679,-4.0316,-4.0113,-4.0113,-4.0113,-4.0113,-4.0113,-4.0113,-3.9926,-3.9605,-3.9216,-3.865,-3.7929,-3.728,-3.7144,-3.7144,-3.6654,-3.6045,-3.5645,-3.5316,-3.4965,-3.4528,-3.4062,-3.3313,-3.2707,-3.2287,-3.191,-3.1537,-3.0866,-3.0536,-3.0472,-2.9313,-2.8716,-2.8666,-2.8032,-2.768,-2.7585,-2.7585,-2.7585,-2.7585,-2.7585,-2.7585,-2.7585,-2.7585,-2.7585,-2.7585,-2.7585,-2.7585,-2.7585,-2.7585,-2.7585,-2.7585,-2.7585,-2.7585,-2.7585,-2.7585,-2.7585,-2.7585,-2.7585,-2.7357,-2.71,-2.6443,-2.5827,-2.5366,-2.5205,-2.514,-2.5194,-2.5071,-2.5272,-2.6021,-2.6084,-2.6147,-2.6386,-2.6487,-2.6487,-2.6487,-2.6487,-2.6487,-2.6487,-2.6487,-2.6487,-2.6487,-2.6487,-2.6487,-2.6487,-2.6487,-2.6487,-2.6487,-2.6487,-2.6487,-2.6487,-2.6487,-2.6487,-2.6487,-2.6487,-2.6487,-2.6487,-2.6487,-2.6487,-2.6487,-2.6487,-2.6487,-2.6487,-2.6487,-2.6461,-2.6348,-2.6273,-2.626,-4.3944,-4.3274,-4.3172,-4.2422,-4.1356,-4.1102,-4.0696,-4.0214,-4.013,-4.0113,-4.0113,-4.0113,-4.0113,-4.0096,-3.9926,-3.9639,-3.9022,-3.8684,-3.7828,-3.6907,-3.6197,-3.6129,-3.6552,-3.6079,-3.5718,-3.5492,-3.4918,-3.4592,-3.4186,-3.3235,-3.2641,-3.2315,-3.1796,-3.1553,-3.1316,-3.0776,-3.0133,-2.969,-2.8895,-2.821,-2.7906,-2.768,-2.76,-2.7585,-2.7585,-2.7585,-2.7585,-2.7585,-2.7585,-2.7585,-2.7585,-2.7585,-2.7585,-2.7585,-2.7585,-2.7585,-2.7585,-2.7585,-2.7585,-2.7585,-2.7585,-2.7585,-2.7585,-2.7585,-2.7585,-2.7585,-2.7433,-2.6982,-2.6135,-2.5494,-2.5035,-2.4464,-2.4292,-2.4544,-2.4318,-2.4544,-2.5247,-2.5971,-2.6336,-2.6424,-2.6411,-2.6487,-2.6487,-2.6487,-2.6487,-2.6487,-2.6487,-2.6487,-2.6487,-2.6487,-2.6487,-2.6487,-2.6487,-2.6487,-2.6487,-2.6487,-2.6487,-2.6487,-2.6487,-2.6487,-2.6487,-2.6487,-2.6487,-2.6487,-2.6487,-2.6487,-2.6487,-2.6487,-2.6487,-2.6487,-2.6487,-2.6487,-2.6461,-2.6411,-2.6386,-4.2675,-4.2489,-4.1931,-4.1508,-4.1136,-4.0595,-4.0248,-4.0113,-4.0113,-4.0113,-4.0113,-4.0113,-4.0079,-4.0045,-3.9537,-3.9106,-3.8734,-3.7838,-3.6728,-3.5977,-3.5735,-3.5667,-3.5853,-3.5628,-3.5594,-3.5385,-3.4894,-3.4333,-3.371,-3.2986,-3.2299,-3.1783,-3.1668,-3.1481,-3.1316,-3.0402,-2.9744,-2.9412,-2.8453,-2.7824,-2.7675,-2.7585,-2.7585,-2.7585,-2.7585,-2.7585,-2.7585,-2.7585,-2.7585,-2.7585,-2.7585,-2.7585,-2.7585,-2.7585,-2.7585,-2.7585,-2.7585,-2.7585,-2.7585,-2.7585,-2.7585,-2.7585,-2.7585,-2.7585,-2.7585,-2.7585,-2.7019,-2.6242,-2.5536,-2.5112,-2.4381,-2.3725,-2.3665,-2.3991,-2.4054,-2.4029,-2.4381,-2.4883,-2.5435,-2.5787,-2.6235,-2.6487,-2.6487,-2.6487,-2.6487,-2.6487,-2.6487,-2.6487,-2.6487,-2.6487,-2.6487,-2.6487,-2.6487,-2.6487,-2.6487,-2.6487,-2.6487,-2.6487,-2.6487,-2.6487,-2.6487,-2.6487,-2.6487,-2.6487,-2.6487,-2.6487,-2.6487,-2.6487,-2.6487,-2.6487,-2.6487,-2.6487,-2.6487,-2.6487,-2.6487,-4.2083,-4.1745,-4.1356,-4.1001,-4.0629,-4.0282,-4.0113,-4.0113,-4.0113,-4.0113,-4.0113,-4.0113,-3.991,-3.9563,-3.914,-3.87,-3.7804,-3.6806,-3.6045,-3.5667,-3.5616,-3.5616,-3.5492,-3.5276,-3.5121,-3.5028,-3.4447,-3.3786,-3.3103,-3.2477,-3.1881,-3.1524,-3.1481,-3.1286,-3.0972,-3.0073,-2.9487,-2.9007,-2.8169,-2.7585,-2.7585,-2.7585,-2.7585,-2.7585,-2.7585,-2.7585,-2.7585,-2.7585,-2.7585,-2.7585,-2.7585,-2.7585,-2.7585,-2.7585,-2.7585,-2.7585,-2.7585,-2.7585,-2.7585,-2.7585,-2.7585,-2.7585,-2.7585,-2.7585,-2.7585,-2.7585,-2.7291,-2.6508,-2.5797,-2.4943,-2.3728,-2.3358,-2.3333,-2.3446,-2.3559,-2.3602,-2.3766,-2.4487,-2.5259,-2.5649,-2.616,-2.6399,-2.6487,-2.6487,-2.6487,-2.6487,-2.6487,-2.6487,-2.6487,-2.6487,-2.6487,-2.6487,-2.6487,-2.6487,-2.6487,-2.6487,-2.6487,-2.6487,-2.6487,-2.6487,-2.6487,-2.6487,-2.6487,-2.6487,-2.6487,-2.6487,-2.6487,-2.6487,-2.6487,-2.6487,-2.6487,-2.6487,-2.6487,-2.6487,-2.6487,-4.1576,-4.1052,-4.1035,-4.0663,-4.0146,-4.0113,-4.0113,-4.0113,-4.0113,-4.0113,-4.0062,-4.0028,-3.9554,-3.9056,-3.865,-3.7845,-3.6772,-3.6096,-3.565,-3.5633,-3.5616,-3.5492,-3.5293,-3.4918,-3.4479,-3.4284,-3.3735,-3.3103,-3.2598,-3.1879,-3.1506,-3.1346,-3.1301,-3.0928,-3.0372,-2.9744,-2.9187,-2.8678,-2.8004,-2.7585,-2.7585,-2.7585,-2.7585,-2.7585,-2.7585,-2.7585,-2.7585,-2.7585,-2.7585,-2.7585,-2.7585,-2.7585,-2.7585,-2.7585,-2.7585,-2.7585,-2.7585,-2.7585,-2.7585,-2.7585,-2.7585,-2.7585,-2.7585,-2.7585,-2.7585,-2.756,-2.7408,-2.6916,-2.6122,-2.4879,-2.3514,-2.3407,-2.3275,-2.3163,-2.312,-2.3095,-2.3358,-2.4481,-2.5084,-2.5485,-2.5824,-2.6172,-2.6399,-2.6487,-2.6487,-2.6487,-2.6487,-2.6487,-2.6487,-2.6487,-2.6487,-2.6487,-2.6487,-2.6487,-2.6487,-2.6487,-2.6487,-2.6487,-2.6487,-2.6487,-2.6487,-2.6487,-2.6487,-2.6487,-2.6487,-2.6487,-2.6487,-2.6487,-2.6487,-2.6487,-2.6487,-2.6487,-2.6487,-2.6487,-2.6487,-4.0383,-4.0282,-4.0299,-4.0214,-4.0113,-4.0113,-4.0113,-4.0113,-4.0079,-4.0113,-3.9994,-3.9453,-3.9106,-3.8667,-3.7625,-3.6671,-3.6028,-3.5667,-3.5616,-3.5577,-3.5532,-3.5316,-3.4871,-3.4479,-3.3962,-3.3145,-3.2741,-3.2575,-3.2333,-3.1894,-3.1179,-3.0776,-3.0672,-3.0342,-2.9729,-2.9157,-2.8771,-2.8442,-2.7914,-2.7615,-2.7585,-2.7585,-2.7585,-2.7585,-2.7585,-2.7585,-2.7585,-2.7585,-2.7585,-2.7585,-2.7585,-2.7585,-2.7585,-2.7585,-2.7585,-2.7585,-2.7585,-2.7585,-2.7585,-2.7585,-2.7585,-2.7585,-2.7585,-2.7585,-2.7585,-2.756,-2.7331,-2.6721,-2.6027,-2.5063,-2.4221,-2.3972,-2.3679,-2.3365,-2.3095,-2.3095,-2.3258,-2.3772,-2.4531,-2.4908,-2.5398,-2.59,-2.616,-2.6386,-2.6487,-2.6487,-2.6487,-2.6487,-2.6487,-2.6487,-2.6487,-2.6487,-2.6487,-2.6487,-2.6487,-2.6487,-2.6487,-2.6487,-2.6487,-2.6487,-2.6487,-2.6487,-2.6487,-2.6487,-2.6487,-2.6487,-2.6487,-2.6487,-2.6487,-2.6487,-2.6487,-2.6487,-2.6487,-2.6487,-2.6487,-4.0113,-4.0113,-4.0113,-4.0113,-4.0113,-4.0113,-4.0113,-4.0028,-3.9706,-3.9537,-3.9309,-3.8768,-3.8193,-3.7736,-3.7218,-3.6366,-3.5785,-3.5616,-3.5616,-3.5577,-3.523,-3.4981,-3.4431,-3.3946,-3.3287,-3.2517,-3.1977,-3.1573,-3.1488,-3.1168,-3.0642,-3.0178,-3.0013,-2.9726,-2.9202,-2.8801,-2.8397,-2.8098,-2.7779,-2.7585,-2.7585,-2.7585,-2.7585,-2.7585,-2.7585,-2.7585,-2.7585,-2.7585,-2.7585,-2.7585,-2.7585,-2.7585,-2.7585,-2.7585,-2.7585,-2.7585,-2.7585,-2.7585,-2.7585,-2.7585,-2.7585,-2.7585,-2.7585,-2.7585,-2.7585,-2.7534,-2.724,-2.6642,-2.627,-2.5481,-2.4423,-2.4308,-2.3914,-2.3305,-2.3095,-2.3095,-2.3158,-2.3396,-2.3866,-2.4431,-2.5146,-2.5649,-2.59,-2.6172,-2.6411,-2.6487,-2.6487,-2.6487,-2.6487,-2.6487,-2.6487,-2.6487,-2.6487,-2.6487,-2.6487,-2.6487,-2.6487,-2.6487,-2.6487,-2.6487,-2.6487,-2.6487,-2.6487,-2.6487,-2.6487,-2.6487,-2.6487,-2.6487,-2.6487,-2.6487,-2.6487,-2.6487,-2.6487,-2.6487,-2.6487,-4.0113,-4.0113,-4.0113,-4.0113,-4.0079,-3.9926,-3.9876,-3.974,-3.9073,-3.8785,-3.8667,-3.8007,-3.7364,-3.6897,-3.6592,-3.6163,-3.5616,-3.5616,-3.5616,-3.547,-3.4981,-3.4592,-3.4062,-3.3313,-3.2532,-3.2152,-3.1258,-3.0507,-3.0621,-3.043,-2.9981,-2.9535,-2.9412,-2.9082,-2.8502,-2.8323,-2.8004,-2.7794,-2.7585,-2.7585,-2.7585,-2.7585,-2.7585,-2.7585,-2.7585,-2.7585,-2.7585,-2.7585,-2.7585,-2.7585,-2.7585,-2.7585,-2.7585,-2.7585,-2.7585,-2.7585,-2.7585,-2.7585,-2.7585,-2.7585,-2.7585,-2.7585,-2.7585,-2.7585,-2.7585,-2.7509,-2.7306,-2.668,-2.6416,-2.5824,-2.4595,-2.4308,-2.3884,-2.3335,-2.3095,-2.3095,-2.3095,-2.3246,-2.3509,-2.4167,-2.4946,-2.541,-2.5674,-2.616,-2.6449,-2.6487,-2.6487,-2.6487,-2.6487,-2.6487,-2.6487,-2.6487,-2.6487,-2.6487,-2.6487,-2.6487,-2.6487,-2.6487,-2.6487,-2.6487,-2.6487,-2.6487,-2.6487,-2.6487,-2.6487,-2.6487,-2.6487,-2.6487,-2.6487,-2.6487,-2.6487,-2.6487,-2.6487,-2.6487,-2.6487,-4.0113,-4.0113,-4.0096,-4.0113,-3.9977,-3.9377,-3.9123,-3.9022,-3.8345,-3.8041,-3.7973,-3.728,-3.6863,-3.6626,-3.6045,-3.5735,-3.5633,-3.5616,-3.5554,-3.5402,-3.4823,-3.4137,-3.3652,-3.3002,-3.2032,-3.1503,-3.0769,-3.0552,-3.0238,-2.9849,-2.934,-2.8831,-2.8667,-2.8397,-2.7929,-2.7859,-2.7675,-2.76,-2.7585,-2.7585,-2.7585,-2.7585,-2.7585,-2.7585,-2.7585,-2.7585,-2.7585,-2.7585,-2.7585,-2.7585,-2.7585,-2.7585,-2.7585,-2.7585,-2.7585,-2.7585,-2.7585,-2.7585,-2.7585,-2.7585,-2.7585,-2.7585,-2.7585,-2.7585,-2.7585,-2.7575,-2.7306,-2.6575,-2.6496,-2.5892,-2.4794,-2.4337,-2.3855,-2.3424,-2.3095,-2.3095,-2.3095,-2.3108,-2.3371,-2.381,-2.4594,-2.5109,-2.5485,-2.6047,-2.6487,-2.6487,-2.6487,-2.6487,-2.6487,-2.6487,-2.6487,-2.6487,-2.6487,-2.6487,-2.6487,-2.6487,-2.6487,-2.6487,-2.6487,-2.6487,-2.6487,-2.6487,-2.6487,-2.6487,-2.6487,-2.6487,-2.6487,-2.6487,-2.6487,-2.6487,-2.6487,-2.6487,-2.6487,-2.6487,-2.6487,-4.0113,-4.0062,-3.9656,-3.9478,-3.936,-3.8684,-3.8379,-3.8227,-3.7601,-3.728,-3.7127,-3.6451,-3.6129,-3.6062,-3.5701,-3.5616,-3.5616,-3.5577,-3.5362,-3.4958,-3.4341,-3.3476,-3.2463,-3.1751,-3.1061,-3.0526,-2.9819,-2.937,-2.9325,-2.9175,-2.8697,-2.8169,-2.8064,-2.7934,-2.7615,-2.76,-2.76,-2.7585,-2.7585,-2.7585,-2.7585,-2.7585,-2.7585,-2.7585,-2.7585,-2.7585,-2.7585,-2.7585,-2.7585,-2.7585,-2.7585,-2.7585,-2.7585,-2.7585,-2.7585,-2.7585,-2.7585,-2.7585,-2.7585,-2.7585,-2.7585,-2.7585,-2.7585,-2.7585,-2.7585,-2.7575,-2.7524,-2.7178,-2.6721,-2.5973,-2.5035,-2.4538,-2.3872,-2.3412,-2.3095,-2.3095,-2.3108,-2.3108,-2.3271,-2.3735,-2.4211,-2.4833,-2.5423,-2.6047,-2.6449,-2.6487,-2.6487,-2.6487,-2.6487,-2.6487,-2.6487,-2.6487,-2.6487,-2.6487,-2.6487,-2.6487,-2.6487,-2.6487,-2.6487,-2.6487,-2.6487,-2.6487,-2.6487,-2.6487,-2.6487,-2.6487,-2.6487,-2.6487,-2.6487,-2.6487,-2.6487,-2.6487,-2.6487,-2.6487,-2.6487,-3.9723,-3.952,-3.9165,-3.8903,-3.8667,-3.7922,-3.7618,-3.7533,-3.6823,-3.6502,-3.6349,-3.591,-3.5633,-3.5616,-3.5633,-3.56,-3.5577,-3.5447,-3.5075,-3.4479,-3.3705,-3.2735,-3.1854,-3.0976,-3.0293,-2.9577,-2.9101,-2.8801,-2.8652,-2.8412,-2.8109,-2.76,-2.7705,-2.763,-2.76,-2.7585,-2.7585,-2.7585,-2.7585,-2.7585,-2.7585,-2.7585,-2.7585,-2.7585,-2.7585,-2.7585,-2.7585,-2.7585,-2.7585,-2.7315,-2.7525,-2.7525,-2.733,-2.7465,-2.757,-2.7585,-2.7585,-2.7585,-2.7585,-2.7585,-2.7585,-2.7585,-2.7585,-2.7585,-2.7585,-2.7585,-2.7408,-2.7178,-2.68,-2.6054,-2.5259,-2.4538,-2.3959,-2.3454,-2.3095,-2.3095,-2.3095,-2.3108,-2.3308,-2.3841,-2.4318,-2.4763,-2.5398,-2.6059,-2.6386,-2.6461,-2.6487,-2.6487,-2.6487,-2.6487,-2.6487,-2.6487,-2.6487,-2.6487,-2.6487,-2.6487,-2.6487,-2.6487,-2.6487,-2.6487,-2.6487,-2.6487,-2.6487,-2.6487,-2.6487,-2.6487,-2.6487,-2.6487,-2.6487,-2.6487,-2.6487,-2.6487,-2.6487,-2.6487,-2.6487,-3.8667,-3.8108,-3.87,-3.8548,-3.7939,-3.7178,-3.688,-3.6806,-3.6062,-3.5791,-3.5785,-3.5633,-3.56,-3.5521,-3.5408,-3.5386,-3.5492,-3.4941,-3.4559,-3.4071,-3.3328,-3.2309,-3.1394,-3.0667,-3.0058,-2.9427,-2.8727,-2.8487,-2.8427,-2.8004,-2.7764,-2.7585,-2.7585,-2.7585,-2.7585,-2.7585,-2.7585,-2.7585,-2.7585,-2.7585,-2.7585,-2.7585,-2.7585,-2.7585,-2.7585,-2.7585,-2.7585,-2.7585,-2.742,-2.6986,-2.736,-2.7405,-2.7195,-2.7405,-2.757,-2.7585,-2.7585,-2.7585,-2.7585,-2.7585,-2.7585,-2.7585,-2.7585,-2.7585,-2.7585,-2.7585,-2.7306,-2.6852,-2.6549,-2.581,-2.4979,-2.4221,-2.3738,-2.3424,-2.3095,-2.3095,-2.3095,-2.3095,-2.3346,-2.3904,-2.4381,-2.4813,-2.5347,-2.5996,-2.6373,-2.6474,-2.6487,-2.6487,-2.6487,-2.6487,-2.6487,-2.6487,-2.6487,-2.6487,-2.6487,-2.6487,-2.6487,-2.6487,-2.6487,-2.6487,-2.6487,-2.6487,-2.6487,-2.6487,-2.6487,-2.6487,-2.6418,-2.6233,-2.6164,-2.6418,-2.6487,-2.6487,-2.6487,-2.6487,-2.6487,-3.7889,-3.7246,-3.7557,-3.7466,-3.7161,-3.64,-3.6062,-3.6028,-3.5735,-3.5616,-3.56,-3.56,-3.5362,-3.4981,-3.4505,-3.4379,-3.4267,-3.3681,-3.3489,-3.3296,-3.2721,-3.172,-3.0833,-3.0033,-2.9412,-2.8588,-2.8109,-2.8004,-2.7914,-2.7705,-2.7645,-2.7585,-2.7585,-2.7585,-2.7585,-2.7585,-2.7585,-2.7585,-2.7585,-2.7585,-2.7585,-2.7585,-2.7585,-2.7585,-2.7585,-2.7585,-2.7585,-2.7585,-2.7435,-2.7315,-2.7435,-2.727,-2.7106,-2.739,-2.754,-2.7585,-2.7585,-2.7585,-2.7585,-2.7585,-2.7585,-2.7585,-2.7585,-2.7585,-2.7585,-2.7585,-2.7524,-2.706,-2.6336,-2.5563,-2.5175,-2.4163,-2.3365,-2.3185,-2.3095,-2.3095,-2.3095,-2.3095,-2.3158,-2.3602,-2.4255,-2.4845,-2.536,-2.5887,-2.6235,-2.6487,-2.6487,-2.6487,-2.6487,-2.6487,-2.6487,-2.6487,-2.6487,-2.6487,-2.6487,-2.6487,-2.6487,-2.6487,-2.6487,-2.6487,-2.6487,-2.6487,-2.6487,-2.6487,-2.6452,-2.6418,-2.6233,-2.5873,-2.5908,-2.6302,-2.6452,-2.6487,-2.6487,-2.6487,-2.6487,-3.7127,-3.6468,-3.6451,-3.6434,-3.6349,-3.5842,-3.5616,-3.5616,-3.5616,-3.547,-3.5283,-3.5092,-3.4625,-3.397,-3.3327,-3.2997,-3.2908,-3.2593,-3.2389,-3.2275,-3.209,-3.1156,-3.0175,-2.9457,-2.9037,-2.7884,-2.7585,-2.763,-2.7675,-2.76,-2.7585,-2.7585,-2.7585,-2.7585,-2.7585,-2.7585,-2.7585,-2.7585,-2.7585,-2.7585,-2.7585,-2.7585,-2.7585,-2.7585,-2.7585,-2.7585,-2.7585,-2.7555,-2.727,-2.7076,-2.7046,-2.7121,-2.7121,-2.7195,-2.739,-2.7525,-2.7585,-2.7585,-2.7585,-2.7585,-2.7585,-2.7585,-2.7585,-2.7585,-2.7585,-2.756,-2.7484,-2.7086,-2.6242,-2.5563,-2.5287,-2.4163,-2.3454,-2.3288,-2.3125,-2.3095,-2.3095,-2.3095,-2.3095,-2.3246,-2.401,-2.487,-2.5285,-2.5799,-2.6273,-2.6487,-2.6487,-2.6487,-2.6487,-2.6487,-2.6487,-2.6487,-2.6487,-2.6487,-2.6487,-2.6487,-2.6487,-2.6487,-2.6487,-2.6487,-2.6487,-2.6487,-2.6487,-2.6487,-2.6452,-2.6349,-2.599,-2.5511,-2.5838,-2.6349,-2.6418,-2.6487,-2.6487,-2.6487,-2.6487,-3.6366,-3.565,-3.5667,-3.5684,-3.5701,-3.5633,-3.5616,-3.5583,-3.5448,-3.5084,-3.4449,-3.3921,-3.3263,-3.2619,-3.1943,-3.167,-3.1591,-3.1492,-3.1444,-3.1417,-3.1344,-3.0591,-2.9936,-2.9307,-2.8783,-2.7869,-2.7585,-2.7585,-2.7585,-2.7585,-2.7585,-2.7585,-2.7585,-2.7585,-2.7585,-2.7585,-2.7585,-2.7585,-2.7585,-2.7585,-2.7585,-2.7585,-2.7585,-2.7585,-2.7585,-2.7585,-2.7585,-2.7585,-2.718,-2.6477,-2.6776,-2.6677,-2.6228,-2.6701,-2.7106,-2.7555,-2.7585,-2.7585,-2.7585,-2.7585,-2.7585,-2.7585,-2.7585,-2.7585,-2.7585,-2.7534,-2.7291,-2.6852,-2.631,-2.5591,-2.4922,-2.4163,-2.3632,-2.3348,-2.3155,-2.3095,-2.3095,-2.3108,-2.3108,-2.3396,-2.4148,-2.4895,-2.5259,-2.5686,-2.6248,-2.6487,-2.6487,-2.6487,-2.6487,-2.6487,-2.6487,-2.6487,-2.6487,-2.6487,-2.6487,-2.6487,-2.6487,-2.6487,-2.6487,-2.6487,-2.6487,-2.6487,-2.6487,-2.6487,-2.6452,-2.6383,-2.5769,-2.5111,-2.5616,-2.6094,-2.6383,-2.6487,-2.6487,-2.6487,-2.6487,-3.5853,-3.5616,-3.5616,-3.5616,-3.5616,-3.5616,-3.5616,-3.5453,-3.4676,-3.3907,-3.3226,-3.2554,-3.1911,-3.1239,-3.0647,-3.027,-3.0207,-2.9699,-2.9713,-3.0261,-3.0321,-2.9723,-2.916,-2.8891,-2.8472,-2.7839,-2.7585,-2.7585,-2.7585,-2.7585,-2.7585,-2.7585,-2.7585,-2.7585,-2.7585,-2.7585,-2.7585,-2.7585,-2.7585,-2.7585,-2.7585,-2.7585,-2.7585,-2.7585,-2.757,-2.7525,-2.751,-2.748,-2.6886,-2.6228,-2.6617,-2.6716,-2.6348,-2.6776,-2.7285,-2.757,-2.7585,-2.7585,-2.7585,-2.7585,-2.7585,-2.7585,-2.7585,-2.7585,-2.7585,-2.7585,-2.7178,-2.6563,-2.6068,-2.5315,-2.4538,-2.3767,-2.3288,-2.3228,-2.3095,-2.3095,-2.3108,-2.312,-2.3195,-2.3735,-2.4431,-2.5247,-2.5808,-2.5921,-2.6336,-2.6487,-2.6487,-2.6487,-2.6487,-2.6487,-2.6487,-2.6487,-2.6487,-2.6487,-2.6487,-2.6487,-2.6487,-2.6487,-2.6487,-2.6487,-2.6487,-2.6487,-2.6487,-2.6487,-2.6452,-2.6383,-2.5838,-2.5406,-2.5511,-2.5804,-2.6238,-2.6518,-2.6612,-2.6562,-2.6487,-3.5616,-3.5583,-3.5329,-3.5211,-3.5245,-3.5481,-3.5492,-3.505,-3.3834,-3.2886,-3.2167,-3.1355,-3.0544,-2.9882,-2.9255,-2.891,-2.8873,-2.8813,-2.8712,-2.9265,-2.952,-2.9205,-2.8831,-2.8517,-2.8248,-2.7779,-2.7585,-2.7585,-2.7585,-2.7585,-2.7585,-2.7585,-2.7585,-2.7585,-2.7585,-2.7585,-2.7585,-2.7585,-2.7585,-2.7585,-2.7585,-2.7585,-2.7585,-2.751,-2.739,-2.7225,-2.718,-2.6986,-2.6617,-2.6348,-2.6408,-2.6716,-2.6557,-2.6836,-2.733,-2.7495,-2.7585,-2.7585,-2.7585,-2.7585,-2.7585,-2.7585,-2.7585,-2.7585,-2.7585,-2.7585,-2.6956,-2.631,-2.5687,-2.4866,-2.4018,-2.3275,-2.3168,-2.3095,-2.3095,-2.3095,-2.3108,-2.312,-2.3346,-2.3941,-2.4619,-2.546,-2.621,-2.6311,-2.6474,-2.6487,-2.6487,-2.6487,-2.6487,-2.6487,-2.6487,-2.6487,-2.6487,-2.6487,-2.6487,-2.6487,-2.6487,-2.6487,-2.6487,-2.6487,-2.6487,-2.6487,-2.6487,-2.6499,-2.6512,-2.6386,-2.6037,-2.5781,-2.5642,-2.5833,-2.6284,-2.6519,-2.6716,-2.6713,-2.6663,-3.5515,-3.543,-3.4759,-3.4433,-3.453,-3.4858,-3.4845,-3.4282,-3.2999,-3.2064,-3.1362,-3.0068,-2.9379,-2.8696,-2.8052,-2.7921,-2.8006,-2.8417,-2.8494,-2.8708,-2.8951,-2.8757,-2.8607,-2.8412,-2.8079,-2.7764,-2.7585,-2.7585,-2.7585,-2.7585,-2.7585,-2.7585,-2.7585,-2.7585,-2.7585,-2.7585,-2.7585,-2.7585,-2.7585,-2.7585,-2.7585,-2.7585,-2.7585,-2.748,-2.724,-2.6941,-2.6716,-2.6348,-2.5621,-2.5322,-2.5375,-2.5555,-2.5809,-2.6228,-2.6881,-2.7285,-2.739,-2.733,-2.727,-2.7225,-2.739,-2.733,-2.745,-2.7525,-2.7534,-2.7433,-2.6707,-2.5973,-2.5273,-2.4323,-2.3454,-2.3275,-2.3125,-2.3095,-2.3095,-2.3095,-2.3095,-2.3233,-2.3496,-2.401,-2.4732,-2.5485,-2.6235,-2.6487,-2.6487,-2.6487,-2.6487,-2.6487,-2.6487,-2.6487,-2.6487,-2.6487,-2.6487,-2.6487,-2.6487,-2.6487,-2.6487,-2.6487,-2.6487,-2.6487,-2.6487,-2.6587,-2.6725,-2.6751,-2.6612,-2.6461,-2.633,-2.5989,-2.5551,-2.5896,-2.6652,-2.6843,-2.7115,-2.7052,-2.7065,-3.4032,-3.4015,-3.3812,-3.3463,-3.3,-3.2336,-3.1906,-3.1611,-3.0797,-3.0097,-2.9414,-2.9036,-2.8826,-2.8523,-2.8763,-2.8559,-2.842,-2.8333,-2.8152,-2.8212,-2.8259,-2.8079,-2.7989,-2.7929,-2.775,-2.7675,-2.7585,-2.7585,-2.7585,-2.7585,-2.7585,-2.7585,-2.7585,-2.7585,-2.7585,-2.7585,-2.7585,-2.7585,-2.7585,-2.7585,-2.757,-2.754,-2.754,-2.739,-2.7151,-2.6806,-2.6378,-2.6135,-2.5478,-2.4874,-2.5262,-2.5427,-2.4933,-2.551,-2.6063,-2.6108,-2.6153,-2.6177,-2.6168,-2.6183,-2.6368,-2.6757,-2.6871,-2.7225,-2.728,-2.7027,-2.6385,-2.5755,-2.5105,-2.4279,-2.3501,-2.3185,-2.3095,-2.3095,-2.3095,-2.3095,-2.3095,-2.317,-2.3496,-2.4381,-2.5059,-2.5724,-2.6424,-2.6487,-2.6487,-2.6487,-2.6487,-2.6487,-2.6487,-2.6487,-2.6487,-2.6487,-2.6487,-2.6487,-2.6487,-2.6487,-2.6487,-2.6487,-2.6562,-2.665,-2.6751,-2.6876,-2.7014,-2.709,-2.7077,-2.7007,-2.6926,-2.6558,-2.6344,-2.6731,-2.7385,-2.7421,-2.7444,-2.7406,-2.7557,-3.3389,-3.3334,-3.282,-3.1962,-3.0919,-3.0347,-2.9918,-2.9489,-2.9475,-2.931,-2.8987,-2.8917,-2.885,-2.8881,-2.8935,-2.8756,-2.8479,-2.8146,-2.792,-2.776,-2.7585,-2.7645,-2.7615,-2.7585,-2.7615,-2.7585,-2.7585,-2.7585,-2.7585,-2.7585,-2.7585,-2.7585,-2.7585,-2.7585,-2.7585,-2.7585,-2.7585,-2.7585,-2.7585,-2.7585,-2.751,-2.736,-2.724,-2.7121,-2.6911,-2.6264,-2.5842,-2.5592,-2.4733,-2.426,-2.4729,-2.4838,-2.461,-2.5241,-2.5615,-2.5704,-2.5719,-2.5734,-2.5749,-2.5704,-2.575,-2.5857,-2.6054,-2.6032,-2.6375,-2.636,-2.6042,-2.5646,-2.5035,-2.4423,-2.3708,-2.3095,-2.3095,-2.3095,-2.3095,-2.3095,-2.3095,-2.3095,-2.3785,-2.472,-2.5448,-2.6147,-2.6487,-2.6487,-2.6487,-2.6487,-2.6487,-2.6487,-2.6487,-2.6487,-2.6487,-2.6487,-2.6487,-2.6487,-2.6487,-2.6524,-2.6637,-2.6738,-2.6914,-2.7002,-2.7065,-2.7304,-2.7593,-2.762,-2.7607,-2.7571,-2.7535,-2.7535,-2.7488,-2.7795,-2.7996,-2.816,-2.8109,-2.7921,-2.8185,-3.3161,-3.2976,-3.1779,-3.028,-2.8724,-2.9153,-2.8732,-2.7796,-2.8891,-2.9391,-2.9319,-2.9357,-2.9384,-2.9384,-2.9203,-2.8919,-2.8583,-2.8222,-2.786,-2.7585,-2.7585,-2.7585,-2.7585,-2.7585,-2.7585,-2.7585,-2.7585,-2.7585,-2.7585,-2.7585,-2.7585,-2.7585,-2.7585,-2.7585,-2.7585,-2.7405,-2.733,-2.73,-2.7225,-2.7165,-2.7225,-2.6986,-2.6542,-2.6333,-2.5574,-2.4714,-2.4325,-2.3707,-2.2918,-2.3302,-2.3635,-2.3902,-2.4476,-2.4896,-2.5196,-2.527,-2.5136,-2.5121,-2.5091,-2.5091,-2.5052,-2.5091,-2.5132,-2.5024,-2.5324,-2.5758,-2.5577,-2.5011,-2.4353,-2.4008,-2.3352,-2.3125,-2.3095,-2.3095,-2.3095,-2.3095,-2.3095,-2.3346,-2.4073,-2.4958,-2.5699,-2.6336,-2.6487,-2.6487,-2.6487,-2.6487,-2.6487,-2.6487,-2.6487,-2.6487,-2.6487,-2.6487,-2.6487,-2.6487,-2.6487,-2.6575,-2.6813,-2.6989,-2.719,-2.7454,-2.7557,-2.7846,-2.8172,-2.8273,-2.8373,-2.821,-2.8172,-2.8172,-2.8197,-2.8285,-2.8524,-2.8825,-2.8787,-2.8574,-2.8737,-3.1456,-3.099,-3.0195,-2.9307,-2.8559,-2.8654,-2.8319,-2.7675,-2.8391,-2.879,-2.8824,-2.9206,-2.9629,-2.9848,-2.9673,-2.9384,-2.8966,-2.8295,-2.8033,-2.771,-2.7585,-2.751,-2.754,-2.7465,-2.7525,-2.7585,-2.7585,-2.7585,-2.7585,-2.7585,-2.7585,-2.7585,-2.754,-2.7495,-2.745,-2.718,-2.6851,-2.6836,-2.6527,-2.6497,-2.6617,-2.6632,-2.6408,-2.5816,-2.4985,-2.4297,-2.3829,-2.3174,-2.2513,-2.232,-2.2747,-2.322,-2.382,-2.4007,-2.4088,-2.4103,-2.4238,-2.4283,-2.4261,-2.4276,-2.4229,-2.4366,-2.442,-2.4399,-2.4564,-2.4972,-2.4895,-2.4242,-2.3793,-2.3521,-2.3233,-2.3155,-2.3095,-2.3095,-2.3095,-2.3095,-2.3108,-2.3722,-2.4362,-2.5109,-2.5862,-2.6223,-2.6399,-2.6487,-2.6487,-2.6487,-2.6487,-2.6487,-2.6487,-2.6487,-2.6487,-2.6487,-2.6487,-2.6487,-2.6487,-2.6612,-2.6851,-2.7118,-2.7379,-2.7682,-2.8084,-2.8436,-2.8787,-2.9051,-2.9151,-2.8913,-2.8737,-2.8737,-2.8775,-2.8825,-2.8976,-2.9302,-2.944,-2.9264,-2.944,-3.0995,-3.0617,-2.9761,-2.888,-2.8271,-2.8638,-2.84,-2.7845,-2.8535,-2.8732,-2.8622,-2.9127,-2.9607,-2.9783,-2.9629,-2.9451,-2.8943,-2.8367,-2.7919,-2.7635,-2.7465,-2.7345,-2.7315,-2.718,-2.7121,-2.718,-2.7495,-2.7585,-2.7495,-2.7585,-2.7585,-2.7495,-2.7375,-2.7151,-2.7076,-2.6527,-2.6153,-2.6138,-2.5719,-2.5674,-2.5824,-2.5704,-2.5615,-2.5033,-2.4338,-2.3705,-2.3117,-2.249,-2.1959,-2.1902,-2.2426,-2.3031,-2.3502,-2.3699,-2.3655,-2.367,-2.3684,-2.3595,-2.353,-2.3437,-2.3422,-2.3514,-2.3533,-2.3463,-2.279,-2.3175,-2.412,-2.3671,-2.403,-2.3829,-2.3322,-2.3095,-2.3095,-2.3095,-2.3095,-2.3095,-2.3271,-2.3703,-2.4293,-2.4895,-2.5548,-2.6084,-2.6273,-2.6487,-2.6487,-2.6487,-2.6487,-2.6487,-2.6487,-2.6487,-2.6487,-2.6487,-2.6487,-2.6487,-2.6487,-2.665,-2.6876,-2.7203,-2.7595,-2.821,-2.8762,-2.9089,-2.9402,-2.949,-2.9515,-2.944,-2.9315,-2.9227,-2.9289,-2.9352,-2.9503,-2.9716,-2.9779,-2.9779,-2.9767,-3.1151,-3.0918,-2.9783,-2.8693,-2.7944,-2.8787,-2.8638,-2.7894,-2.867,-2.885,-2.8415,-2.8873,-2.918,-2.918,-2.8779,-2.8606,-2.8282,-2.775,-2.749,-2.752,-2.727,-2.7031,-2.6761,-2.6542,-2.6522,-2.6626,-2.6911,-2.7076,-2.7091,-2.7091,-2.7046,-2.718,-2.6911,-2.6467,-2.6273,-2.5884,-2.548,-2.542,-2.5143,-2.4918,-2.4739,-2.4522,-2.4537,-2.408,-2.3306,-2.2609,-2.2105,-2.1585,-2.1126,-2.1476,-2.2053,-2.286,-2.3363,-2.3595,-2.3595,-2.3573,-2.3399,-2.3399,-2.3297,-2.2875,-2.2709,-2.2601,-2.2558,-2.2194,-2.156,-2.1966,-2.2911,-2.3333,-2.3688,-2.3859,-2.3352,-2.3095,-2.3095,-2.3095,-2.3095,-2.3095,-2.3358,-2.3678,-2.4205,-2.4745,-2.5285,-2.5824,-2.6223,-2.6449,-2.6487,-2.6487,-2.6487,-2.6487,-2.6487,-2.6487,-2.6487,-2.6487,-2.6487,-2.6487,-2.6487,-2.6776,-2.7027,-2.7582,-2.8084,-2.8812,-2.9365,-2.949,-2.9603,-2.9679,-2.9704,-2.9641,-2.9654,-2.9603,-2.9704,-2.9716,-2.9741,-2.9779,-2.9779,-2.9779,-2.9779,-3.0915,-3.0372,-2.9157,-2.8511,-2.8367,-2.8591,-2.8247,-2.771,-2.783,-2.7845,-2.7794,-2.7913,-2.84,-2.9345,-2.8756,-2.8417,-2.8032,-2.7352,-2.7305,-2.7465,-2.6722,-2.6482,-2.6333,-2.6123,-2.5869,-2.5929,-2.6048,-2.6004,-2.6348,-2.6213,-2.6033,-2.6078,-2.6004,-2.5779,-2.5674,-2.5217,-2.4784,-2.4694,-2.438,-2.4073,-2.4156,-2.3985,-2.3835,-2.3238,-2.231,-2.169,-2.1102,-2.0383,-2.0144,-2.0446,-2.1339,-2.2469,-2.3209,-2.3573,-2.3551,-2.3421,-2.3209,-2.3076,-2.2897,-2.2521,-2.23,-2.2161,-2.1997,-2.1455,-2.1218,-2.1497,-2.2117,-2.226,-2.2694,-2.3327,-2.3095,-2.3095,-2.3095,-2.3095,-2.3095,-2.3095,-2.3221,-2.3653,-2.413,-2.4669,-2.5222,-2.5787,-2.6373,-2.6487,-2.6487,-2.6487,-2.6487,-2.6487,-2.6487,-2.6487,-2.6487,-2.6487,-2.6487,-2.6487,-2.6499,-2.6964,-2.7293,-2.7921,-2.8524,-2.9114,-2.9528,-2.9679,-2.9779,-2.9779,-2.9779,-2.9741,-2.9779,-2.9779,-2.9779,-2.9754,-2.9767,-2.9779,-2.9779,-2.9779,-2.9779]},{"header":{"parameterUnit":"m.s-1","parameterCategory":1,"la1":31.0,"la2":29.5877,"lo1":-88.7671,"lo2":-86.6584,"dy":0.0162,"dx":0.0185,"nx":115,"ny":88,"refTime":"2026-03-22T00:00:00:Z","depth":0,"parameterNumber":3,"parameterNumberName":"V-component_of_WINDS"},"data":[0.0,0.0,0.0,0.0,0.0,0.0,0.0,0.0,0.0,0.0,0.0,0.0,0.0,0.0,0.0,0.0,0.0,0.0,0.0,0.0,0.0,0.0,0.0,0.0,0.0,0.0,0.0,0.0,0.0,0.0,0.0,0.0,0.0,0.0,0.0,0.0,0.0,0.0,0.0,0.0,0.0,0.0,0.0,0.0,0.0,0.0,0.0,0.0,0.0,0.0,0.0,0.0,0.0,0.0,0.0,0.0,0.0,0.0,0.0,0.0,0.0,0.0,0.0,0.0,0.0,0.0,0.0,0.0,0.0,0.0,0.0,0.0,0.0,0.0,0.0,0.0,0.0,0.0,0.0,0.0,0.0,0.0,0.0,0.0,0.0,0.0,0.0,0.0,0.0,0.0,0.0,0.0,0.0,0.0,0.0,0.0,0.0,0.0,0.0,0.0,0.0,0.0,0.0,0.0,0.0,0.0,0.0,0.0,0.0,0.0,0.0,0.0,0.0,0.0,0.0,0.0,0.0,0.0,0.0,0.0,0.0,0.0,0.0,0.0,0.0,0.0,0.0,0.0,0.0,0.0,0.0,0.0,0.0,0.0,0.0,0.0,0.0,0.0,0.0,0.0,0.0,0.0,0.0,0.0,0.0,0.0,0.0,0.0,0.0,0.0,0.0,0.0,0.0,0.0,0.0,0.0,0.0,0.0,0.0,0.0,0.0,0.0,0.0,0.0,0.0,0.0,0.0,0.0,0.0,0.0,0.0,0.0,0.0,0.0,0.0,0.0,0.0,0.0,0.0,0.0,0.0,0.0,0.0,0.0,0.0,0.0,0.0,0.0,0.0,0.0,0.0,0.0,0.0,0.0,0.0,0.0,0.0,0.0,0.0,0.0,0.0,0.0,0.0,0.0,0.0,0.0,0.0,0.0,0.0,0.0,0.0,0.0,0.0,0.0,0.0,0.0,0.0,0.0,0.0,0.0,0.0,0.0,0.0,0.0,0.0,0.0,0.0,0.0,0.0,0.0,0.0,0.0,0.0,0.0,0.0,0.0,0.0,0.0,0.0,0.0,0.0,0.0,0.0,0.0,0.0,0.0,0.0,0.0,0.0,0.0,0.0,0.0,0.0,0.0,0.0,0.0,0.0,0.0,0.0,0.0,0.0,0.0,0.0,0.0,0.0,0.0,0.0,0.0,0.0,0.0,0.0,0.0,0.0,0.0,0.0,0.0,0.0,0.0,0.0,0.0,0.0,0.0,0.0,0.0,0.0,0.0,0.0,0.0,0.0,0.0,0.0,0.0,0.0,0.0,0.0,0.0,0.0,0.0,0.0,0.0,0.0,0.0,0.0,0.0,0.0,0.0,0.0,0.0,0.0,0.0,0.0,0.0,0.0,0.0,0.0,0.0,0.0,0.0,0.0,0.0,0.0,0.0,0.0,0.0,0.0,0.0,0.0,0.0,0.0,0.0,0.0,0.0,0.0,0.0,0.0,0.0,0.0,0.0,0.0,0.0,0.0,0.0,0.0,0.0,0.0,0.0,0.0,0.0,0.0,0.0,0.0,0.0,0.0,0.0,0.0,0.0,0.0,0.0,0.0,0.0,0.0,0.0,0.0,0.0,0.0,0.0,0.0,0.0,0.0,0.0,0.0,0.0,0.0,0.0,0.0,0.0,0.0,0.0,0.0,0.0,0.0,0.0,0.0,0.0,0.0,0.0,0.0,0.0,0.0,0.0,0.0,0.0,0.0,0.0,0.0,0.0,0.0,0.0,0.0,0.0,0.0,0.0,0.0,0.0,0.0,0.0,0.0,0.0,0.0,0.0,0.0,0.0,0.0,0.0,0.0,0.0,0.0,0.0,0.0,0.0,0.0,0.0,0.0,0.0,0.0,0.0,0.0,0.0,0.0,0.0,0.0,0.0,0.0,0.0,0.0,0.0,0.0,0.0,0.0,0.0,0.0,0.0,0.0,0.0,0.0,0.0,0.0,0.0,0.0,0.0,0.0,0.0,0.0,0.0,0.0,0.0,0.0,0.0,0.0,0.0,0.0,0.0,0.0,0.0,0.0,0.0,0.0,0.0,0.0,0.0,0.0,0.0,0.0,0.0,0.0,0.0,0.0,0.0,0.0,0.0,0.0,0.0,0.0,0.0,0.0,0.0,0.0,0.0,0.0,0.0,0.0,0.0,0.0,0.0,0.0,0.0,0.0,0.0,0.0,0.0,0.0,0.0,0.0,0.0,0.0,0.0,0.0,0.0,0.0,0.0,0.0,0.0,0.0,0.0,0.0,0.0,0.0,0.0,0.0,0.0,0.0,0.0,0.0,0.0,0.0,0.0,0.0,0.0,0.0,0.0,0.0,0.0,0.0,0.0,0.0,0.0,0.0,0.0,0.0,0.0,0.0,0.0,0.0,0.0,0.0,0.0,0.0,0.0,0.0,0.0,0.0,0.0,0.0,0.0,0.0,0.0,0.0,0.0,0.0,0.0,0.0,0.0,0.0,0.0,0.0,0.0,0.0,0.0,0.0,0.0,0.0,0.0,0.0,0.0,0.0,0.0,0.0,0.0,0.0,0.0,0.0,0.0,0.0,0.0,0.0,0.0,0.0,0.0,0.0,0.0,0.0,0.0,0.0,0.0,0.0,0.0,0.0,0.0,0.0,0.0,0.0,0.0,0.0,0.0,0.0,0.0,0.0,0.0,0.0,0.0,0.0,0.0,0.0,0.0,0.0,0.0,0.0,0.0,0.0,0.0,0.0,0.0,0.0,0.0,0.0,0.0,0.0,0.0,0.0,0.0,0.0,0.0,0.0,0.0,0.0,0.0,0.0,0.0,0.0,0.0,0.0,0.0,0.0,0.0,0.0,0.0,0.0,0.0,0.0,0.0,0.0,0.0,0.0,0.0,0.0,0.0,0.0,0.0,0.0,0.0,0.0,0.0,0.0,0.0,0.0,0.0,0.0,0.0,0.0,0.0,0.0,0.0,0.0,0.0,0.0,0.0,0.0,0.0,0.0,0.0,0.0,0.0,0.0,0.0,0.0,0.0,0.0,0.0,0.0,0.0,0.0,0.0,0.0,0.0,0.0,0.0,0.0,0.0,0.0,0.0,0.0,0.0,0.0,0.0,0.0,0.0,0.0,0.0,0.0,0.0,0.0,0.0,0.0,0.0,0.0,0.0,0.0,0.0,0.0,0.0,0.0,0.0,0.0,0.0,0.0,0.0,0.0,0.0,0.0,0.0,0.0,0.0,0.0,0.0,0.0,0.0,0.0,0.0,0.0,0.0,0.0,0.0,0.0,0.0,0.0,0.0,0.0,0.0,0.0,0.0,0.0,0.0,0.0,0.0,0.0,0.0,0.0,0.0,0.0,0.0,0.0,0.0,0.0,0.0,0.0,0.0,0.0,0.0,0.0,0.0,0.0,0.0,0.0,0.0,0.0,0.0,0.0,0.0,0.0,0.0,0.0,0.0,0.0,0.0,0.0,0.0,0.0,0.0,0.0,0.0,0.0,0.0,0.0,0.0,0.0,0.0,0.0,0.0,0.0,0.0,0.0,0.0,0.0,0.0,0.0,0.0,0.0,0.0,0.0,0.0,0.0,0.0,0.0,0.0,0.0,0.0,0.0,0.0,0.0,0.0,0.0,0.0,0.0,0.0,0.0,0.0,0.0,0.0,0.0,0.0,0.0,0.0,0.0,0.0,0.0,0.0,0.0,0.0,0.0,0.0,0.0,0.0,0.0,0.0,0.0,0.0,0.0,0.0,0.0,0.0,0.0,0.0,0.0,0.0,0.0,0.0,0.0,0.0,0.0,0.0,0.0,0.0,0.0,0.0,0.0,0.0,0.0,0.0,0.0,0.0,0.0,0.0,0.0,0.0,0.0,0.0,0.0,0.0,0.0,0.0,0.0,0.0,0.0,0.0,0.0,0.0,0.0,0.0,0.0,0.0,0.0,0.0,0.0,0.0,0.0,0.0,0.0,0.0,0.0,0.0,0.0,0.0,0.0,0.0,0.0,0.0,0.0,0.0,0.0,0.0,0.0,0.0,0.0,0.0,0.0,0.0,0.0,0.0,0.0,0.0,0.0,0.0,0.0,0.0,0.0,0.0,0.0,0.0,0.0,0.0,0.0,0.0,0.0,0.0,0.0,0.0,0.0,0.0,0.0,0.0,0.0,0.0,0.0,0.0,0.0,0.0,0.0,0.0,0.0,0.0,0.0,0.0,0.0,0.0,0.0,0.0,0.0,0.0,0.0,0.0,0.0,0.0,0.0,0.0,0.0,0.0,-2.4331,0.0,0.0,0.0,0.0,0.0,0.0,0.0,0.0,0.0,0.0,0.0,0.0,0.0,0.0,0.0,0.0,0.0,0.0,0.0,0.0,0.0,0.0,0.0,0.0,0.0,0.0,0.0,0.0,0.0,0.0,0.0,0.0,0.0,0.0,0.0,0.0,0.0,0.0,0.0,0.0,0.0,0.0,0.0,0.0,0.0,0.0,0.0,0.0,0.0,0.0,0.0,0.0,0.0,0.0,0.0,0.0,0.0,0.0,0.0,0.0,0.0,0.0,0.0,0.0,0.0,0.0,0.0,0.0,0.0,0.0,0.0,0.0,0.0,0.0,0.0,0.0,0.0,0.0,0.0,0.0,0.0,0.0,0.0,0.0,0.0,0.0,0.0,0.0,0.0,0.0,0.0,0.0,0.0,0.0,0.0,0.0,0.0,0.0,0.0,0.0,0.0,0.0,0.0,0.0,0.0,0.0,0.0,0.0,0.0,0.0,-2.9178,-2.8913,-2.6937,-2.4948,-2.3091,0.0,0.0,0.0,0.0,0.0,0.0,0.0,0.0,0.0,0.0,0.0,0.0,0.0,0.0,0.0,0.0,0.0,0.0,0.0,0.0,0.0,0.0,0.0,0.0,0.0,0.0,0.0,0.0,0.0,0.0,0.0,0.0,0.0,0.0,0.0,0.0,0.0,0.0,0.0,0.0,0.0,0.0,0.0,0.0,0.0,0.0,0.0,0.0,0.0,0.0,0.0,0.0,0.0,0.0,0.0,0.0,0.0,0.0,0.0,0.0,0.0,0.0,0.0,0.0,0.0,0.0,0.0,0.0,0.0,0.0,0.0,0.0,0.0,0.0,0.0,0.0,0.0,0.0,0.0,0.0,0.0,0.0,0.0,0.0,0.0,0.0,0.0,0.0,0.0,0.0,0.0,0.0,0.0,0.0,0.0,0.0,0.0,0.0,0.0,0.0,0.0,0.0,0.0,0.0,0.0,0.0,0.0,0.0,0.0,0.0,0.0,0.0,-2.5957,-2.3633,-2.1567,0.0,0.0,0.0,0.0,0.0,0.0,0.0,0.0,0.0,0.0,0.0,0.0,0.0,0.0,0.0,0.0,0.0,0.0,0.0,0.0,0.0,0.0,0.0,0.0,0.0,0.0,0.0,0.0,0.0,0.0,0.0,0.0,0.0,0.0,0.0,0.0,0.0,0.0,0.0,0.0,0.0,0.0,0.0,0.0,0.0,0.0,0.0,0.0,0.0,0.0,0.0,0.0,0.0,0.0,0.0,0.0,0.0,0.0,0.0,0.0,0.0,0.0,0.0,0.0,0.0,0.0,0.0,0.0,0.0,0.0,0.0,0.0,0.0,0.0,0.0,0.0,0.0,0.0,0.0,0.0,0.0,0.0,0.0,0.0,0.0,0.0,0.0,0.0,0.0,0.0,0.0,0.0,0.0,0.0,0.0,0.0,0.0,0.0,0.0,0.0,0.0,0.0,0.0,0.0,0.0,0.0,0.0,0.0,0.0,0.0,-2.7673,-2.8322,-2.5064,0.0,-1.9514,0.0,0.0,0.0,0.0,0.0,0.0,0.0,0.0,0.0,0.0,0.0,0.0,0.0,0.0,0.0,0.0,0.0,0.0,0.0,0.0,0.0,0.0,0.0,0.0,0.0,0.0,0.0,0.0,0.0,0.0,0.0,0.0,0.0,0.0,0.0,0.0,0.0,0.0,0.0,0.0,0.0,0.0,0.0,0.0,0.0,0.0,0.0,0.0,0.0,0.0,0.0,0.0,0.0,0.0,0.0,0.0,0.0,0.0,0.0,0.0,0.0,0.0,0.0,0.0,0.0,0.0,0.0,0.0,0.0,0.0,0.0,0.0,0.0,0.0,0.0,0.0,0.0,0.0,0.0,0.0,0.0,0.0,0.0,0.0,0.0,0.0,0.0,0.0,0.0,0.0,0.0,0.0,0.0,0.0,0.0,0.0,0.0,0.0,0.0,0.0,0.0,0.0,0.0,0.0,0.0,0.0,0.0,0.0,0.0,0.0,-2.7084,-2.6996,-2.3035,-2.0275,0.0,0.0,0.0,0.0,0.0,0.0,0.0,0.0,0.0,0.0,0.0,0.0,0.0,0.0,0.0,0.0,0.0,0.0,0.0,0.0,0.0,0.0,0.0,0.0,0.0,0.0,0.0,0.0,0.0,0.0,0.0,0.0,0.0,0.0,0.0,0.0,0.0,0.0,0.0,0.0,0.0,0.0,0.0,0.0,0.0,0.0,0.0,0.0,0.0,0.0,0.0,0.0,0.0,0.0,0.0,0.0,0.0,0.0,0.0,0.0,0.0,0.0,0.0,0.0,0.0,0.0,0.0,0.0,0.0,0.0,0.0,0.0,0.0,0.0,0.0,0.0,0.0,0.0,0.0,0.0,0.0,0.0,0.0,0.0,0.0,0.0,0.0,0.0,0.0,0.0,0.0,0.0,0.0,0.0,0.0,0.0,0.0,0.0,0.0,0.0,0.0,0.0,0.0,0.0,0.0,0.0,0.0,0.0,0.0,0.0,-2.7521,-2.5855,-2.4481,-2.1015,-1.9018,-1.8824,0.0,0.0,0.0,0.0,0.0,0.0,0.0,0.0,0.0,0.0,0.0,0.0,0.0,0.0,0.0,0.0,0.0,0.0,0.0,0.0,0.0,0.0,0.0,0.0,0.0,0.0,0.0,0.0,0.0,0.0,0.0,0.0,0.0,0.0,0.0,0.0,0.0,0.0,0.0,0.0,0.0,0.0,0.0,0.0,0.0,0.0,0.0,0.0,0.0,0.0,0.0,0.0,0.0,0.0,0.0,0.0,0.0,0.0,0.0,0.0,0.0,0.0,0.0,0.0,0.0,0.0,0.0,0.0,0.0,0.0,0.0,0.0,0.0,0.0,0.0,0.0,0.0,0.0,0.0,0.0,0.0,0.0,0.0,0.0,0.0,0.0,0.0,0.0,0.0,0.0,0.0,0.0,0.0,0.0,0.0,0.0,0.0,0.0,0.0,0.0,0.0,0.0,0.0,0.0,0.0,0.0,0.0,0.0,-2.9456,-2.6407,-2.3557,-2.1108,-1.9287,-1.8408,0.0,0.0,0.0,0.0,0.0,0.0,0.0,0.0,0.0,0.0,0.0,0.0,0.0,0.0,0.0,0.0,0.0,0.0,0.0,0.0,0.0,0.0,0.0,0.0,0.0,0.0,0.0,0.0,0.0,0.0,0.0,0.0,0.0,0.0,0.0,0.0,0.0,0.0,0.0,0.0,0.0,0.0,0.0,0.0,0.0,0.0,0.0,0.0,0.0,0.0,0.0,0.0,0.0,0.0,0.0,0.0,0.0,0.0,0.0,0.0,0.0,0.0,0.0,0.0,0.0,0.0,0.0,0.0,0.0,0.0,0.0,0.0,0.0,0.0,0.0,0.0,0.0,0.0,0.0,0.0,0.0,0.0,0.0,0.0,0.0,0.0,0.0,0.0,0.0,0.0,0.0,0.0,0.0,0.0,0.0,0.0,0.0,0.0,0.0,0.0,0.0,0.0,0.0,0.0,0.0,0.0,0.0,0.0,0.0,-2.7586,-2.3901,-2.1484,-2.0697,-1.8408,-1.7628,0.0,0.0,0.0,0.0,0.0,0.0,0.0,0.0,0.0,0.0,0.0,0.0,0.0,0.0,0.0,0.0,0.0,0.0,0.0,0.0,0.0,0.0,0.0,0.0,0.0,0.0,0.0,0.0,0.0,0.0,0.0,0.0,0.0,0.0,0.0,0.0,0.0,0.0,0.0,0.0,0.0,0.0,0.0,0.0,0.0,0.0,0.0,0.0,0.0,0.0,0.0,0.0,0.0,0.0,0.0,0.0,0.0,0.0,0.0,0.0,0.0,0.0,0.0,0.0,0.0,0.0,0.0,0.0,0.0,0.0,0.0,0.0,0.0,0.0,0.0,0.0,0.0,0.0,0.0,0.0,0.0,0.0,0.0,0.0,0.0,0.0,0.0,0.0,0.0,0.0,0.0,0.0,0.0,0.0,0.0,0.0,0.0,0.0,0.0,0.0,0.0,0.0,0.0,0.0,0.0,0.0,0.0,0.0,0.0,-2.4989,0.0,-1.9379,-1.8914,-1.7005,-1.6518,0.0,0.0,0.0,0.0,0.0,0.0,0.0,0.0,0.0,0.0,0.0,0.0,0.0,0.0,0.0,0.0,0.0,0.0,0.0,0.0,0.0,0.0,0.0,0.0,0.0,0.0,0.0,0.0,0.0,0.0,0.0,0.0,0.0,0.0,0.0,0.0,0.0,0.0,0.0,0.0,0.0,0.0,0.0,0.0,0.0,0.0,0.0,0.0,0.0,0.0,0.0,0.0,0.0,0.0,0.0,0.0,0.0,0.0,0.0,0.0,0.0,0.0,0.0,0.0,0.0,0.0,0.0,0.0,0.0,0.0,0.0,0.0,0.0,0.0,0.0,0.0,0.0,0.0,0.0,0.0,0.0,0.0,0.0,0.0,0.0,0.0,0.0,0.0,0.0,0.0,0.0,0.0,0.0,0.0,0.0,0.0,0.0,0.0,0.0,0.0,0.0,0.0,0.0,0.0,0.0,0.0,0.0,0.0,-2.5694,-2.1669,-1.928,-1.727,-1.5447,-1.507,-1.4977,0.0,0.0,0.0,0.0,0.0,0.0,0.0,0.0,0.0,0.0,0.0,0.0,0.0,0.0,0.0,0.0,0.0,0.0,0.0,0.0,0.0,0.0,0.0,0.0,0.0,0.0,0.0,0.0,0.0,0.0,0.0,0.0,0.0,0.0,0.0,0.0,0.0,0.0,0.0,0.0,0.0,0.0,0.0,0.0,0.0,0.0,0.0,0.0,0.0,0.0,0.0,0.0,0.0,0.0,0.0,0.0,0.0,0.0,0.0,0.0,0.0,0.0,0.0,0.0,0.0,0.0,0.0,0.0,0.0,0.0,0.0,0.0,0.0,0.0,0.0,0.0,0.0,0.0,0.0,0.0,0.0,0.0,0.0,0.0,0.0,0.0,0.0,0.0,0.0,0.0,0.0,0.0,0.0,0.0,0.0,0.0,0.0,0.0,0.0,0.0,0.0,0.0,0.0,0.0,0.0,0.0,0.0,0.0,0.0,-2.1194,-1.7907,-1.5935,-1.5458,-1.464,-1.5151,0.0,0.0,0.0,0.0,0.0,0.0,0.0,0.0,0.0,0.0,0.0,0.0,0.0,0.0,0.0,0.0,0.0,0.0,0.0,0.0,0.0,0.0,0.0,0.0,0.0,0.0,0.0,0.0,0.0,0.0,0.0,0.0,0.0,0.0,0.0,0.0,0.0,0.0,0.0,0.0,0.0,0.0,0.0,0.0,0.0,0.0,0.0,0.0,0.0,0.0,0.0,0.0,0.0,0.0,0.0,0.0,0.0,0.0,0.0,0.0,0.0,0.0,0.0,0.0,0.0,0.0,0.0,0.0,0.0,0.0,0.0,0.0,0.0,0.0,0.0,0.0,0.0,0.0,0.0,0.0,0.0,0.0,0.0,0.0,0.0,0.0,0.0,0.0,0.0,0.0,0.0,0.0,0.0,0.0,0.0,0.0,0.0,0.0,0.0,0.0,0.0,0.0,0.0,0.0,0.0,0.0,0.0,0.0,0.0,-1.9551,-1.6915,-1.5012,-1.3724,-1.4024,-1.4917,-1.6476,0.0,0.0,0.0,0.0,0.0,0.0,0.0,0.0,0.0,0.0,0.0,0.0,0.0,0.0,0.0,0.0,0.0,0.0,0.0,0.0,0.0,0.0,0.0,0.0,0.0,0.0,0.0,0.0,0.0,0.0,0.0,0.0,0.0,0.0,0.0,0.0,0.0,0.0,0.0,0.0,0.0,0.0,0.0,0.0,0.0,0.0,0.0,0.0,0.0,0.0,0.0,0.0,0.0,0.0,0.0,0.0,0.0,0.0,0.0,0.0,0.0,0.0,0.0,0.0,0.0,0.0,0.0,0.0,0.0,0.0,0.0,0.0,0.0,0.0,0.0,0.0,0.0,0.0,0.0,0.0,0.0,0.0,0.0,0.0,0.0,0.0,0.0,0.0,0.0,0.0,0.0,0.0,0.0,0.0,0.0,0.0,0.0,0.0,0.0,0.0,0.0,0.0,0.0,0.0,0.0,0.0,0.0,0.0,-1.7188,-1.6501,-1.4396,-1.0927,-1.3398,-1.4474,0.0,0.0,0.0,0.0,0.0,0.0,0.0,0.0,0.0,0.0,0.0,0.0,0.0,0.0,0.0,0.0,0.0,0.0,0.0,0.0,0.0,0.0,0.0,0.0,0.0,0.0,0.0,0.0,0.0,0.0,0.0,0.0,0.0,0.0,0.0,0.0,0.0,0.0,0.0,0.0,0.0,0.0,0.0,0.0,0.0,0.0,0.0,0.0,0.0,0.0,0.0,0.0,0.0,0.0,0.0,0.0,0.0,0.0,0.0,0.0,0.0,0.0,0.0,0.0,0.0,0.0,0.0,0.0,0.0,0.0,0.0,0.0,0.0,0.0,0.0,0.0,0.0,0.0,0.0,0.0,0.0,0.0,0.0,0.0,0.0,0.0,0.0,0.0,0.0,0.0,0.0,0.0,0.0,0.0,0.0,0.0,0.0,0.0,0.0,0.0,0.0,0.0,0.0,0.0,0.0,0.0,0.0,0.0,0.0,-2.0005,-1.7773,-1.4797,-1.1089,-1.3409,-1.5484,0.0,0.0,0.0,0.0,0.0,0.0,0.0,0.0,0.0,0.0,0.0,0.0,0.0,0.0,0.0,0.0,0.0,0.0,0.0,0.0,0.0,0.0,0.0,0.0,0.0,0.0,0.0,0.0,0.0,0.0,0.0,0.0,0.0,0.0,0.0,0.0,0.0,0.0,0.0,0.0,0.0,0.0,0.0,0.0,0.0,0.0,0.0,0.0,0.0,0.0,0.0,0.0,0.0,0.0,0.0,0.0,0.0,0.0,0.0,0.0,0.0,0.0,0.0,0.0,0.0,0.0,0.0,0.0,0.0,0.0,0.0,0.0,0.0,0.0,0.0,0.0,0.0,0.0,0.0,0.0,0.0,0.0,0.0,0.0,0.0,0.0,0.0,0.0,0.0,0.0,0.0,0.0,0.0,0.0,0.0,0.0,0.0,0.0,0.0,0.0,0.0,0.0,0.0,0.0,0.0,0.0,0.0,0.0,-2.3536,-2.1113,-1.9078,-1.6514,-1.3504,-1.46,-1.6049,0.0,0.0,0.0,0.0,0.0,0.0,0.0,0.0,0.0,0.0,0.0,0.0,0.0,0.0,0.0,0.0,0.0,0.0,0.0,0.0,0.0,0.0,0.0,0.0,0.0,0.0,0.0,0.0,0.0,0.0,0.0,0.0,0.0,0.0,0.0,0.0,0.0,0.0,0.0,0.0,0.0,0.0,0.0,0.0,0.0,0.0,0.0,0.0,0.0,0.0,0.0,0.0,0.0,0.0,0.0,0.0,0.0,0.0,0.0,0.0,0.0,0.0,0.0,0.0,0.0,0.0,0.0,0.0,0.0,0.0,0.0,0.0,0.0,0.0,0.0,0.0,0.0,0.0,0.0,0.0,0.0,0.0,0.0,0.0,0.0,0.0,0.0,0.0,0.0,0.0,0.0,0.0,0.0,0.0,0.0,0.0,0.0,0.0,0.0,0.0,0.0,0.0,0.0,0.0,0.0,0.0,0.0,0.0,-2.3971,-2.1551,-2.0276,-1.8879,-1.7416,-1.6562,-1.6593,0.0,0.0,0.0,0.0,0.0,0.0,0.0,0.0,0.0,0.0,0.0,0.0,0.0,0.0,0.0,0.0,0.0,0.0,0.0,0.0,0.0,0.0,0.0,0.0,0.0,0.0,0.0,0.0,0.0,0.0,0.0,0.0,0.0,0.0,0.0,0.0,0.0,0.0,0.0,0.0,0.0,0.0,0.0,0.0,0.0,0.0,0.0,0.0,0.0,0.0,0.0,0.0,0.0,0.0,0.0,0.0,0.0,0.0,0.0,0.0,0.0,0.0,0.0,0.0,0.0,0.0,0.0,0.0,0.0,0.0,0.0,0.0,0.0,0.0,0.0,0.0,0.0,0.0,0.0,0.0,0.0,0.0,0.0,0.0,0.0,0.0,0.0,0.0,0.0,0.0,0.0,0.0,0.0,0.0,0.0,0.0,0.0,0.0,0.0,0.0,0.0,0.0,0.0,0.0,0.0,0.0,0.0,0.0,-2.4921,-2.3688,-2.1314,-1.983,-1.9415,-1.8596,-1.8828,0.0,0.0,0.0,0.0,0.0,0.0,0.0,0.0,0.0,0.0,0.0,0.0,0.0,0.0,0.0,0.0,0.0,0.0,0.0,0.0,0.0,0.0,0.0,0.0,0.0,0.0,0.0,0.0,0.0,0.0,0.0,0.0,0.0,0.0,0.0,0.0,0.0,0.0,0.0,0.0,0.0,0.0,0.0,0.0,0.0,0.0,0.0,0.0,-3.4185,0.0,0.0,0.0,0.0,0.0,0.0,0.0,0.0,0.0,0.0,0.0,0.0,0.0,0.0,0.0,0.0,0.0,0.0,0.0,0.0,0.0,0.0,0.0,0.0,0.0,0.0,0.0,0.0,0.0,0.0,0.0,0.0,0.0,0.0,0.0,0.0,0.0,0.0,0.0,0.0,0.0,0.0,0.0,0.0,0.0,0.0,0.0,0.0,0.0,0.0,0.0,0.0,0.0,0.0,0.0,0.0,0.0,0.0,0.0,-2.5909,-2.5778,-2.2977,-2.139,-2.1365,-2.0641,-2.0667,0.0,0.0,0.0,0.0,0.0,0.0,0.0,0.0,0.0,0.0,0.0,0.0,0.0,0.0,0.0,0.0,0.0,0.0,0.0,0.0,0.0,0.0,0.0,0.0,0.0,0.0,0.0,0.0,0.0,0.0,0.0,0.0,0.0,0.0,0.0,0.0,0.0,0.0,0.0,0.0,0.0,0.0,0.0,0.0,0.0,0.0,0.0,0.0,0.0,0.0,0.0,0.0,0.0,0.0,0.0,0.0,0.0,0.0,0.0,0.0,0.0,0.0,0.0,0.0,0.0,0.0,0.0,0.0,0.0,0.0,0.0,0.0,0.0,0.0,0.0,0.0,0.0,0.0,0.0,0.0,0.0,0.0,0.0,0.0,0.0,0.0,0.0,0.0,0.0,0.0,0.0,0.0,0.0,0.0,0.0,0.0,0.0,0.0,0.0,0.0,0.0,0.0,0.0,0.0,0.0,0.0,0.0,-2.7325,-2.6681,-2.7327,-2.4446,-2.2792,-2.2786,-2.2225,-2.2057,-2.239,0.0,0.0,0.0,0.0,0.0,0.0,0.0,0.0,0.0,0.0,0.0,0.0,0.0,0.0,0.0,0.0,0.0,0.0,0.0,0.0,0.0,0.0,0.0,0.0,0.0,0.0,0.0,0.0,0.0,0.0,0.0,0.0,0.0,0.0,0.0,0.0,0.0,0.0,-4.3545,-4.2636,0.0,0.0,0.0,0.0,0.0,0.0,0.0,0.0,-3.1519,0.0,0.0,0.0,0.0,0.0,0.0,0.0,0.0,0.0,0.0,0.0,0.0,0.0,0.0,0.0,0.0,0.0,0.0,0.0,0.0,0.0,0.0,0.0,0.0,0.0,0.0,0.0,0.0,0.0,0.0,0.0,0.0,0.0,0.0,0.0,0.0,0.0,0.0,0.0,0.0,0.0,0.0,0.0,0.0,0.0,0.0,0.0,0.0,0.0,0.0,0.0,0.0,0.0,0.0,0.0,0.0,-3.1556,-2.8339,-2.6976,-2.7457,-2.423,-2.2492,-2.2478,-2.1931,-2.225,-2.3573,0.0,0.0,0.0,0.0,0.0,0.0,0.0,0.0,0.0,0.0,0.0,0.0,0.0,0.0,0.0,0.0,0.0,0.0,0.0,0.0,0.0,0.0,0.0,0.0,0.0,0.0,0.0,0.0,0.0,0.0,0.0,0.0,0.0,0.0,0.0,0.0,0.0,0.0,0.0,-4.1804,-3.9891,0.0,0.0,0.0,0.0,0.0,0.0,0.0,0.0,-3.2784,0.0,0.0,0.0,0.0,0.0,0.0,0.0,0.0,0.0,0.0,0.0,0.0,0.0,0.0,0.0,0.0,0.0,0.0,0.0,0.0,0.0,0.0,0.0,0.0,0.0,0.0,0.0,0.0,0.0,0.0,0.0,0.0,0.0,0.0,0.0,0.0,0.0,0.0,0.0,0.0,0.0,0.0,0.0,0.0,0.0,0.0,0.0,0.0,0.0,0.0,0.0,0.0,0.0,0.0,0.0,-3.1358,-2.8961,-2.7609,-2.7177,-2.3941,-2.2191,-2.2178,-2.1483,-2.2011,0.0,0.0,0.0,0.0,0.0,0.0,0.0,0.0,0.0,0.0,0.0,0.0,0.0,0.0,0.0,0.0,0.0,0.0,0.0,0.0,0.0,0.0,0.0,0.0,0.0,0.0,0.0,0.0,0.0,0.0,0.0,0.0,0.0,0.0,0.0,0.0,0.0,0.0,0.0,0.0,-4.1714,-3.9971,-3.8926,0.0,0.0,0.0,0.0,0.0,0.0,-3.1791,-3.2918,0.0,0.0,0.0,0.0,0.0,0.0,0.0,0.0,0.0,0.0,0.0,0.0,0.0,0.0,0.0,0.0,0.0,0.0,0.0,0.0,0.0,0.0,0.0,0.0,0.0,0.0,0.0,0.0,0.0,0.0,0.0,0.0,0.0,0.0,0.0,0.0,0.0,0.0,0.0,0.0,0.0,0.0,0.0,0.0,0.0,0.0,0.0,0.0,0.0,0.0,0.0,0.0,0.0,0.0,0.0,-3.1222,-2.9537,-2.8201,-2.7057,-2.371,-2.1897,-2.1877,-2.1411,-2.197,0.0,0.0,0.0,0.0,0.0,0.0,0.0,0.0,0.0,0.0,0.0,0.0,0.0,0.0,0.0,0.0,0.0,0.0,0.0,0.0,0.0,0.0,0.0,0.0,0.0,0.0,0.0,0.0,0.0,0.0,0.0,0.0,0.0,0.0,0.0,0.0,0.0,0.0,0.0,0.0,0.0,-3.9635,-3.6712,-3.4378,0.0,0.0,0.0,0.0,-3.1094,-3.2356,0.0,0.0,0.0,0.0,0.0,0.0,0.0,0.0,0.0,0.0,0.0,0.0,0.0,0.0,0.0,0.0,0.0,0.0,0.0,0.0,0.0,0.0,0.0,0.0,0.0,0.0,0.0,0.0,0.0,0.0,0.0,0.0,0.0,0.0,0.0,0.0,0.0,0.0,0.0,0.0,0.0,0.0,0.0,0.0,0.0,0.0,0.0,0.0,0.0,0.0,0.0,0.0,0.0,0.0,0.0,0.0,-3.2394,-3.0244,-2.8442,-2.7008,-2.3507,-2.1668,-2.1661,-2.2283,-2.2922,0.0,0.0,0.0,0.0,0.0,0.0,0.0,0.0,0.0,0.0,0.0,0.0,0.0,0.0,0.0,0.0,0.0,0.0,0.0,0.0,0.0,0.0,0.0,0.0,0.0,0.0,0.0,0.0,0.0,0.0,0.0,0.0,0.0,0.0,0.0,0.0,0.0,0.0,0.0,0.0,0.0,-3.7057,-3.5178,-3.3403,-3.2116,0.0,0.0,-3.1953,-3.2012,-3.4984,0.0,0.0,0.0,0.0,0.0,0.0,0.0,0.0,0.0,0.0,0.0,0.0,0.0,0.0,0.0,0.0,0.0,0.0,0.0,0.0,0.0,0.0,0.0,0.0,0.0,0.0,0.0,0.0,0.0,0.0,0.0,0.0,0.0,0.0,0.0,0.0,0.0,0.0,0.0,0.0,0.0,0.0,0.0,0.0,0.0,0.0,0.0,0.0,0.0,0.0,0.0,0.0,0.0,0.0,0.0,-3.3704,-3.1816,-3.1129,-2.9354,-2.6529,-2.385,-2.2402,-2.234,-2.2206,-2.2764,0.0,0.0,0.0,0.0,0.0,0.0,0.0,0.0,0.0,0.0,0.0,0.0,0.0,0.0,0.0,0.0,0.0,0.0,0.0,0.0,0.0,0.0,0.0,0.0,0.0,0.0,0.0,0.0,0.0,0.0,0.0,0.0,0.0,0.0,0.0,0.0,0.0,0.0,0.0,0.0,0.0,0.0,-3.4805,-3.3407,0.0,0.0,0.0,-3.2512,-3.3484,0.0,0.0,0.0,0.0,0.0,0.0,0.0,0.0,0.0,0.0,0.0,0.0,0.0,0.0,0.0,0.0,0.0,0.0,0.0,0.0,0.0,0.0,0.0,0.0,0.0,0.0,0.0,0.0,0.0,0.0,0.0,0.0,0.0,0.0,0.0,0.0,0.0,0.0,0.0,0.0,0.0,0.0,0.0,0.0,0.0,0.0,0.0,0.0,0.0,0.0,0.0,0.0,0.0,0.0,0.0,0.0,0.0,-3.102,-3.119,-2.9695,-2.6406,-2.4439,-2.3429,-2.3353,-2.2917,0.0,0.0,0.0,0.0,0.0,0.0,0.0,0.0,0.0,0.0,0.0,0.0,0.0,0.0,0.0,0.0,0.0,0.0,0.0,0.0,0.0,0.0,0.0,0.0,0.0,0.0,0.0,-3.5586,0.0,0.0,0.0,0.0,0.0,0.0,0.0,0.0,0.0,0.0,0.0,0.0,0.0,0.0,-3.6533,-3.4028,-3.3498,-3.3311,0.0,0.0,-3.3947,-3.52,-3.6783,-3.7679,0.0,0.0,0.0,0.0,0.0,0.0,0.0,0.0,0.0,0.0,0.0,0.0,0.0,0.0,0.0,0.0,0.0,0.0,0.0,0.0,0.0,0.0,0.0,0.0,0.0,0.0,0.0,0.0,0.0,0.0,0.0,0.0,0.0,0.0,0.0,0.0,0.0,0.0,0.0,0.0,0.0,0.0,0.0,0.0,0.0,0.0,0.0,0.0,0.0,0.0,0.0,0.0,0.0,0.0,-3.2077,-3.0566,-2.9852,-2.8689,-2.703,-2.5419,-2.4594,-2.4586,-2.5233,-2.5281,0.0,0.0,0.0,0.0,0.0,0.0,0.0,0.0,0.0,0.0,0.0,0.0,0.0,0.0,0.0,0.0,0.0,0.0,0.0,0.0,0.0,0.0,0.0,0.0,0.0,0.0,0.0,0.0,0.0,0.0,0.0,0.0,0.0,0.0,0.0,0.0,0.0,0.0,0.0,0.0,0.0,-3.4701,-3.2068,-3.3486,-3.4999,0.0,-3.6427,-3.7147,-3.7392,-3.9845,-4.0538,-3.711,0.0,0.0,0.0,0.0,0.0,0.0,0.0,0.0,0.0,0.0,0.0,0.0,0.0,0.0,0.0,0.0,0.0,0.0,0.0,0.0,0.0,0.0,0.0,0.0,0.0,0.0,0.0,0.0,0.0,0.0,0.0,0.0,0.0,0.0,0.0,0.0,0.0,0.0,0.0,0.0,0.0,0.0,0.0,0.0,0.0,0.0,0.0,0.0,0.0,0.0,0.0,0.0,0.0,-3.088,-3.0009,-2.993,-2.9006,-2.7152,-2.6311,-2.5783,-2.5427,-2.5519,-2.5395,0.0,0.0,0.0,0.0,0.0,0.0,0.0,0.0,0.0,0.0,0.0,0.0,0.0,0.0,0.0,0.0,0.0,0.0,0.0,0.0,0.0,0.0,0.0,0.0,0.0,0.0,0.0,0.0,-3.4242,-3.3185,-3.205,0.0,0.0,0.0,0.0,0.0,0.0,0.0,0.0,0.0,0.0,-3.5654,-3.4808,-3.6037,0.0,0.0,-3.7451,-3.8184,-3.8942,-3.9588,-3.9619,-3.8179,-3.7805,0.0,0.0,0.0,0.0,0.0,0.0,0.0,0.0,0.0,0.0,0.0,0.0,0.0,0.0,0.0,0.0,0.0,0.0,0.0,0.0,0.0,0.0,0.0,0.0,0.0,0.0,0.0,0.0,0.0,0.0,0.0,0.0,0.0,0.0,0.0,0.0,0.0,0.0,0.0,0.0,0.0,0.0,0.0,0.0,0.0,0.0,0.0,0.0,0.0,0.0,0.0,0.0,-2.9644,-2.9291,-2.9316,-2.8602,-2.7087,-2.6893,-2.6598,-2.6249,-2.5906,-2.5515,0.0,0.0,0.0,0.0,0.0,0.0,0.0,0.0,0.0,0.0,0.0,0.0,0.0,0.0,0.0,0.0,0.0,0.0,0.0,0.0,0.0,0.0,0.0,0.0,0.0,0.0,0.0,0.0,-3.3078,-3.2017,-3.1632,0.0,0.0,0.0,0.0,0.0,0.0,0.0,0.0,0.0,0.0,-3.6154,-3.6421,-3.746,-3.8124,-3.7988,-3.8355,-3.9016,-3.9985,-3.969,-3.9072,-3.8504,0.0,0.0,0.0,0.0,0.0,0.0,0.0,0.0,0.0,0.0,0.0,0.0,0.0,0.0,0.0,0.0,0.0,0.0,0.0,0.0,0.0,0.0,0.0,0.0,0.0,0.0,0.0,-2.5888,0.0,0.0,-2.9047,0.0,0.0,0.0,0.0,0.0,0.0,0.0,0.0,0.0,0.0,0.0,0.0,0.0,0.0,0.0,0.0,0.0,0.0,0.0,0.0,0.0,0.0,-2.8444,-2.8398,-2.7582,-2.706,-2.6997,-2.7019,-2.6968,-2.6939,-2.659,-2.5996,-2.5125,0.0,0.0,0.0,0.0,0.0,0.0,0.0,0.0,0.0,0.0,0.0,0.0,0.0,0.0,0.0,0.0,0.0,0.0,0.0,0.0,0.0,0.0,0.0,0.0,0.0,0.0,-3.1609,-3.092,-3.103,0.0,0.0,0.0,0.0,0.0,0.0,0.0,0.0,0.0,-3.3504,-3.466,-3.5684,-3.5971,-3.7208,-3.8323,-3.8773,-3.9352,-3.9857,-4.0383,-4.042,-3.9721,0.0,0.0,0.0,0.0,0.0,0.0,0.0,0.0,0.0,0.0,0.0,0.0,0.0,0.0,0.0,0.0,0.0,0.0,0.0,0.0,0.0,0.0,0.0,0.0,0.0,0.0,0.0,-2.6269,-2.5936,0.0,0.0,0.0,0.0,0.0,0.0,0.0,0.0,0.0,0.0,0.0,-2.4434,-2.542,0.0,0.0,0.0,0.0,0.0,0.0,0.0,0.0,0.0,0.0,0.0,0.0,-2.811,-2.8331,-2.7207,-2.6728,-2.7002,-2.7012,-2.6885,-2.6611,-2.6455,-2.621,-2.5793,0.0,0.0,0.0,0.0,0.0,0.0,0.0,0.0,0.0,0.0,0.0,0.0,0.0,0.0,0.0,0.0,0.0,0.0,0.0,0.0,0.0,0.0,0.0,0.0,0.0,-3.2388,0.0,0.0,0.0,0.0,0.0,0.0,0.0,0.0,0.0,0.0,0.0,-3.3768,-3.4197,-3.5608,-3.6983,-3.7766,-3.8619,-3.9364,0.0,0.0,0.0,0.0,0.0,0.0,0.0,0.0,0.0,0.0,0.0,0.0,0.0,0.0,-4.1365,-3.8963,-3.8037,-3.804,-3.9453,0.0,0.0,0.0,0.0,0.0,0.0,0.0,0.0,0.0,0.0,0.0,0.0,0.0,0.0,-2.623,0.0,-2.764,0.0,0.0,0.0,0.0,0.0,0.0,0.0,0.0,-2.5662,-2.5293,-2.4893,-2.5883,-2.6155,0.0,-2.7024,-2.7579,0.0,0.0,0.0,0.0,0.0,0.0,0.0,0.0,-2.7042,-2.729,-2.629,-2.584,-2.6094,-2.6113,-2.5977,-2.5713,-2.5566,-2.5587,-2.586,-2.5232,-2.5628,0.0,0.0,0.0,0.0,0.0,0.0,0.0,0.0,0.0,0.0,0.0,0.0,0.0,0.0,0.0,0.0,0.0,0.0,0.0,0.0,0.0,0.0,0.0,-3.1267,0.0,0.0,0.0,0.0,0.0,0.0,0.0,0.0,0.0,-3.2736,-3.3106,-3.3834,-3.5127,-3.6383,-3.7513,-3.8442,0.0,0.0,0.0,0.0,0.0,0.0,0.0,-3.7412,-3.6556,-3.6232,-3.5947,-3.5558,-3.6862,-3.7848,-3.7317,0.0,0.0,-3.8984,-3.868,-3.911,-4.0508,-4.0339,-3.9707,-3.8888,-3.8309,-3.776,0.0,0.0,0.0,0.0,0.0,0.0,0.0,0.0,-2.6621,-2.6426,0.0,-2.6709,0.0,0.0,0.0,0.0,0.0,-2.7117,0.0,0.0,-2.5937,-2.6143,-2.5684,-2.5723,-2.5508,-2.5222,-2.6757,-2.7024,-2.6246,-2.7875,0.0,0.0,0.0,0.0,0.0,0.0,-2.537,-2.5411,-2.4811,-2.4434,-2.4453,-2.4453,-2.4443,-2.4434,-2.4088,-2.4391,-2.5359,-2.6059,-2.6725,-2.7284,-2.7779,0.0,0.0,0.0,0.0,0.0,0.0,0.0,0.0,0.0,0.0,0.0,0.0,0.0,0.0,0.0,0.0,0.0,0.0,0.0,0.0,-3.1136,0.0,0.0,0.0,0.0,0.0,0.0,0.0,0.0,0.0,0.0,-3.2281,-3.3181,-3.4487,-3.6091,0.0,0.0,0.0,0.0,-3.7939,-3.799,-3.7538,-3.7224,-3.7224,-3.7186,-3.6973,-3.6493,0.0,0.0,-3.5771,-3.6935,-3.7861,-3.744,-3.8317,-3.9487,-4.1214,-4.2177,-4.3026,-4.3215,-4.1814,-4.0709,-4.0531,-3.925,-3.8243,-2.5534,0.0,0.0,0.0,0.0,-2.7148,-2.7363,-2.79,-2.7471,-2.6953,-2.6467,-2.7275,0.0,0.0,0.0,0.0,0.0,0.0,-2.5545,-2.5145,-2.5664,-2.581,-2.5684,-2.5684,-2.5674,-2.5547,-2.5993,-2.6116,-2.5857,-2.6834,-2.7404,-2.7569,0.0,0.0,0.0,0.0,-2.537,-2.5357,-2.4726,-2.4424,-2.4424,-2.4424,-2.4424,-2.4414,-2.4751,-2.5073,-2.5413,-2.6112,-2.6725,-2.7257,-2.745,0.0,0.0,0.0,0.0,0.0,0.0,0.0,0.0,0.0,0.0,0.0,0.0,0.0,0.0,0.0,0.0,0.0,0.0,0.0,-3.0535,-3.0514,-3.0747,0.0,0.0,0.0,0.0,0.0,0.0,0.0,0.0,0.0,-3.2315,-3.3194,-3.4073,0.0,0.0,-3.5629,-3.6135,-3.6197,-3.6521,-3.7299,-3.7287,0.0,-3.7186,-3.6908,-3.6593,-3.643,-3.6857,-3.7199,-3.7287,-3.7999,-3.8392,-3.7905,-3.9005,-4.0097,-4.0179,-4.1229,-4.2327,-4.2981,-4.2225,-4.1355,-4.1231,-3.9886,-3.8737,-2.5522,-2.5783,-2.7127,-2.7728,-2.7646,-2.7393,-2.7656,-2.8252,-2.7666,-2.7217,-2.6896,-2.7041,-2.6645,-2.5966,-2.626,0.0,0.0,0.0,-2.5166,-2.5342,-2.5605,-2.5684,-2.5684,-2.5684,-2.5684,-2.5684,-2.5557,-2.5469,-2.5469,-2.5534,-2.5654,-2.5806,0.0,0.0,-2.5808,-2.4962,-2.451,-2.4476,-2.4073,-2.3871,-2.3916,-2.3861,-2.4122,-2.454,-2.4928,-2.5551,-2.6435,-2.6918,-2.7514,-2.8266,-2.8074,-2.8238,0.0,0.0,0.0,0.0,0.0,0.0,0.0,0.0,0.0,0.0,0.0,-3.4247,-3.32,0.0,0.0,0.0,-3.1033,-3.0671,-3.0185,-3.0419,0.0,0.0,0.0,0.0,0.0,0.0,0.0,-3.2291,-3.3462,-3.4153,-3.3564,-3.4225,-3.4654,-3.4294,-3.4467,-3.4793,-3.5119,0.0,-3.5408,-3.6107,-3.6207,-3.6207,-3.6207,-3.6278,-3.6482,-3.691,-3.6889,-3.7132,-3.7846,-3.8251,-3.8487,-3.8705,-3.948,-4.0201,-4.0275,-4.0992,-4.1704,-4.238,-4.2011,-4.1529,-4.1529,-4.0277,-3.9186,-2.6424,-2.6354,-2.7285,-2.7685,-2.7767,-2.7738,-2.7891,-2.8174,-2.7373,-2.7217,-2.7523,-2.6309,-2.5723,-2.5635,-2.4893,0.0,-2.5165,-2.5174,-2.5342,-2.5684,-2.5684,-2.5664,-2.5684,-2.5635,-2.5625,-2.5567,-2.5215,-2.5067,-2.5028,-2.4274,-2.3828,-2.3834,-2.4774,-2.5053,-2.4606,-2.3637,-2.3101,-2.3101,-2.3101,-2.3101,-2.3101,-2.3101,-2.3637,-2.4755,-2.4861,-2.5953,-2.7976,-2.8176,-2.8727,-2.9689,-2.9277,-2.8737,-2.8221,0.0,0.0,0.0,0.0,0.0,0.0,0.0,0.0,0.0,0.0,0.0,0.0,0.0,0.0,0.0,-2.9694,0.0,-3.0495,-3.0624,0.0,0.0,0.0,-3.1365,-3.1553,-3.2814,-3.3905,-3.4524,0.0,0.0,-3.5394,-3.5839,-3.5845,-3.4895,-3.4761,-3.4856,-3.4862,-3.4997,-3.492,-3.5181,-3.5053,-3.4996,-3.5347,-3.5955,-3.683,-3.7614,-3.7053,-3.6917,-3.767,-3.8007,-3.8419,-3.9233,-3.956,-3.9857,-4.1039,-4.1099,-4.1235,-4.122,-4.1354,-4.1429,-4.1345,-4.0466,-3.9683,-2.6995,-2.7751,-2.7727,-2.7851,-2.8115,-2.7793,-2.7777,-2.7764,-2.7246,-2.6894,-2.667,-2.6357,-2.6055,-2.5674,-2.5469,-2.543,-2.5586,-2.5586,-2.5586,-2.5684,-2.5684,-2.5557,-2.5234,-2.5225,-2.5059,-2.4736,-2.4629,-2.457,-2.457,-2.4365,-2.4102,-2.3844,-2.4048,-2.3954,-2.3484,-2.3212,-2.3101,-2.3101,-2.3101,-2.3101,-2.3101,-2.3101,-2.3637,-2.4798,-2.563,-2.6707,-2.8044,-2.8937,-2.9534,-2.9779,-2.9666,-2.9327,-2.8737,-2.8014,0.0,0.0,0.0,0.0,0.0,0.0,0.0,0.0,0.0,-3.2525,-3.0235,0.0,-3.0704,0.0,-2.9019,-2.9377,-2.993,-3.0624,0.0,0.0,-3.2141,-3.2737,-3.3959,-3.4189,-3.4288,-3.458,-3.5432,-3.5864,-3.5449,-3.5852,-3.5945,-3.5291,-3.5575,-3.6007,-3.6411,-3.6547,-3.6668,-3.6974,-3.7012,-3.7138,-3.7097,-3.7336,-3.7562,-3.784,-3.7673,-3.7645,-3.784,-3.8232,-3.8628,-3.8874,-3.9232,-3.9535,-3.9845,-3.9888,-3.9903,-3.9963,-4.0666,-4.1422,-4.1384,-4.0739,-4.0165,-2.7571,-2.7998,-2.7816,-2.7695,-2.7705,-2.7471,-2.7373,-2.7344,-2.6924,-2.6602,-2.6377,-2.6191,-2.5918,-2.5693,-2.5684,-2.5684,-2.5684,-2.5684,-2.5684,-2.5674,-2.5527,-2.541,-2.5352,-2.4961,-2.4756,-2.4697,-2.4316,-2.4141,-2.4121,-2.3945,-2.3686,-2.3496,-2.3496,-2.3335,-2.3101,-2.3101,-2.3101,-2.3101,-2.3101,-2.3101,-2.3135,-2.3584,-2.4382,-2.5546,-2.6625,-2.7589,-2.8402,-2.9071,-2.9289,-2.9051,-2.9038,-2.8787,-2.821,-2.7487,-2.7167,0.0,0.0,0.0,0.0,0.0,0.0,0.0,0.0,0.0,0.0,0.0,-2.9282,-2.8403,-2.8464,-2.9075,-3.0304,-3.0857,-3.1573,-3.25,-3.2593,-3.3233,-3.4836,-3.4789,-3.4971,-3.5741,-3.6372,-3.6622,-3.6306,-3.655,-3.6636,-3.627,-3.6779,-3.694,-3.6439,-3.6503,-3.6807,-3.7097,-3.7138,-3.7355,-3.7786,-3.7436,-3.7476,-3.8303,-3.8184,-3.7971,-3.846,-3.8799,-3.8998,-3.9021,-3.9217,-3.9388,-3.9388,-3.9388,-3.9388,-3.9478,-3.9993,-4.0457,-4.0502,-4.0232,-3.9963,-2.7969,-2.7578,-2.7529,-2.7285,-2.6934,-2.6875,-2.6885,-2.6904,-2.6494,-2.6309,-2.6279,-2.5849,-2.5684,-2.5684,-2.5684,-2.5684,-2.5684,-2.5684,-2.5684,-2.5654,-2.5273,-2.5254,-2.5527,-2.4717,-2.4502,-2.4832,-2.4062,-2.3701,-2.3691,-2.3286,-2.3101,-2.3101,-2.3101,-2.3071,-2.3023,-2.3013,-2.3042,-2.3091,-2.3101,-2.3101,-2.3135,-2.4092,-2.5147,-2.6341,-2.7308,-2.8117,-2.8775,-2.8787,-2.8562,-2.8147,-2.8109,-2.7883,-2.7406,-2.6839,-2.6553,0.0,-2.6086,0.0,0.0,0.0,0.0,0.0,0.0,0.0,0.0,-2.8065,-2.7734,-2.7994,-2.8122,-2.898,-3.0908,-3.1275,-3.1742,-3.2664,-3.2876,-3.3564,-3.4995,-3.5201,-3.576,-3.7212,-3.7404,-3.737,-3.7366,-3.7404,-3.737,-3.7222,-3.7784,-3.7636,-3.6128,-3.6343,-3.683,-3.659,-3.659,-3.7278,-3.7868,-3.7323,-3.74,-3.89,-3.8686,-3.8316,-3.9066,-3.9218,-3.9254,-3.9254,-3.9224,-3.929,-3.9358,-3.9388,-3.9388,-3.9388,-3.9463,-3.9493,-3.9478,-3.9478,-3.9388,-2.7539,-2.7109,-2.6768,-2.6582,-2.6484,-2.6133,-2.6182,-2.6475,-2.6045,-2.5859,-2.5801,-2.5723,-2.5684,-2.5684,-2.5684,-2.5684,-2.5684,-2.5684,-2.5684,-2.5723,-2.5273,-2.4922,-2.4648,-2.415,-2.376,-2.3461,-2.3296,-2.3218,-2.3218,-2.314,-2.3101,-2.3101,-2.3101,-2.2925,-2.2646,0.0,0.0,0.0,-2.3101,-2.3101,-2.3101,-2.3299,-2.4164,-2.5717,-2.5976,0.0,-2.8138,-2.8247,-2.821,-2.8109,-2.8109,0.0,0.0,0.0,0.0,0.0,0.0,0.0,0.0,0.0,0.0,0.0,-2.6165,-2.6388,-2.7075,-2.727,-2.7369,-2.748,-2.8247,-2.9248,-3.0421,-3.1631,-3.2713,-3.3622,-3.4428,-3.5285,-3.6123,-3.6212,-3.6533,-3.728,-3.7389,-3.7389,-3.736,-3.7404,-3.7195,-3.6791,-3.7644,-3.7968,-3.7092,-3.7892,-3.8701,-3.8767,-3.8532,-3.8789,-3.9053,-3.8796,-3.8613,-3.9316,-3.9265,-3.8939,-3.862,-3.8586,-3.8586,-3.8586,-3.8586,-3.8766,-3.9275,-3.9388,-3.9298,-3.9373,-3.9358,-3.9388,-3.9388,-3.9373,-3.9388,-2.71,0.0,-2.6475,-2.6269,0.0,-2.5791,-2.581,-2.6045,-2.5791,-2.5684,-2.5684,-2.5684,-2.5684,-2.5684,-2.5684,-2.5684,-2.5684,-2.5684,-2.5615,-2.5381,-2.4951,-2.4639,-2.4348,-2.3769,-2.3422,-2.3457,-2.3208,-2.2994,-2.2799,-2.2779,-2.2682,-2.2529,-2.2519,-2.2412,-2.2207,-2.2197,-2.2305,-2.2519,-2.2519,-2.2519,-2.2519,-2.303,-2.3681,-2.4537,-2.5125,0.0,0.0,0.0,0.0,0.0,0.0,0.0,0.0,0.0,0.0,-2.6474,-2.5971,-2.5636,-2.5636,-2.5624,-2.5749,-2.6034,-2.6025,-2.6215,-2.6591,-2.6781,-2.7027,-2.7291,-2.8165,-2.9229,-3.0508,-3.1647,-3.2711,-3.3659,-3.4233,-3.4771,-3.5387,-3.5522,-3.5791,-3.6327,-3.6462,-3.6462,-3.6462,-3.6462,-3.6357,-3.6118,-3.6836,-3.7345,-3.7195,-3.8377,-3.932,-3.896,-3.8601,-3.8437,-3.8437,-3.8422,-3.8437,-3.8387,-3.8422,-3.8287,-3.7973,-3.7898,-3.7898,-3.7898,-3.7898,-3.8048,-3.8317,-3.8437,-3.8387,-3.8402,-3.8387,-3.8387,-3.8452,-3.8676,-3.8796,-2.666,-2.6279,-2.6269,-2.6064,-2.5684,-2.5684,-2.5684,-2.5684,0.0,0.0,0.0,-2.5684,-2.5684,-2.5684,-2.5684,-2.5684,-2.5684,-2.5606,-2.542,-2.5086,-2.4541,-2.4307,-2.4268,-2.3461,-2.332,-2.3652,-2.3188,-2.2808,-2.251,-2.2441,-2.2227,-2.1914,-2.1936,-2.1846,-2.1768,-2.1884,-2.1845,-2.1701,-2.1816,-2.1999,-2.2154,-2.2849,-2.3261,-2.3377,-2.4442,-2.4761,-2.4179,-2.5307,-2.5637,-2.5076,-2.5955,-2.6487,-2.6487,-2.6487,-2.6487,-2.6487,-2.6399,-2.6386,-2.6474,-2.6399,-2.6386,-2.6487,-2.6487,-2.6487,-2.6487,-2.6487,-2.6675,-2.7128,-2.7855,-2.8923,-3.049,-3.1401,-3.2315,-3.3376,-3.3499,-3.3739,-3.4264,-3.4339,-3.4607,-3.5175,-3.5355,-3.5385,-3.5534,-3.5564,-3.5489,-3.5594,-3.6163,-3.6585,-3.6806,-3.8003,-3.8766,-3.8287,-3.7853,-3.7464,-3.7419,-3.7479,-3.7404,-3.7509,-3.7479,-3.7375,-3.727,-3.724,-3.724,-3.724,-3.724,-3.7315,-3.7389,-3.7509,-3.7404,-3.7404,-3.7404,-3.736,-3.7315,-3.7659,-3.7898,-2.623,-2.5771,-2.5781,-2.5742,-2.5684,-2.5684,-2.5684,-2.5684,-2.5684,-2.5684,-2.5684,-2.5684,-2.5684,-2.5684,-2.5684,-2.5684,-2.5664,-2.5332,-2.5174,-2.5067,-2.4248,-2.3877,-2.3848,-2.3335,-2.313,-2.3149,-2.276,-2.2578,-2.248,-2.2139,-2.1934,-2.1885,-2.1936,-2.1689,-2.1368,-2.1761,-2.1568,-2.0811,-2.1504,-2.2308,-2.305,-2.2452,-2.2362,-2.2817,-2.3831,-2.4104,-2.3686,-2.5396,-2.5947,-2.5087,-2.5955,-2.6487,-2.6487,-2.6474,-2.6487,-2.6461,-2.6034,-2.5971,-2.6436,-2.6021,-2.5971,-2.6436,-2.6487,-2.6487,-2.6487,-2.6487,-2.6524,-2.6625,-2.7177,-2.8187,-2.9888,-3.0618,-3.162,-3.3133,-3.3484,-3.3544,-3.3619,-3.3665,-3.3888,-3.4563,-3.4653,-3.4893,-3.5295,-3.5429,-3.5444,-3.5579,-3.5968,-3.6611,-3.7015,-3.7479,-3.7644,-3.7569,-3.7479,-3.7404,-3.727,-3.7375,-3.7285,-3.7404,-3.7315,-3.7105,-3.6671,-3.6596,-3.6611,-3.6611,-3.6611,-3.6791,-3.7195,-3.7404,-3.73,-3.7255,-3.724,-3.715,-3.6716,-3.6746,-3.6896,-2.5918,-2.5693,-2.5684,-2.5684,-2.5684,-2.5684,-2.5684,-2.5684,-2.5684,-2.5684,-2.5684,-2.5684,-2.5684,-2.5684,-2.5684,-2.5547,-2.5361,-2.5204,-2.4861,-2.4401,-2.3965,-2.3662,-2.3428,-2.3179,-2.2984,-2.275,-2.2565,-2.2275,-2.1795,-2.1621,-2.1416,-2.1231,-2.1212,-2.1323,-2.1612,-2.1371,-2.127,-2.1385,-2.1752,-2.2171,-2.259,-2.2181,-2.2312,-2.3113,-2.359,-2.3724,-2.3526,-2.4921,-2.5488,-2.5004,-2.5647,-2.5988,-2.6021,-2.5737,-2.5573,-2.5561,-2.5322,-2.5285,-2.5561,-2.5586,-2.5711,-2.5996,-2.6323,-2.6487,-2.6487,-2.6487,-2.6487,-2.6533,-2.7126,-2.7842,-2.8683,-2.9405,-3.0347,-3.161,-3.1777,-3.2091,-3.2795,-3.2961,-3.323,-3.3814,-3.3948,-3.4068,-3.4367,-3.4726,-3.4951,-3.5028,-3.5519,-3.6058,-3.6327,-3.6372,-3.6507,-3.6791,-3.6611,-3.6402,-3.6387,-3.6387,-3.6372,-3.6372,-3.6372,-3.6267,-3.5983,-3.5953,-3.5968,-3.5953,-3.5968,-3.6058,-3.6357,-3.6372,-3.6387,-3.6372,-3.6372,-3.6222,-3.6013,-3.5953,-3.6073,-2.5684,-2.5684,-2.5684,-2.5684,-2.5684,-2.5684,-2.5684,-2.5684,-2.5684,-2.5684,-2.5684,-2.5684,-2.5684,-2.5684,-2.5586,-2.54,-2.5125,-2.491,-2.4424,-2.3828,-2.3682,-2.3467,-2.312,-2.3101,-2.2877,-2.2539,-2.2422,-2.1973,-2.1268,-2.1103,-2.0918,-2.0635,-2.0615,-2.0972,-2.1669,-2.1413,-2.1527,-2.2,-2.243,-2.2563,-2.2317,-2.2328,-2.2739,-2.3441,-2.3584,-2.3539,-2.3383,-2.439,-2.4846,-2.4671,-2.5133,-2.5423,-2.5398,-2.5046,-2.48,-2.4775,-2.4662,-2.4644,-2.4637,-2.5134,-2.5473,-2.5598,-2.6047,-2.6348,-2.6474,-2.6373,-2.6361,-2.653,-2.7053,-2.7464,-2.7815,-2.8519,-2.9348,-3.0163,-3.048,-3.1145,-3.2065,-3.2258,-3.2512,-3.314,-3.326,-3.332,-3.3529,-3.3933,-3.4264,-3.4337,-3.4726,-3.5026,-3.504,-3.504,-3.531,-3.5759,-3.5714,-3.5594,-3.5489,-3.5549,-3.5564,-3.5489,-3.5549,-3.5594,-3.5549,-3.5519,-3.5504,-3.5549,-3.5534,-3.5474,-3.534,-3.5295,-3.5235,-3.5115,-3.5055,-3.5026,-3.4996,-3.4981,-3.513,-2.5684,-2.5684,-2.5684,-2.5684,-2.5684,-2.5684,-2.5684,-2.5684,-2.5684,-2.5684,-2.5684,-2.5684,-2.5674,-2.5625,-2.5312,-2.5155,-2.5018,-2.4258,-2.3867,-2.374,-2.3335,-2.313,-2.3091,-2.3091,-2.2867,-2.25,-2.2119,-2.1699,-2.1151,-2.082,-2.0644,-2.0615,-2.0615,-2.0673,-2.0934,-2.2376,-2.2776,-2.2065,-2.3818,-2.4301,-2.3441,-2.3368,-2.3404,-2.3478,-2.392,-2.3677,-2.2984,-2.4109,-2.439,-2.3633,-2.4407,-2.4863,-2.4883,-2.48,-2.4788,-2.475,-2.4343,-2.4079,-2.4104,-2.455,-2.5084,-2.5536,-2.5636,-2.5946,-2.6386,-2.6021,-2.5912,-2.6382,-2.6589,-2.6888,-2.765,-2.8395,-2.9192,-3.0086,-3.0777,-3.1482,-3.1586,-3.16,-3.1839,-3.2512,-3.2602,-3.2811,-3.326,-3.3499,-3.3589,-3.3694,-3.3829,-3.3933,-3.3918,-3.3903,-3.4068,-3.4651,-3.5055,-3.54,-3.5415,-3.5489,-3.5325,-3.537,-3.5444,-3.534,-3.5265,-3.531,-3.5459,-3.51,-3.5325,-3.5115,-3.4756,-3.4578,-3.4414,-3.4098,-3.3933,-3.3769,-3.3694,-3.3799,-3.4008,-2.5684,-2.5684,-2.5684,-2.5684,-2.5684,-2.5684,-2.5684,-2.5684,-2.5684,-2.5684,-2.5645,-2.5459,-2.5342,-2.5332,-2.5146,-2.4851,-2.4297,-2.3945,-2.3643,-2.3408,-2.3169,-2.3101,-2.3071,-2.2828,-2.2549,-2.2129,-2.1709,-2.1269,-2.0879,-2.0693,-2.0867,-2.1308,-2.0895,-2.1155,-2.2226,-2.2515,-2.2392,-2.2075,-2.3404,-2.3891,-2.3602,-2.3786,-2.4167,-2.4665,-2.4618,-2.4384,-2.4059,-2.4517,-2.4613,-2.4239,-2.4283,-2.4299,-2.433,-2.4017,-2.3797,-2.3772,-2.3584,-2.3459,-2.3459,-2.4017,-2.4418,-2.4632,-2.5247,-2.5711,-2.5925,-2.6072,-2.626,-2.6411,-2.6185,-2.6253,-2.693,-2.7317,-2.8051,-2.9254,-2.9827,-3.0434,-3.1409,-3.1496,-3.163,-3.1869,-3.1914,-3.1989,-3.2303,-3.2647,-3.3051,-3.338,-3.3484,-3.344,-3.3469,-3.3499,-3.3604,-3.3844,-3.4158,-3.4472,-3.4756,-3.4532,-3.4397,-3.4352,-3.4322,-3.4322,-3.4382,-3.4337,-3.4307,-3.4352,-3.4412,-3.4337,-3.3963,-3.3903,-3.3784,-3.3455,-3.3484,-3.3499,-3.3499,-3.3499,-3.3544,-2.5684,-2.5684,-2.5684,-2.5684,-2.5684,-2.5684,-2.5684,-2.5684,-2.5684,-2.5625,-2.5527,-2.5205,-2.4979,-2.4783,-2.4763,-2.4411,-2.3818,-2.3662,-2.3403,-2.311,-2.3101,-2.3101,-2.3052,-2.2705,-2.2295,-2.1875,-2.1414,-2.1016,-2.0654,-2.0615,-2.0934,-2.1413,-2.0934,-2.1308,-2.2489,-2.214,-2.214,-2.2478,-2.3415,-2.3967,-2.4106,-2.4267,-2.4768,-2.5457,-2.4946,-2.4594,-2.4562,-2.4412,-2.4336,-2.4311,-2.3935,-2.3766,-2.374,-2.3333,-2.3095,-2.3095,-2.3095,-2.3095,-2.3108,-2.3527,-2.3828,-2.4042,-2.4757,-2.5222,-2.5398,-2.5636,-2.5883,-2.5984,-2.5624,-2.5649,-2.642,-2.6905,-2.7736,-2.8876,-2.9317,-3.0238,-3.1307,-3.1496,-3.1496,-3.1496,-3.157,-3.1496,-3.157,-3.1929,-3.2378,-3.2781,-3.2901,-3.2961,-3.2961,-3.2916,-3.2961,-3.3155,-3.3095,-3.332,-3.3978,-3.3933,-3.3529,-3.3499,-3.3604,-3.3634,-3.3499,-3.3514,-3.3529,-3.3888,-3.3604,-3.338,-3.326,-3.323,-3.3125,-3.3006,-3.2961,-3.2961,-3.2781,-3.2916,-3.2751,-2.5684,-2.5684,-2.5684,-2.5684,-2.5684,-2.5684,-2.5684,-2.5684,-2.5664,-2.5498,-2.5204,-2.5039,-2.4656,-2.3916,-2.3906,-2.3828,-2.373,-2.3379,-2.314,-2.3101,-2.3101,-2.3101,-2.3071,-2.2672,-2.2295,-2.1865,-2.1387,-2.0967,-2.0625,-2.0605,-2.0595,-2.0683,-2.0644,-2.0634,-2.1039,-2.1773,-2.2478,-2.3368,-2.4266,-2.5012,-2.5268,-2.4937,-2.4842,-2.5261,-2.4582,-2.4029,-2.3991,-2.3484,-2.3208,-2.3195,-2.3208,-2.3158,-2.3158,-2.312,-2.3095,-2.3095,-2.3095,-2.3095,-2.3095,-2.3158,-2.3384,-2.3879,-2.4104,-2.433,-2.477,-2.4607,-2.4619,-2.485,-2.5073,-2.5484,-2.6485,-2.7577,-2.8556,-2.9002,-3.0359,-3.1131,-3.1467,-3.1496,-3.1496,-3.1496,-3.1496,-3.1496,-3.1496,-3.1525,-3.163,-3.172,-3.166,-3.1705,-3.1795,-3.172,-3.1974,-3.2243,-3.2183,-3.2049,-3.3215,-3.3245,-3.329,-3.323,-3.3066,-3.335,-3.3469,-3.3499,-3.344,-3.3395,-3.323,-3.2991,-3.2706,-3.2437,-3.2243,-3.2093,-3.1929,-3.1869,-3.2079,-3.1735,-3.169,-2.5684,-2.5684,-2.5684,-2.5684,-2.5684,-2.5684,-2.5684,-2.5664,-2.543,-2.5225,-2.5037,-2.4502,-2.4072,-2.3769,-2.3496,-2.3369,-2.3359,-2.3159,-2.3101,-2.3101,-2.3101,-2.3101,-2.3023,-2.2451,-2.2051,-2.1807,-2.1152,-2.0762,-2.0635,-2.0615,-2.0615,-2.0615,-2.0615,-2.0857,-2.1555,-2.2478,-2.3147,-2.3517,-2.4178,-2.4548,-2.457,-2.3264,-2.2888,-2.3664,-2.3548,-2.3409,-2.3421,-2.3208,-2.3095,-2.3095,-2.3095,-2.3095,-2.3095,-2.3095,-2.3095,-2.3095,-2.3095,-2.3095,-2.3095,-2.3095,-2.317,-2.3409,-2.3803,-2.4042,-2.428,-2.4431,-2.4587,-2.4859,-2.5672,-2.6343,-2.6641,-2.7196,-2.7855,-2.8876,-2.9535,-3.045,-3.1204,-3.1496,-3.1496,-3.1496,-3.1496,-3.1496,-3.1496,-3.1496,-3.1496,-3.1496,-3.1496,-3.1496,-3.1496,-3.1496,-3.1615,-3.1765,-3.1675,-3.1645,-3.2019,-3.2198,-3.2198,-3.2198,-3.2168,-3.2183,-3.2258,-3.2363,-3.2303,-3.2422,-3.2437,-3.2407,-3.2019,-3.1974,-3.175,-3.169,-3.1496,-3.1496,-3.1511,-3.1496,-3.1496,-2.5684,-2.5684,-2.5684,-2.5684,-2.5684,-2.5684,-2.5606,-2.5498,-2.5195,-2.4959,-2.4626,-2.4033,-2.3721,-2.3555,-2.3218,-2.3101,-2.3101,-2.3101,-2.3101,-2.3101,-2.3101,-2.3101,-2.2955,-2.2285,-2.1936,-2.1748,-2.1026,-2.0615,-2.0615,-2.0615,-2.0615,-2.0615,-2.0857,-2.1336,-2.2075,-2.2988,-2.3624,-2.3908,-2.3874,-2.3942,-2.408,-2.2628,-2.2027,-2.2737,-2.3009,-2.2944,-2.2732,-2.2944,-2.3095,-2.3095,-2.3095,-2.3095,-2.3095,-2.3095,-2.3095,-2.3095,-2.3095,-2.3095,-2.3095,-2.3095,-2.3095,-2.312,-2.3446,-2.3715,-2.3722,-2.4023,-2.4211,-2.4551,-2.5721,-2.6665,-2.6746,-2.7059,-2.7887,-2.9192,-2.9628,-3.0238,-3.1307,-3.1496,-3.1496,-3.1496,-3.1496,-3.1496,-3.1496,-3.1496,-3.1496,-3.1496,-3.1496,-3.1496,-3.1496,-3.1496,-3.1496,-3.1496,-3.1525,-3.1511,-3.169,-3.1765,-3.1765,-3.175,-3.1765,-3.1585,-3.1496,-3.1496,-3.1496,-3.1496,-3.1496,-3.1496,-3.1496,-3.1496,-3.1496,-3.1496,-3.1496,-3.1496,-3.1496,-3.1496,-3.1481,-2.5684,-2.5684,-2.5684,-2.5684,-2.5674,-2.5635,-2.5459,-2.5146,-2.5067,-2.4541,-2.3984,-2.3769,-2.3516,-2.3188,-2.311,-2.3101,-2.3101,-2.3101,-2.3101,-2.3101,-2.3101,-2.3101,-2.3042,-2.2275,-2.1816,-2.176,-2.1006,-2.0615,-2.0615,-2.0605,-2.0605,-2.0828,-2.1517,-2.1924,-2.2075,-2.3147,-2.4036,-2.4364,-2.3698,-2.3673,-2.4418,-2.3236,-2.2599,-2.2935,-2.2987,-2.2659,-2.2002,-2.2702,-2.3095,-2.3095,-2.3095,-2.3095,-2.3095,-2.3095,-2.3095,-2.3095,-2.3095,-2.3095,-2.3095,-2.3095,-2.3095,-2.3108,-2.3133,-2.3195,-2.3233,-2.3246,-2.3271,-2.3556,-2.4905,-2.61,-2.6485,-2.7777,-2.9167,-3.0163,-3.0673,-3.1131,-3.1409,-3.1496,-3.1496,-3.1496,-3.1496,-3.1496,-3.1496,-3.1496,-3.1496,-3.1496,-3.1496,-3.1496,-3.1496,-3.1496,-3.1496,-3.1496,-3.1496,-3.1496,-3.1496,-3.1511,-3.1511,-3.1525,-3.1555,-3.1496,-3.1496,-3.1496,-3.1496,-3.1496,-3.1496,-3.1496,-3.1496,-3.1496,-3.1496,-3.1496,-3.1496,-3.1496,-3.1481,-3.1466,-3.1436,-2.5684,-2.5684,-2.5684,-2.5684,-2.5693,-2.541,-2.5185,-2.5047,-2.4463,-2.4033,-2.3769,-2.3477,-2.3208,-2.312,-2.3101,-2.3101,-2.3101,-2.3101,-2.3091,-2.3091,-2.3091,-2.3091,-2.2925,-2.2266,-2.1613,-2.1075,-2.0762,-2.0615,-2.0615,-2.0605,-2.0895,-2.1517,-2.1849,-2.2366,-2.3073,-2.4,-2.4445,-2.398,-2.4159,-2.4147,-2.376,-2.2727,-2.22,-2.2242,-2.2292,-2.2125,-2.197,-2.2671,-2.3065,-2.3095,-2.3095,-2.3095,-2.3095,-2.3095,-2.3095,-2.3095,-2.3095,-2.3095,-2.3095,-2.3095,-2.3095,-2.3095,-2.3095,-2.3095,-2.3095,-2.3095,-2.3095,-2.3236,-2.4546,-2.5778,-2.6925,-2.8308,-2.9541,-3.0211,-3.0524,-3.0999,-3.1409,-3.1496,-3.1496,-3.1496,-3.1496,-3.1496,-3.1496,-3.1496,-3.1496,-3.1496,-3.1496,-3.1496,-3.1496,-3.1496,-3.1496,-3.1496,-3.1496,-3.1496,-3.1496,-3.1496,-3.1496,-3.1496,-3.1496,-3.1496,-3.1496,-3.1496,-3.1496,-3.1496,-3.1496,-3.1496,-3.1496,-3.1496,-3.1496,-3.1496,-3.1496,-3.1481,-3.1436,-3.1406,-3.1361,-2.5684,-2.5684,-2.5684,-2.5586,-2.5469,-2.5176,-2.493,-2.4597,-2.4033,-2.3701,-2.3516,-2.3227,-2.3101,-2.3101,-2.3101,-2.3101,-2.3101,-2.3101,-2.3003,-2.2925,-2.3052,-2.3013,-2.2779,-2.2041,-2.1289,-2.0732,-2.0615,-2.0615,-2.0605,-2.0962,-2.1403,-2.1962,-2.2728,-2.3404,-2.4108,-2.4992,-2.5098,-2.4413,-2.4292,-2.4067,-2.3454,-2.2476,-2.2044,-2.2292,-2.2353,-2.2353,-2.2384,-2.2854,-2.3095,-2.3095,-2.3095,-2.3095,-2.3095,-2.3095,-2.3095,-2.3095,-2.3095,-2.3095,-2.3095,-2.3095,-2.3095,-2.3095,-2.3095,-2.3095,-2.3095,-2.3095,-2.3095,-2.3278,-2.4675,-2.6013,-2.6994,-2.8742,-2.9856,-3.0338,-3.0661,-3.094,-3.1409,-3.1496,-3.1496,-3.1496,-3.1496,-3.1496,-3.1496,-3.1496,-3.1496,-3.1496,-3.1496,-3.1496,-3.1496,-3.1496,-3.1496,-3.1496,-3.1496,-3.1496,-3.1496,-3.1496,-3.1496,-3.1496,-3.1496,-3.1496,-3.1496,-3.1496,-3.1496,-3.1496,-3.1496,-3.1496,-3.1496,-3.1496,-3.1496,-3.1496,-3.1496,-3.1481,-3.1451,-3.1316,-3.1271,-2.5684,-2.5684,-2.5654,-2.5449,-2.5155,-2.5018,-2.4521,-2.3896,-2.374,-2.3516,-2.3179,-2.311,-2.3101,-2.3101,-2.3101,-2.3101,-2.3081,-2.3003,-2.2828,-2.2715,-2.276,-2.274,-2.2402,-2.1639,-2.1064,-2.0674,-2.0615,-2.0683,-2.0857,-2.1517,-2.2113,-2.2553,-2.3963,-2.5016,-2.517,-2.5988,-2.5943,-2.5133,-2.4153,-2.377,-2.3734,-2.2719,-2.2322,-2.2975,-2.3005,-2.3017,-2.3017,-2.3078,-2.3095,-2.3095,-2.3095,-2.3095,-2.3095,-2.3095,-2.3095,-2.3095,-2.3095,-2.3095,-2.3095,-2.3095,-2.3095,-2.3095,-2.3095,-2.3095,-2.3095,-2.3095,-2.3185,-2.339,-2.492,-2.6212,-2.6904,-2.861,-3.0033,-3.0511,-3.0873,-3.1259,-3.1452,-3.1451,-3.1376,-3.1466,-3.1496,-3.1496,-3.1496,-3.1496,-3.1496,-3.1496,-3.1496,-3.1496,-3.1496,-3.1496,-3.1496,-3.1496,-3.1496,-3.1496,-3.1496,-3.1496,-3.1496,-3.1496,-3.1496,-3.1496,-3.1496,-3.1496,-3.1496,-3.1496,-3.1496,-3.1496,-3.1496,-3.1496,-3.1496,-3.1496,-3.1496,-3.1496,-3.1406,-3.1256,-3.1212,-2.5684,-2.5654,-2.5381,-2.5176,-2.5018,-2.4414,-2.4014,-2.375,-2.3437,-2.3227,-2.3101,-2.3101,-2.3101,-2.3101,-2.3101,-2.3101,-2.3013,-2.2779,-2.2646,-2.25,-2.2275,-2.2178,-2.1982,-2.1463,-2.0996,-2.0654,-2.0683,-2.0934,-2.1583,-2.1989,-2.2802,-2.4181,-2.4707,-2.5406,-2.6022,-2.5949,-2.5358,-2.467,-2.4193,-2.3484,-2.2986,-2.2911,-2.2896,-2.3035,-2.3095,-2.3095,-2.3095,-2.3095,-2.3095,-2.3095,-2.3095,-2.3095,-2.3095,-2.3095,-2.3095,-2.3095,-2.3095,-2.3095,-2.3095,-2.3095,-2.3095,-2.3095,-2.3095,-2.3095,-2.3095,-2.3095,-2.3395,-2.3852,-2.4667,-2.5556,-2.6947,-2.8278,-2.9353,-3.0349,-3.0627,-3.0883,-3.1256,-3.1062,-3.0913,-3.1376,-3.1496,-3.1496,-3.1496,-3.1496,-3.1496,-3.1496,-3.1496,-3.1496,-3.1496,-3.1496,-3.1496,-3.1496,-3.1496,-3.1496,-3.1496,-3.1496,-3.1496,-3.1496,-3.1496,-3.1496,-3.1496,-3.1496,-3.1496,-3.1496,-3.1496,-3.1496,-3.1496,-3.1496,-3.1496,-3.1496,-3.1496,-3.1481,-3.1316,-3.1167,-3.1167,-2.5586,-2.543,-2.5176,-2.4853,-2.4538,-2.3994,-2.3691,-2.3486,-2.3218,-2.3101,-2.3101,-2.3101,-2.3101,-2.3101,-2.3101,-2.2994,-2.2808,-2.2584,-2.2314,-2.1843,-2.1523,-2.1445,-2.1445,-2.1162,-2.081,-2.0683,-2.1011,-2.1479,-2.2103,-2.2813,-2.3927,-2.4814,-2.5453,-2.5955,-2.6346,-2.59,-2.5228,-2.4566,-2.4163,-2.3567,-2.2853,-2.2954,-2.3072,-2.3095,-2.3095,-2.3095,-2.3095,-2.3095,-2.3095,-2.3095,-2.3095,-2.3095,-2.3095,-2.3095,-2.3095,-2.3095,-2.3095,-2.3095,-2.3095,-2.3095,-2.3095,-2.3095,-2.3095,-2.3095,-2.3095,-2.3095,-2.3365,-2.3662,-2.4337,-2.5325,-2.644,-2.7687,-2.8921,-2.9826,-2.9879,-3.0118,-3.0943,-3.1017,-3.1092,-3.1376,-3.1496,-3.1496,-3.1496,-3.1496,-3.1496,-3.1496,-3.1496,-3.1496,-3.1496,-3.1496,-3.1496,-3.1496,-3.1496,-3.1496,-3.1496,-3.1496,-3.1496,-3.1496,-3.1496,-3.1496,-3.1496,-3.1496,-3.1496,-3.1496,-3.1496,-3.1496,-3.1496,-3.1496,-3.1496,-3.1496,-3.1496,-3.1466,-3.1331,-3.1241,-3.1227,-2.5371,-2.5047,-2.4988,-2.4492,-2.3877,-2.373,-2.3496,-2.3159,-2.311,-2.3101,-2.3101,-2.3101,-2.3101,-2.3091,-2.2994,-2.2828,-2.2529,-2.2334,-2.1785,-2.1309,-2.0898,-2.0859,-2.1103,-2.083,-2.0674,-2.075,-2.1555,-2.2038,-2.2627,-2.4036,-2.4933,-2.5418,-2.6094,-2.6418,-2.6336,-2.5824,-2.5285,-2.4748,-2.4085,-2.3566,-2.3106,-2.3072,-2.3108,-2.3095,-2.3095,-2.3095,-2.3095,-2.3095,-2.3095,-2.3095,-2.3095,-2.3095,-2.3095,-2.3095,-2.3095,-2.3095,-2.3095,-2.3095,-2.3095,-2.3095,-2.3095,-2.3095,-2.3095,-2.3095,-2.3095,-2.3095,-2.3275,-2.3767,-2.4639,-2.5494,-2.6324,-2.7591,-2.8568,-2.925,-2.8981,-2.925,-3.0088,-3.0883,-3.1316,-3.1421,-3.1406,-3.1496,-3.1496,-3.1496,-3.1496,-3.1496,-3.1496,-3.1496,-3.1496,-3.1496,-3.1496,-3.1496,-3.1496,-3.1496,-3.1496,-3.1496,-3.1496,-3.1496,-3.1496,-3.1496,-3.1496,-3.1496,-3.1496,-3.1496,-3.1496,-3.1496,-3.1496,-3.1496,-3.1496,-3.1496,-3.1496,-3.1496,-3.1466,-3.1406,-3.1376,-2.4639,-2.4531,-2.4209,-2.3965,-2.375,-2.3437,-2.3179,-2.3101,-2.3101,-2.3101,-2.3101,-2.3101,-2.3081,-2.3062,-2.2769,-2.2578,-2.2363,-2.1846,-2.1151,-2.0771,-2.0683,-2.0644,-2.0752,-2.0673,-2.0654,-2.0895,-2.1593,-2.2403,-2.3331,-2.4409,-2.5406,-2.6141,-2.628,-2.6474,-2.6336,-2.5511,-2.4958,-2.4625,-2.3822,-2.3296,-2.317,-2.3095,-2.3095,-2.3095,-2.3095,-2.3095,-2.3095,-2.3095,-2.3095,-2.3095,-2.3095,-2.3095,-2.3095,-2.3095,-2.3095,-2.3095,-2.3095,-2.3095,-2.3095,-2.3095,-2.3095,-2.3095,-2.3095,-2.3095,-2.3095,-2.3095,-2.3695,-2.4525,-2.5259,-2.6061,-2.7377,-2.7717,-2.8203,-2.8592,-2.8667,-2.8637,-2.9056,-2.9654,-3.0313,-3.0731,-3.1197,-3.1496,-3.1496,-3.1496,-3.1496,-3.1496,-3.1496,-3.1496,-3.1496,-3.1496,-3.1496,-3.1496,-3.1496,-3.1496,-3.1496,-3.1496,-3.1496,-3.1496,-3.1496,-3.1496,-3.1496,-3.1496,-3.1496,-3.1496,-3.1496,-3.1496,-3.1496,-3.1496,-3.1496,-3.1496,-3.1496,-3.1496,-3.1496,-3.1496,-3.1496,-2.4297,-2.4102,-2.3877,-2.3672,-2.3457,-2.3198,-2.3101,-2.3101,-2.3101,-2.3101,-2.3101,-2.3101,-2.2984,-2.2842,-2.2598,-2.2344,-2.1826,-2.125,-2.081,-2.0644,-2.0615,-2.0615,-2.075,-2.1039,-2.126,-2.1413,-2.2264,-2.322,-2.4217,-2.5146,-2.599,-2.6452,-2.6474,-2.6311,-2.6047,-2.5234,-2.4687,-2.4286,-2.3584,-2.3095,-2.3095,-2.3095,-2.3095,-2.3095,-2.3095,-2.3095,-2.3095,-2.3095,-2.3095,-2.3095,-2.3095,-2.3095,-2.3095,-2.3095,-2.3095,-2.3095,-2.3095,-2.3095,-2.3095,-2.3095,-2.3095,-2.3095,-2.3095,-2.3095,-2.3095,-2.3095,-2.3412,-2.4237,-2.5021,-2.617,-2.7843,-2.7899,-2.7869,-2.8004,-2.8139,-2.8128,-2.8323,-2.9247,-3.0103,-3.0567,-3.1107,-3.1391,-3.1496,-3.1496,-3.1496,-3.1496,-3.1496,-3.1496,-3.1496,-3.1496,-3.1496,-3.1496,-3.1496,-3.1496,-3.1496,-3.1496,-3.1496,-3.1496,-3.1496,-3.1496,-3.1496,-3.1496,-3.1496,-3.1496,-3.1496,-3.1496,-3.1496,-3.1496,-3.1496,-3.1496,-3.1496,-3.1496,-3.1496,-3.1496,-3.1496,-2.4004,-2.3701,-2.3691,-2.3477,-2.312,-2.3101,-2.3101,-2.3101,-2.3101,-2.3101,-2.3071,-2.3052,-2.2779,-2.2549,-2.2314,-2.1795,-2.123,-2.084,-2.0635,-2.0625,-2.0615,-2.075,-2.1049,-2.1555,-2.2178,-2.2478,-2.3294,-2.4217,-2.4957,-2.5931,-2.6261,-2.6361,-2.6323,-2.6009,-2.5485,-2.4958,-2.4437,-2.401,-2.3446,-2.3095,-2.3095,-2.3095,-2.3095,-2.3095,-2.3095,-2.3095,-2.3095,-2.3095,-2.3095,-2.3095,-2.3095,-2.3095,-2.3095,-2.3095,-2.3095,-2.3095,-2.3095,-2.3095,-2.3095,-2.3095,-2.3095,-2.3095,-2.3095,-2.3095,-2.3095,-2.3125,-2.3305,-2.3813,-2.4681,-2.5933,-2.7229,-2.7346,-2.7433,-2.7604,-2.7615,-2.7585,-2.7899,-2.9175,-2.9894,-3.0372,-3.0776,-3.1122,-3.1391,-3.1496,-3.1496,-3.1496,-3.1496,-3.1496,-3.1496,-3.1496,-3.1496,-3.1496,-3.1496,-3.1496,-3.1496,-3.1496,-3.1496,-3.1496,-3.1496,-3.1496,-3.1496,-3.1496,-3.1496,-3.1496,-3.1496,-3.1496,-3.1496,-3.1496,-3.1496,-3.1496,-3.1496,-3.1496,-3.1496,-3.1496,-3.1496,-2.3257,-2.3198,-2.3208,-2.3159,-2.3101,-2.3101,-2.3101,-2.3101,-2.3081,-2.3101,-2.3033,-2.2721,-2.2578,-2.2324,-2.1668,-2.1172,-2.0801,-2.0644,-2.0615,-2.0644,-2.0722,-2.1011,-2.1631,-2.2178,-2.2962,-2.4192,-2.4672,-2.4827,-2.5204,-2.5943,-2.6104,-2.5824,-2.5737,-2.546,-2.4946,-2.4412,-2.4142,-2.3866,-2.3371,-2.312,-2.3095,-2.3095,-2.3095,-2.3095,-2.3095,-2.3095,-2.3095,-2.3095,-2.3095,-2.3095,-2.3095,-2.3095,-2.3095,-2.3095,-2.3095,-2.3095,-2.3095,-2.3095,-2.3095,-2.3095,-2.3095,-2.3095,-2.3095,-2.3095,-2.3095,-2.3125,-2.3395,-2.406,-2.4753,-2.5728,-2.6549,-2.68,-2.706,-2.7357,-2.7585,-2.7585,-2.7779,-2.8393,-2.9235,-2.9684,-3.0268,-3.0866,-3.1107,-3.1376,-3.1496,-3.1496,-3.1496,-3.1496,-3.1496,-3.1496,-3.1496,-3.1496,-3.1496,-3.1496,-3.1496,-3.1496,-3.1496,-3.1496,-3.1496,-3.1496,-3.1496,-3.1496,-3.1496,-3.1496,-3.1496,-3.1496,-3.1496,-3.1496,-3.1496,-3.1496,-3.1496,-3.1496,-3.1496,-3.1496,-3.1496,-2.3101,-2.3101,-2.3101,-2.3101,-2.3101,-2.3101,-2.3101,-2.3052,-2.2867,-2.2769,-2.2695,-2.2383,-2.2051,-2.1787,-2.1434,-2.0996,-2.0713,-2.0615,-2.0615,-2.0644,-2.1116,-2.1489,-2.2253,-2.2951,-2.3963,-2.4838,-2.5152,-2.5284,-2.5328,-2.575,-2.5711,-2.5322,-2.5184,-2.4888,-2.4449,-2.4167,-2.3828,-2.3577,-2.3258,-2.3095,-2.3095,-2.3095,-2.3095,-2.3095,-2.3095,-2.3095,-2.3095,-2.3095,-2.3095,-2.3095,-2.3095,-2.3095,-2.3095,-2.3095,-2.3095,-2.3095,-2.3095,-2.3095,-2.3095,-2.3095,-2.3095,-2.3095,-2.3095,-2.3095,-2.3095,-2.3155,-2.3471,-2.4147,-2.4551,-2.5315,-2.6363,-2.6469,-2.6852,-2.7408,-2.7585,-2.7585,-2.766,-2.7944,-2.8442,-2.9116,-2.9968,-3.0567,-3.0866,-3.1122,-3.1406,-3.1496,-3.1496,-3.1496,-3.1496,-3.1496,-3.1496,-3.1496,-3.1496,-3.1496,-3.1496,-3.1496,-3.1496,-3.1496,-3.1496,-3.1496,-3.1496,-3.1496,-3.1496,-3.1496,-3.1496,-3.1496,-3.1496,-3.1496,-3.1496,-3.1496,-3.1496,-3.1496,-3.1496,-3.1496,-3.1496,-2.3101,-2.3101,-2.3101,-2.3101,-2.3081,-2.2994,-2.2964,-2.2886,-2.2559,-2.2393,-2.2324,-2.1943,-2.1572,-2.1249,-2.1073,-2.0879,-2.0615,-2.0615,-2.0615,-2.0789,-2.1489,-2.2038,-2.2813,-2.3927,-2.5075,-2.5403,-2.5425,-2.5598,-2.5523,-2.5477,-2.5101,-2.4782,-2.4625,-2.4349,-2.3916,-2.3766,-2.3446,-2.3271,-2.3095,-2.3095,-2.3095,-2.3095,-2.3095,-2.3095,-2.3095,-2.3095,-2.3095,-2.3095,-2.3095,-2.3095,-2.3095,-2.3095,-2.3095,-2.3095,-2.3095,-2.3095,-2.3095,-2.3095,-2.3095,-2.3095,-2.3095,-2.3095,-2.3095,-2.3095,-2.3095,-2.3185,-2.3424,-2.4076,-2.4366,-2.4992,-2.6203,-2.6469,-2.6878,-2.7382,-2.7585,-2.7585,-2.7585,-2.7764,-2.8079,-2.8801,-2.9729,-3.0283,-3.0597,-3.1107,-3.1451,-3.1496,-3.1496,-3.1496,-3.1496,-3.1496,-3.1496,-3.1496,-3.1496,-3.1496,-3.1496,-3.1496,-3.1496,-3.1496,-3.1496,-3.1496,-3.1496,-3.1496,-3.1496,-3.1496,-3.1496,-3.1496,-3.1496,-3.1496,-3.1496,-3.1496,-3.1496,-3.1496,-3.1496,-3.1496,-3.1496,-2.3101,-2.3101,-2.3091,-2.3101,-2.3023,-2.2734,-2.2588,-2.2529,-2.2139,-2.1963,-2.1924,-2.1523,-2.1229,-2.1093,-2.081,-2.0683,-2.0625,-2.0615,-2.0683,-2.0905,-2.1707,-2.2595,-2.3345,-2.442,-2.5366,-2.5682,-2.559,-2.5636,-2.5372,-2.5046,-2.4619,-2.4192,-2.4054,-2.3828,-2.3384,-2.3376,-2.317,-2.3108,-2.3095,-2.3095,-2.3095,-2.3095,-2.3095,-2.3095,-2.3095,-2.3095,-2.3095,-2.3095,-2.3095,-2.3095,-2.3095,-2.3095,-2.3095,-2.3095,-2.3095,-2.3095,-2.3095,-2.3095,-2.3095,-2.3095,-2.3095,-2.3095,-2.3095,-2.3095,-2.3095,-2.3138,-2.3424,-2.4192,-2.4279,-2.4894,-2.6014,-2.6443,-2.6904,-2.7306,-2.7585,-2.7585,-2.7585,-2.76,-2.7914,-2.8438,-2.931,-2.9924,-3.0372,-3.0972,-3.1496,-3.1496,-3.1496,-3.1496,-3.1496,-3.1496,-3.1496,-3.1496,-3.1496,-3.1496,-3.1496,-3.1496,-3.1496,-3.1496,-3.1496,-3.1496,-3.1496,-3.1496,-3.1496,-3.1496,-3.1496,-3.1496,-3.1496,-3.1496,-3.1496,-3.1496,-3.1496,-3.1496,-3.1496,-3.1496,-3.1496,-2.3101,-2.3071,-2.2838,-2.2793,-2.2725,-2.2334,-2.2158,-2.207,-2.1709,-2.1523,-2.1435,-2.1045,-2.0859,-2.082,-2.0664,-2.0615,-2.0615,-2.0644,-2.0934,-2.1527,-2.2355,-2.3223,-2.3967,-2.4807,-2.5605,-2.5332,-2.5021,-2.4644,-2.4607,-2.4481,-2.4079,-2.3584,-2.3496,-2.3439,-2.312,-2.3108,-2.3108,-2.3095,-2.3095,-2.3095,-2.3095,-2.3095,-2.3095,-2.3095,-2.3095,-2.3095,-2.3095,-2.3095,-2.3095,-2.3095,-2.3095,-2.3095,-2.3095,-2.3095,-2.3095,-2.3095,-2.3095,-2.3095,-2.3095,-2.3095,-2.3095,-2.3095,-2.3095,-2.3095,-2.3095,-2.3138,-2.3198,-2.3573,-2.406,-2.4809,-2.5755,-2.6256,-2.6864,-2.7291,-2.7585,-2.7585,-2.76,-2.76,-2.7794,-2.8349,-2.8918,-2.9594,-3.0298,-3.0972,-3.1451,-3.1496,-3.1496,-3.1496,-3.1496,-3.1496,-3.1496,-3.1496,-3.1496,-3.1496,-3.1496,-3.1496,-3.1496,-3.1496,-3.1496,-3.1496,-3.1496,-3.1496,-3.1496,-3.1496,-3.1496,-3.1496,-3.1496,-3.1496,-3.1496,-3.1496,-3.1496,-3.1496,-3.1496,-3.1496,-3.1496,-2.2877,-2.276,-2.2555,-2.2461,-2.2324,-2.1894,-2.1719,-2.167,-2.126,-2.1074,-2.0986,-2.0732,-2.0625,-2.0615,-2.0625,-2.0605,-2.0644,-2.0828,-2.1336,-2.2178,-2.3165,-2.3893,-2.4387,-2.5028,-2.5306,-2.4763,-2.4418,-2.4167,-2.4042,-2.3841,-2.3534,-2.3108,-2.3195,-2.3133,-2.3108,-2.3095,-2.3095,-2.3095,-2.3095,-2.3095,-2.3095,-2.3095,-2.3095,-2.3095,-2.3095,-2.3095,-2.3095,-2.3095,-2.3095,-2.2869,-2.3045,-2.3045,-2.2882,-2.2995,-2.3083,-2.3095,-2.3095,-2.3095,-2.3095,-2.3095,-2.3095,-2.3095,-2.3095,-2.3095,-2.3095,-2.3095,-2.3305,-2.3573,-2.3972,-2.4724,-2.5536,-2.6256,-2.6785,-2.728,-2.7585,-2.7585,-2.7585,-2.76,-2.7839,-2.8412,-2.8981,-2.9577,-3.0268,-3.0987,-3.1376,-3.1466,-3.1496,-3.1496,-3.1496,-3.1496,-3.1496,-3.1496,-3.1496,-3.1496,-3.1496,-3.1496,-3.1496,-3.1496,-3.1496,-3.1496,-3.1496,-3.1496,-3.1496,-3.1496,-3.1496,-3.1496,-3.1496,-3.1496,-3.1496,-3.1496,-3.1496,-3.1496,-3.1496,-3.1496,-3.1496,-2.2324,-2.2002,-2.2344,-2.2256,-2.1904,-2.1465,-2.1239,-2.125,-2.082,-2.0664,-2.0713,-2.0625,-2.0605,-2.0663,-2.0701,-2.074,-2.075,-2.1517,-2.2017,-2.2765,-2.3772,-2.4402,-2.4693,-2.4945,-2.5222,-2.4637,-2.4104,-2.3904,-2.3853,-2.3446,-2.3246,-2.3095,-2.3095,-2.3095,-2.3095,-2.3095,-2.3095,-2.3095,-2.3095,-2.3095,-2.3095,-2.3095,-2.3095,-2.3095,-2.3095,-2.3095,-2.3095,-2.3095,-2.2957,-2.2594,-2.2907,-2.2945,-2.2769,-2.2945,-2.3083,-2.3095,-2.3095,-2.3095,-2.3095,-2.3095,-2.3095,-2.3095,-2.3095,-2.3095,-2.3095,-2.3095,-2.3424,-2.3914,-2.4221,-2.4979,-2.581,-2.6549,-2.7008,-2.7306,-2.7585,-2.7585,-2.7585,-2.7585,-2.7884,-2.8487,-2.9056,-2.9636,-3.0208,-3.0913,-3.1361,-3.1481,-3.1496,-3.1496,-3.1496,-3.1496,-3.1496,-3.1496,-3.1496,-3.1496,-3.1496,-3.1496,-3.1496,-3.1496,-3.1496,-3.1496,-3.1496,-3.1496,-3.1496,-3.1496,-3.1496,-3.1496,-3.1553,-3.1682,-3.1739,-3.1553,-3.1496,-3.1496,-3.1496,-3.1496,-3.1496,-2.1875,-2.1504,-2.1629,-2.1631,-2.1455,-2.1016,-2.082,-2.0801,-2.0683,-2.0615,-2.0605,-2.0605,-2.0934,-2.1227,-2.1145,-2.1534,-2.2254,-2.2293,-2.2963,-2.375,-2.4601,-2.4783,-2.4802,-2.4702,-2.4625,-2.3935,-2.3534,-2.3446,-2.3371,-2.3195,-2.3145,-2.3095,-2.3095,-2.3095,-2.3095,-2.3095,-2.3095,-2.3095,-2.3095,-2.3095,-2.3095,-2.3095,-2.3095,-2.3095,-2.3095,-2.3095,-2.3095,-2.3095,-2.297,-2.2869,-2.297,-2.2832,-2.2694,-2.2932,-2.3058,-2.3095,-2.3095,-2.3095,-2.3095,-2.3095,-2.3095,-2.3095,-2.3095,-2.3095,-2.3095,-2.3095,-2.3198,-2.3679,-2.4452,-2.5231,-2.5618,-2.6602,-2.7357,-2.7509,-2.7585,-2.7585,-2.7585,-2.7585,-2.766,-2.8128,-2.8906,-2.9609,-3.0223,-3.0851,-3.1197,-3.1496,-3.1496,-3.1496,-3.1496,-3.1496,-3.1496,-3.1496,-3.1496,-3.1496,-3.1496,-3.1496,-3.1496,-3.1496,-3.1496,-3.1496,-3.1496,-3.1496,-3.1496,-3.1496,-3.1524,-3.1553,-3.1682,-3.1951,-3.1923,-3.1625,-3.1524,-3.1496,-3.1496,-3.1496,-3.1496,-2.1435,-2.1055,-2.1045,-2.1035,-2.0986,-2.0693,-2.0615,-2.0615,-2.0615,-2.0789,-2.0991,-2.0929,-2.1322,-2.185,-2.1694,-2.184,-2.267,-2.3088,-2.3803,-2.4543,-2.5071,-2.5117,-2.4929,-2.4662,-2.4311,-2.3346,-2.3095,-2.3133,-2.317,-2.3108,-2.3095,-2.3095,-2.3095,-2.3095,-2.3095,-2.3095,-2.3095,-2.3095,-2.3095,-2.3095,-2.3095,-2.3095,-2.3095,-2.3095,-2.3095,-2.3095,-2.3095,-2.307,-2.2832,-2.2669,-2.2644,-2.2706,-2.2706,-2.2769,-2.2932,-2.3045,-2.3095,-2.3095,-2.3095,-2.3095,-2.3095,-2.3095,-2.3095,-2.3095,-2.3095,-2.3125,-2.3215,-2.3649,-2.4525,-2.5231,-2.5508,-2.6602,-2.728,-2.7448,-2.756,-2.7585,-2.7585,-2.7585,-2.7585,-2.7764,-2.8678,-2.9639,-3.0133,-3.0746,-3.1241,-3.1496,-3.1496,-3.1496,-3.1496,-3.1496,-3.1496,-3.1496,-3.1496,-3.1496,-3.1496,-3.1496,-3.1496,-3.1496,-3.1496,-3.1496,-3.1496,-3.1496,-3.1496,-3.1496,-3.1524,-3.1611,-3.1881,-3.2216,-3.1979,-3.1611,-3.1553,-3.1496,-3.1496,-3.1496,-3.1496,-2.0996,-2.0635,-2.0644,-2.0654,-2.0664,-2.0625,-2.0615,-2.0595,-2.0672,-2.1133,-2.1789,-2.1454,-2.1756,-2.2366,-2.2108,-2.2227,-2.2742,-2.357,-2.4183,-2.4601,-2.5382,-2.5498,-2.5064,-2.4537,-2.4098,-2.3333,-2.3095,-2.3095,-2.3095,-2.3095,-2.3095,-2.3095,-2.3095,-2.3095,-2.3095,-2.3095,-2.3095,-2.3095,-2.3095,-2.3095,-2.3095,-2.3095,-2.3095,-2.3095,-2.3095,-2.3095,-2.3095,-2.3095,-2.2757,-2.2167,-2.2418,-2.2385,-2.2008,-2.2355,-2.2694,-2.307,-2.3095,-2.3095,-2.3095,-2.3095,-2.3095,-2.3095,-2.3095,-2.3095,-2.3095,-2.3155,-2.3412,-2.3914,-2.4481,-2.5203,-2.5864,-2.6602,-2.7126,-2.7397,-2.7534,-2.7585,-2.7585,-2.76,-2.76,-2.7944,-2.8843,-2.9669,-3.0103,-3.0612,-3.1212,-3.1496,-3.1496,-3.1496,-3.1496,-3.1496,-3.1496,-3.1496,-3.1496,-3.1496,-3.1496,-3.1496,-3.1496,-3.1496,-3.1496,-3.1496,-3.1496,-3.1496,-3.1496,-3.1496,-3.1524,-3.1582,-3.2035,-3.2504,-3.2132,-3.1796,-3.1582,-3.1496,-3.1496,-3.1496,-3.1496,-2.0752,-2.0615,-2.0615,-2.0615,-2.0615,-2.0615,-2.0615,-2.0624,-2.0939,-2.1549,-2.2201,-2.1906,-2.2189,-2.2696,-2.2678,-2.2758,-2.3706,-2.3624,-2.4168,-2.467,-2.5273,-2.4831,-2.4469,-2.4243,-2.3891,-2.3308,-2.3095,-2.3095,-2.3095,-2.3095,-2.3095,-2.3095,-2.3095,-2.3095,-2.3095,-2.3095,-2.3095,-2.3095,-2.3095,-2.3095,-2.3095,-2.3095,-2.3095,-2.3095,-2.3083,-2.3045,-2.3032,-2.3007,-2.256,-2.2008,-2.2334,-2.2368,-2.2108,-2.2418,-2.2844,-2.3083,-2.3095,-2.3095,-2.3095,-2.3095,-2.3095,-2.3095,-2.3095,-2.3095,-2.3095,-2.3095,-2.3573,-2.4234,-2.4738,-2.5481,-2.6256,-2.6982,-2.7448,-2.7499,-2.7585,-2.7585,-2.76,-2.7615,-2.7705,-2.8349,-2.9116,-3.0088,-3.0688,-3.0823,-3.1316,-3.1496,-3.1496,-3.1496,-3.1496,-3.1496,-3.1496,-3.1496,-3.1496,-3.1496,-3.1496,-3.1496,-3.1496,-3.1496,-3.1496,-3.1496,-3.1496,-3.1496,-3.1496,-3.1496,-3.1524,-3.1582,-3.1979,-3.2299,-3.2216,-3.2007,-3.1829,-3.1673,-3.1645,-3.1585,-3.1496,-2.0615,-2.0595,-2.0449,-2.038,-2.04,-2.0537,-2.075,-2.1113,-2.1555,-2.2287,-2.2945,-2.2469,-2.2653,-2.3137,-2.3115,-2.3048,-2.4173,-2.4123,-2.4092,-2.4556,-2.477,-2.4506,-2.4192,-2.3929,-2.3703,-2.3258,-2.3095,-2.3095,-2.3095,-2.3095,-2.3095,-2.3095,-2.3095,-2.3095,-2.3095,-2.3095,-2.3095,-2.3095,-2.3095,-2.3095,-2.3095,-2.3095,-2.3095,-2.3032,-2.2932,-2.2794,-2.2757,-2.2594,-2.2334,-2.2108,-2.2159,-2.2368,-2.2284,-2.2468,-2.2882,-2.302,-2.3095,-2.3095,-2.3095,-2.3095,-2.3095,-2.3095,-2.3095,-2.3095,-2.3095,-2.3095,-2.3796,-2.4481,-2.5133,-2.5919,-2.6733,-2.7433,-2.7549,-2.7585,-2.7585,-2.7585,-2.76,-2.7615,-2.7884,-2.8532,-2.934,-3.0342,-3.1167,-3.1286,-3.1481,-3.1496,-3.1496,-3.1496,-3.1496,-3.1496,-3.1496,-3.1496,-3.1496,-3.1496,-3.1496,-3.1496,-3.1496,-3.1496,-3.1496,-3.1496,-3.1496,-3.1496,-3.1496,-3.1511,-3.1525,-3.1656,-3.1868,-3.2051,-3.2237,-3.2259,-3.217,-3.2028,-3.1839,-3.1765,-3.1705,-2.0556,-2.0507,-2.0068,-1.993,-2.0036,-2.0635,-2.1301,-2.2051,-2.2468,-2.3189,-2.4065,-2.2864,-2.2799,-2.3498,-2.3175,-2.2965,-2.3138,-2.353,-2.3804,-2.4036,-2.4293,-2.413,-2.4004,-2.3841,-2.3509,-2.3246,-2.3095,-2.3095,-2.3095,-2.3095,-2.3095,-2.3095,-2.3095,-2.3095,-2.3095,-2.3095,-2.3095,-2.3095,-2.3095,-2.3095,-2.3095,-2.3095,-2.3095,-2.3007,-2.2807,-2.2556,-2.2368,-2.2108,-2.1546,-2.1295,-2.1292,-2.1443,-2.1656,-2.2008,-2.2506,-2.2844,-2.2932,-2.2882,-2.2832,-2.2794,-2.2932,-2.2882,-2.2982,-2.3045,-2.3155,-2.3275,-2.4047,-2.4809,-2.555,-2.6428,-2.728,-2.7433,-2.756,-2.7585,-2.7585,-2.7585,-2.7585,-2.775,-2.8064,-2.8678,-2.9475,-3.0372,-3.1197,-3.1496,-3.1496,-3.1496,-3.1496,-3.1496,-3.1496,-3.1496,-3.1496,-3.1496,-3.1496,-3.1496,-3.1496,-3.1496,-3.1496,-3.1496,-3.1496,-3.1496,-3.1496,-3.1615,-3.178,-3.1809,-3.1645,-3.1746,-3.2083,-3.2309,-3.2483,-3.2484,-3.2475,-3.2419,-3.2243,-3.2168,-3.2183,-1.9648,-1.9639,-1.9521,-1.981,-2.0571,-2.1914,-2.2706,-2.2914,-2.2737,-2.3147,-2.3979,-2.2635,-2.2269,-2.2435,-2.1675,-2.1815,-2.2154,-2.2487,-2.2899,-2.3257,-2.3659,-2.3509,-2.3434,-2.3384,-2.3233,-2.317,-2.3095,-2.3095,-2.3095,-2.3095,-2.3095,-2.3095,-2.3095,-2.3095,-2.3095,-2.3095,-2.3095,-2.3095,-2.3095,-2.3095,-2.3083,-2.3058,-2.3058,-2.2932,-2.2732,-2.2443,-2.2133,-2.2027,-2.1473,-2.0918,-2.1245,-2.1383,-2.0968,-2.1405,-2.187,-2.1907,-2.1945,-2.1917,-2.1958,-2.197,-2.2175,-2.2502,-2.2548,-2.2794,-2.3094,-2.3598,-2.4284,-2.5035,-2.5715,-2.6496,-2.7214,-2.7509,-2.7585,-2.7585,-2.7585,-2.7585,-2.7585,-2.7675,-2.8064,-2.9056,-2.9864,-3.0657,-3.1421,-3.1496,-3.1496,-3.1496,-3.1496,-3.1496,-3.1496,-3.1496,-3.1496,-3.1496,-3.1496,-3.1496,-3.1496,-3.1496,-3.1496,-3.1496,-3.1585,-3.169,-3.1809,-3.1959,-3.2123,-3.2213,-3.2198,-3.2257,-3.2375,-3.2578,-3.2751,-3.279,-3.2781,-3.2751,-3.2706,-3.2662,-3.2841,-1.9277,-1.9294,-1.9477,-2.0167,-2.1151,-2.1897,-2.2545,-2.3039,-2.2771,-2.2951,-2.3264,-2.1989,-2.1396,-2.142,-2.1313,-2.1522,-2.1951,-2.2439,-2.2812,-2.3037,-2.3095,-2.3145,-2.312,-2.3095,-2.312,-2.3095,-2.3095,-2.3095,-2.3095,-2.3095,-2.3095,-2.3095,-2.3095,-2.3095,-2.3095,-2.3095,-2.3095,-2.3095,-2.3095,-2.3095,-2.3032,-2.2907,-2.2807,-2.2706,-2.2531,-2.2087,-2.1829,-2.1762,-2.1264,-2.0675,-2.1028,-2.1261,-2.0927,-2.1179,-2.1493,-2.1568,-2.1581,-2.1594,-2.1606,-2.1568,-2.1847,-2.2084,-2.2154,-2.248,-2.2978,-2.3527,-2.4338,-2.5147,-2.5755,-2.6363,-2.7034,-2.7585,-2.7585,-2.7585,-2.7585,-2.7585,-2.7585,-2.7585,-2.8408,-2.946,-3.0328,-3.1092,-3.1496,-3.1496,-3.1496,-3.1496,-3.1496,-3.1496,-3.1496,-3.1496,-3.1496,-3.1496,-3.1496,-3.1496,-3.1496,-3.154,-3.1675,-3.1795,-3.2004,-3.2108,-3.2183,-3.2467,-3.2811,-3.2916,-3.2901,-3.2931,-3.2961,-3.2961,-3.3051,-3.3125,-3.3365,-3.3559,-3.3499,-3.3275,-3.3589,-1.9242,-1.9328,-1.9761,-2.0666,-2.1694,-2.1181,-2.1749,-2.2964,-2.2725,-2.2655,-2.2396,-2.1232,-2.0623,-2.0623,-2.0878,-2.1302,-2.1784,-2.2249,-2.2763,-2.3095,-2.3095,-2.3095,-2.3095,-2.3095,-2.3095,-2.3095,-2.3095,-2.3095,-2.3095,-2.3095,-2.3095,-2.3095,-2.3095,-2.3095,-2.3095,-2.2945,-2.2882,-2.2857,-2.2794,-2.2744,-2.2794,-2.2594,-2.2272,-2.2096,-2.1602,-2.1015,-2.096,-2.0836,-2.0636,-2.0616,-2.0682,-2.1147,-2.0904,-2.0891,-2.1142,-2.1204,-2.1091,-2.1079,-2.1054,-2.1054,-2.1492,-2.1716,-2.1847,-2.2237,-2.2752,-2.3552,-2.4432,-2.5341,-2.6001,-2.6663,-2.7342,-2.756,-2.7585,-2.7585,-2.7585,-2.7585,-2.7585,-2.7884,-2.8753,-2.9744,-3.0627,-3.1316,-3.1496,-3.1496,-3.1496,-3.1496,-3.1496,-3.1496,-3.1496,-3.1496,-3.1496,-3.1496,-3.1496,-3.1496,-3.1496,-3.16,-3.1884,-3.2093,-3.2333,-3.2647,-3.2841,-3.3185,-3.3574,-3.3694,-3.3814,-3.3619,-3.3574,-3.3574,-3.3604,-3.3709,-3.3993,-3.4429,-3.4384,-3.4053,-3.4247,-1.8714,-1.9365,-2.0128,-2.1001,-2.1815,-2.169,-2.2125,-2.3017,-2.2382,-2.2091,-2.1918,-2.1074,-2.0268,-1.9944,-2.0204,-2.0623,-2.1239,-2.2156,-2.2549,-2.2944,-2.3095,-2.3032,-2.3058,-2.2995,-2.3045,-2.3095,-2.3095,-2.3095,-2.3095,-2.3095,-2.3095,-2.3095,-2.3058,-2.302,-2.2982,-2.2757,-2.2481,-2.2468,-2.2259,-2.2234,-2.2334,-2.2347,-2.2159,-2.1951,-2.1481,-2.1496,-2.155,-2.18,-2.1645,-2.1507,-2.1027,-2.0679,-2.0076,-2.0189,-2.0213,-2.0225,-2.0338,-2.0376,-2.0402,-2.0506,-2.0831,-2.1181,-2.1416,-2.1969,-2.2657,-2.3594,-2.4518,-2.5434,-2.6252,-2.6938,-2.7444,-2.7534,-2.7585,-2.7585,-2.7585,-2.7585,-2.76,-2.8334,-2.9097,-2.9924,-3.0821,-3.1182,-3.1391,-3.1496,-3.1496,-3.1496,-3.1496,-3.1496,-3.1496,-3.1496,-3.1496,-3.1496,-3.1496,-3.1496,-3.1496,-3.1645,-3.1929,-3.2317,-3.2557,-3.2991,-3.3469,-3.3888,-3.4307,-3.4622,-3.4741,-3.4457,-3.4247,-3.4247,-3.4292,-3.4352,-3.4532,-3.4921,-3.5085,-3.4876,-3.5085,-1.8303,-1.8854,-2.0074,-2.1322,-2.2187,-2.1678,-2.199,-2.275,-2.1846,-2.1553,-2.1765,-2.1017,-2.0301,-2.0042,-2.0268,-2.0526,-2.127,-2.2063,-2.2659,-2.3035,-2.2995,-2.2895,-2.2869,-2.2757,-2.2706,-2.2757,-2.302,-2.3095,-2.302,-2.3095,-2.3095,-2.302,-2.292,-2.2732,-2.2669,-2.2259,-2.1945,-2.1933,-2.1581,-2.1543,-2.1669,-2.1568,-2.1493,-2.1333,-2.1391,-2.1485,-2.1746,-2.2005,-2.2152,-2.1712,-2.1142,-2.0511,-2.0029,-1.9886,-1.9849,-1.9861,-1.9874,-1.9798,-1.9875,-2.0105,-2.0361,-2.0849,-2.1004,-2.1547,-2.2592,-2.3531,-2.4438,-2.5329,-2.6167,-2.6875,-2.7367,-2.7585,-2.7585,-2.7585,-2.7585,-2.7585,-2.7794,-2.8248,-2.8951,-2.9669,-3.0447,-3.1017,-3.1241,-3.1496,-3.1496,-3.1496,-3.1496,-3.1496,-3.1496,-3.1496,-3.1496,-3.1496,-3.1496,-3.1496,-3.1496,-3.169,-3.1959,-3.2348,-3.2886,-3.3619,-3.4277,-3.4666,-3.504,-3.5145,-3.5175,-3.5085,-3.4936,-3.4831,-3.4906,-3.4981,-3.516,-3.5415,-3.5489,-3.5489,-3.5474,-1.8076,-1.8395,-2.0042,-2.1573,-2.2628,-2.1447,-2.1678,-2.2689,-2.1604,-2.1396,-2.2002,-2.1365,-2.091,-2.091,-2.1491,-2.1753,-2.2046,-2.2371,-2.2812,-2.299,-2.2832,-2.2631,-2.2406,-2.2272,-2.2205,-2.2293,-2.2531,-2.2669,-2.2681,-2.2681,-2.2644,-2.2757,-2.2531,-2.2209,-2.2046,-2.1719,-2.138,-2.133,-2.1144,-2.0955,-2.0805,-2.0668,-2.0772,-2.0795,-2.0847,-2.0945,-2.1393,-2.1917,-2.236,-2.1997,-2.139,-2.0584,-2.0042,-1.9798,-1.9798,-1.9824,-2.0029,-2.0029,-2.0118,-2.0597,-2.0809,-2.0983,-2.0944,-2.1526,-2.2621,-2.3607,-2.4515,-2.5296,-2.6136,-2.6849,-2.7342,-2.7585,-2.7585,-2.7585,-2.7585,-2.7585,-2.7899,-2.8218,-2.8846,-2.949,-3.0133,-3.0776,-3.1182,-3.1451,-3.1496,-3.1496,-3.1496,-3.1496,-3.1496,-3.1496,-3.1496,-3.1496,-3.1496,-3.1496,-3.1496,-3.1839,-3.2138,-3.2871,-3.3469,-3.4337,-3.4996,-3.5145,-3.528,-3.537,-3.54,-3.5325,-3.534,-3.528,-3.54,-3.5415,-3.5444,-3.5489,-3.5489,-3.5489,-3.5489,-1.8438,-1.921,-2.0942,-2.1877,-2.2063,-2.1741,-2.2218,-2.2944,-2.2738,-2.275,-2.2658,-2.2604,-2.199,-2.0643,-2.1522,-2.1904,-2.2049,-2.2397,-2.276,-2.2995,-2.2422,-2.2221,-2.2096,-2.192,-2.1707,-2.1757,-2.1857,-2.182,-2.2108,-2.1995,-2.1845,-2.1882,-2.182,-2.1631,-2.1543,-2.1207,-2.0842,-2.0767,-2.0503,-2.02,-2.0314,-2.0395,-2.072,-2.0923,-2.1264,-2.1785,-2.2383,-2.3039,-2.3275,-2.2958,-2.2049,-2.0953,-2.022,-1.9824,-1.985,-2.0003,-2.022,-2.0371,-2.0572,-2.0955,-2.1161,-2.1307,-2.1476,-2.2072,-2.3155,-2.4244,-2.4999,-2.555,-2.6337,-2.7132,-2.7585,-2.7585,-2.7585,-2.7585,-2.7585,-2.7585,-2.7735,-2.8188,-2.8757,-2.94,-3.0058,-3.0731,-3.1361,-3.1496,-3.1496,-3.1496,-3.1496,-3.1496,-3.1496,-3.1496,-3.1496,-3.1496,-3.1496,-3.1496,-3.1511,-3.2064,-3.2527,-3.3275,-3.3993,-3.4696,-3.519,-3.537,-3.5489,-3.5489,-3.5489,-3.5444,-3.5489,-3.5489,-3.5489,-3.5459,-3.5474,-3.5489,-3.5489,-3.5489,-3.5489]}]]